<?xml version='1.0' encoding='UTF-8'?><gpx version="1.1" creator="JPX - https://github.com/jenetics/jpx" xmlns="http://www.topografix.com/GPX/1/1"><trk><trkseg><trkpt lat="43.68693209743618" lon="10.77045027662698"><ele>49.49999999999999</ele><time>2026-05-01T07:46:15Z</time></trkpt><trkpt lat="43.686852768175086" lon="10.770564272989654"><ele>50.0</ele><time>2026-05-01T07:46:17Z</time></trkpt><trkpt lat="43.68680267081053" lon="10.770704166501094"><ele>50.5</ele><time>2026-05-01T07:46:19Z</time></trkpt><trkpt lat="43.686754140131924" lon="10.770780681047965"><ele>51.0</ele><time>2026-05-01T07:46:20Z</time></trkpt><trkpt lat="43.68671675597021" lon="10.770861619566839"><ele>51.49999999999999</ele><time>2026-05-01T07:46:21Z</time></trkpt><trkpt lat="43.68668015695332" lon="10.7709381545775"><ele>52.0</ele><time>2026-05-01T07:46:22Z</time></trkpt><trkpt lat="43.68664395493089" lon="10.771028083951686"><ele>51.99999999999999</ele><time>2026-05-01T07:46:23Z</time></trkpt><trkpt lat="43.68661016198574" lon="10.771126665301734"><ele>52.0</ele><time>2026-05-01T07:46:24Z</time></trkpt><trkpt lat="43.686590760794466" lon="10.771236978286346"><ele>52.0</ele><time>2026-05-01T07:46:25Z</time></trkpt><trkpt lat="43.68656919723212" lon="10.771339274788202"><ele>52.0</ele><time>2026-05-01T07:46:26Z</time></trkpt><trkpt lat="43.68655486841931" lon="10.771441109137127"><ele>51.99999999999999</ele><time>2026-05-01T07:46:27Z</time></trkpt><trkpt lat="43.68654697503757" lon="10.771558627874956"><ele>52.0</ele><time>2026-05-01T07:46:28Z</time></trkpt><trkpt lat="43.68653259925456" lon="10.7716867497944"><ele>52.0</ele><time>2026-05-01T07:46:29Z</time></trkpt><trkpt lat="43.68652921832778" lon="10.771826073225052"><ele>52.0</ele><time>2026-05-01T07:46:30Z</time></trkpt><trkpt lat="43.686536486348146" lon="10.77197407287125"><ele>52.0</ele><time>2026-05-01T07:46:31Z</time></trkpt><trkpt lat="43.68655583528294" lon="10.772130416351862"><ele>52.0</ele><time>2026-05-01T07:46:32Z</time></trkpt><trkpt lat="43.686576043025134" lon="10.772279124773924"><ele>52.0</ele><time>2026-05-01T07:46:32.999Z</time></trkpt><trkpt lat="43.686594846891566" lon="10.772418577871381"><ele>52.0</ele><time>2026-05-01T07:46:33.999Z</time></trkpt><trkpt lat="43.686615604323386" lon="10.772572204508588"><ele>52.0</ele><time>2026-05-01T07:46:34.999Z</time></trkpt><trkpt lat="43.68663361921351" lon="10.772730463735375"><ele>52.0</ele><time>2026-05-01T07:46:35.999Z</time></trkpt><trkpt lat="43.68665320491864" lon="10.772888177484946"><ele>52.0</ele><time>2026-05-01T07:46:36.999Z</time></trkpt><trkpt lat="43.68667389549156" lon="10.773067793196043"><ele>51.75</ele><time>2026-05-01T07:46:37.999Z</time></trkpt><trkpt lat="43.686697922323454" lon="10.773238263383055"><ele>51.5</ele><time>2026-05-01T07:46:38.999Z</time></trkpt><trkpt lat="43.68673089107012" lon="10.773399970213186"><ele>51.25</ele><time>2026-05-01T07:46:39.999Z</time></trkpt><trkpt lat="43.68677145232822" lon="10.773557730681626"><ele>51.0</ele><time>2026-05-01T07:46:40.999Z</time></trkpt><trkpt lat="43.6868114355623" lon="10.7737205768062"><ele>51.0</ele><time>2026-05-01T07:46:41.999Z</time></trkpt><trkpt lat="43.68685030714604" lon="10.773882030042907"><ele>51.0</ele><time>2026-05-01T07:46:42.999Z</time></trkpt><trkpt lat="43.68688608453303" lon="10.774028548416888"><ele>51.0</ele><time>2026-05-01T07:46:43.999Z</time></trkpt><trkpt lat="43.68691055824949" lon="10.774164492882257"><ele>51.0</ele><time>2026-05-01T07:46:44.999Z</time></trkpt><trkpt lat="43.686915841498866" lon="10.77429306170131"><ele>51.0</ele><time>2026-05-01T07:46:45.999Z</time></trkpt><trkpt lat="43.686902275423876" lon="10.77442768060738"><ele>51.75</ele><time>2026-05-01T07:46:46.999Z</time></trkpt><trkpt lat="43.68688181640919" lon="10.774575103184262"><ele>52.5</ele><time>2026-05-01T07:46:47.999Z</time></trkpt><trkpt lat="43.6868449287359" lon="10.774722943033549"><ele>53.25</ele><time>2026-05-01T07:46:48.999Z</time></trkpt><trkpt lat="43.68679566717687" lon="10.77486149167416"><ele>54.0</ele><time>2026-05-01T07:46:49.999Z</time></trkpt><trkpt lat="43.68672353723413" lon="10.77498876552445"><ele>54.0</ele><time>2026-05-01T07:46:50.999Z</time></trkpt><trkpt lat="43.686645053946485" lon="10.775100539780825"><ele>54.0</ele><time>2026-05-01T07:46:51.999Z</time></trkpt><trkpt lat="43.68653502295277" lon="10.775213139793195"><ele>54.0</ele><time>2026-05-01T07:46:52.999Z</time></trkpt><trkpt lat="43.68641976594774" lon="10.775308925961852"><ele>54.0</ele><time>2026-05-01T07:46:53.999Z</time></trkpt><trkpt lat="43.686293313408456" lon="10.775393866238797"><ele>54.25</ele><time>2026-05-01T07:46:54.999Z</time></trkpt><trkpt lat="43.68618129207936" lon="10.77547754595554"><ele>54.5</ele><time>2026-05-01T07:46:55.999Z</time></trkpt><trkpt lat="43.68608497335098" lon="10.775577151036618"><ele>54.75</ele><time>2026-05-01T07:46:56.999Z</time></trkpt><trkpt lat="43.68599216184093" lon="10.77570327184563"><ele>55.0</ele><time>2026-05-01T07:46:57.999Z</time></trkpt><trkpt lat="43.685906373493786" lon="10.775841322361503"><ele>55.0</ele><time>2026-05-01T07:46:58.999Z</time></trkpt><trkpt lat="43.68582343875753" lon="10.775983737315709"><ele>55.0</ele><time>2026-05-01T07:46:59.999Z</time></trkpt><trkpt lat="43.68574419677671" lon="10.776122010648262"><ele>55.0</ele><time>2026-05-01T07:47:00.999Z</time></trkpt><trkpt lat="43.68566742730988" lon="10.776256472747072"><ele>55.0</ele><time>2026-05-01T07:47:01.999Z</time></trkpt><trkpt lat="43.68559078842231" lon="10.77638670607604"><ele>55.0</ele><time>2026-05-01T07:47:02.999Z</time></trkpt><trkpt lat="43.685515861368295" lon="10.776513409826515"><ele>55.0</ele><time>2026-05-01T07:47:03.999Z</time></trkpt><trkpt lat="43.685439292233724" lon="10.776640919127475"><ele>55.0</ele><time>2026-05-01T07:47:04.999Z</time></trkpt><trkpt lat="43.685361318920776" lon="10.776764426493617"><ele>55.0</ele><time>2026-05-01T07:47:05.999Z</time></trkpt><trkpt lat="43.685280216356" lon="10.776889437969976"><ele>55.0</ele><time>2026-05-01T07:47:06.999Z</time></trkpt><trkpt lat="43.68519657521208" lon="10.77701781756004"><ele>55.0</ele><time>2026-05-01T07:47:07.999Z</time></trkpt><trkpt lat="43.685118702703406" lon="10.777144354639177"><ele>55.0</ele><time>2026-05-01T07:47:08.999Z</time></trkpt><trkpt lat="43.685042127388655" lon="10.777269643075718"><ele>55.0</ele><time>2026-05-01T07:47:09.999Z</time></trkpt><trkpt lat="43.68497328882782" lon="10.777398693618338"><ele>55.0</ele><time>2026-05-01T07:47:10.999Z</time></trkpt><trkpt lat="43.68490913210398" lon="10.777544166637215"><ele>55.0</ele><time>2026-05-01T07:47:11.999Z</time></trkpt><trkpt lat="43.684857497653034" lon="10.77769722152873"><ele>55.0</ele><time>2026-05-01T07:47:12.999Z</time></trkpt><trkpt lat="43.68481506713485" lon="10.777845703920214"><ele>55.0</ele><time>2026-05-01T07:47:13.999Z</time></trkpt><trkpt lat="43.684775287744124" lon="10.777985400039704"><ele>55.2</ele><time>2026-05-01T07:47:14.999Z</time></trkpt><trkpt lat="43.68473838401218" lon="10.778125624974985"><ele>55.4</ele><time>2026-05-01T07:47:15.998Z</time></trkpt><trkpt lat="43.68470184079517" lon="10.7782622925185"><ele>55.599999999999994</ele><time>2026-05-01T07:47:16.998Z</time></trkpt><trkpt lat="43.6846552738337" lon="10.778389410120528"><ele>55.8</ele><time>2026-05-01T07:47:17.998Z</time></trkpt><trkpt lat="43.684621117189266" lon="10.778526068154864"><ele>56.0</ele><time>2026-05-01T07:47:18.998Z</time></trkpt><trkpt lat="43.6845886843319" lon="10.778655829306354"><ele>56.4</ele><time>2026-05-01T07:47:19.998Z</time></trkpt><trkpt lat="43.6845573879694" lon="10.778786196680434"><ele>56.8</ele><time>2026-05-01T07:47:20.998Z</time></trkpt><trkpt lat="43.68453665850988" lon="10.778922016806334"><ele>57.199999999999996</ele><time>2026-05-01T07:47:21.998Z</time></trkpt><trkpt lat="43.68450065086011" lon="10.779055418818304"><ele>57.599999999999994</ele><time>2026-05-01T07:47:22.998Z</time></trkpt><trkpt lat="43.68446973951595" lon="10.77919474872642"><ele>58.0</ele><time>2026-05-01T07:47:23.998Z</time></trkpt><trkpt lat="43.68444744358208" lon="10.779342804393616"><ele>56.8</ele><time>2026-05-01T07:47:24.998Z</time></trkpt><trkpt lat="43.68443379513015" lon="10.779492744414119"><ele>55.599999999999994</ele><time>2026-05-01T07:47:25.998Z</time></trkpt><trkpt lat="43.68443342506078" lon="10.779647473672194"><ele>54.400000000000006</ele><time>2026-05-01T07:47:26.998Z</time></trkpt><trkpt lat="43.684445765714386" lon="10.779798586557623"><ele>53.2</ele><time>2026-05-01T07:47:27.998Z</time></trkpt><trkpt lat="43.68446727946256" lon="10.779944831953939"><ele>52.0</ele><time>2026-05-01T07:47:28.998Z</time></trkpt><trkpt lat="43.68450143803913" lon="10.780090616225499"><ele>51.0</ele><time>2026-05-01T07:47:29.998Z</time></trkpt><trkpt lat="43.684555203548456" lon="10.780222644015955"><ele>50.0</ele><time>2026-05-01T07:47:30.998Z</time></trkpt><trkpt lat="43.684617469915246" lon="10.780351715147336"><ele>49.0</ele><time>2026-05-01T07:47:31.998Z</time></trkpt><trkpt lat="43.68469769928935" lon="10.780471657571324"><ele>48.0</ele><time>2026-05-01T07:47:32.998Z</time></trkpt><trkpt lat="43.684788639798036" lon="10.78058975465961"><ele>48.0</ele><time>2026-05-01T07:47:33.998Z</time></trkpt><trkpt lat="43.68489763446432" lon="10.780723482024333"><ele>48.0</ele><time>2026-05-01T07:47:34.998Z</time></trkpt><trkpt lat="43.685011780610864" lon="10.78086574426709"><ele>48.0</ele><time>2026-05-01T07:47:35.998Z</time></trkpt><trkpt lat="43.685139298757846" lon="10.781023129572594"><ele>47.0</ele><time>2026-05-01T07:47:36.998Z</time></trkpt><trkpt lat="43.68525844955207" lon="10.781176045217281"><ele>46.0</ele><time>2026-05-01T07:47:37.998Z</time></trkpt><trkpt lat="43.68537773055727" lon="10.781329393304311"><ele>45.0</ele><time>2026-05-01T07:47:38.998Z</time></trkpt><trkpt lat="43.68550446526474" lon="10.781483424694702"><ele>45.0</ele><time>2026-05-01T07:47:39.998Z</time></trkpt><trkpt lat="43.68562768083041" lon="10.781639577607994"><ele>45.0</ele><time>2026-05-01T07:47:40.998Z</time></trkpt><trkpt lat="43.685741656852315" lon="10.781781932422673"><ele>45.0</ele><time>2026-05-01T07:47:41.998Z</time></trkpt><trkpt lat="43.685855817368655" lon="10.78192062292548"><ele>46.25</ele><time>2026-05-01T07:47:42.998Z</time></trkpt><trkpt lat="43.68595783183487" lon="10.782051355541"><ele>47.5</ele><time>2026-05-01T07:47:43.998Z</time></trkpt><trkpt lat="43.6860655057515" lon="10.782188268316753"><ele>48.75</ele><time>2026-05-01T07:47:44.998Z</time></trkpt><trkpt lat="43.68617168291016" lon="10.782324009708715"><ele>50.0</ele><time>2026-05-01T07:47:45.998Z</time></trkpt><trkpt lat="43.68627974407395" lon="10.782462290013628"><ele>47.25</ele><time>2026-05-01T07:47:46.998Z</time></trkpt><trkpt lat="43.68638721739987" lon="10.782601282368567"><ele>44.5</ele><time>2026-05-01T07:47:47.998Z</time></trkpt><trkpt lat="43.68649322768027" lon="10.78273850168819"><ele>41.75</ele><time>2026-05-01T07:47:48.998Z</time></trkpt><trkpt lat="43.68659916517523" lon="10.782875796779352"><ele>39.0</ele><time>2026-05-01T07:47:49.998Z</time></trkpt><trkpt lat="43.68670571937691" lon="10.78301360023406"><ele>38.75</ele><time>2026-05-01T07:47:50.998Z</time></trkpt><trkpt lat="43.686811312813575" lon="10.7831456824328"><ele>38.5</ele><time>2026-05-01T07:47:51.998Z</time></trkpt><trkpt lat="43.68691646927752" lon="10.783278607269834"><ele>38.25</ele><time>2026-05-01T07:47:52.998Z</time></trkpt><trkpt lat="43.687017387468465" lon="10.783408728011715"><ele>38.0</ele><time>2026-05-01T07:47:53.998Z</time></trkpt><trkpt lat="43.687119539236114" lon="10.783541270183699"><ele>36.0</ele><time>2026-05-01T07:47:54.998Z</time></trkpt><trkpt lat="43.68721628184102" lon="10.783661387572675"><ele>34.0</ele><time>2026-05-01T07:47:55.998Z</time></trkpt><trkpt lat="43.68730216366531" lon="10.783772624619298"><ele>32.0</ele><time>2026-05-01T07:47:56.998Z</time></trkpt><trkpt lat="43.687384858459474" lon="10.783877156195688"><ele>30.0</ele><time>2026-05-01T07:47:58Z</time></trkpt><trkpt lat="43.68745209337699" lon="10.784002653724455"><ele>30.0</ele><time>2026-05-01T07:47:59Z</time></trkpt><trkpt lat="43.68751569881546" lon="10.78413054241434"><ele>30.0</ele><time>2026-05-01T07:48:00Z</time></trkpt><trkpt lat="43.68758304178992" lon="10.784259683856975"><ele>30.0</ele><time>2026-05-01T07:48:01Z</time></trkpt><trkpt lat="43.68762810546351" lon="10.784407839472344"><ele>30.0</ele><time>2026-05-01T07:48:02Z</time></trkpt><trkpt lat="43.687672078191376" lon="10.784563022257023"><ele>28.75</ele><time>2026-05-01T07:48:03Z</time></trkpt><trkpt lat="43.68771786100095" lon="10.78472424638796"><ele>27.5</ele><time>2026-05-01T07:48:04Z</time></trkpt><trkpt lat="43.687765650321985" lon="10.784885485527262"><ele>26.25</ele><time>2026-05-01T07:48:05Z</time></trkpt><trkpt lat="43.68781074570063" lon="10.785053157775783"><ele>25.0</ele><time>2026-05-01T07:48:06Z</time></trkpt><trkpt lat="43.68783531880655" lon="10.785229694143815"><ele>25.0</ele><time>2026-05-01T07:48:07Z</time></trkpt><trkpt lat="43.68786697934341" lon="10.785398606244545"><ele>25.0</ele><time>2026-05-01T07:48:08Z</time></trkpt><trkpt lat="43.6878893497279" lon="10.785564107808575"><ele>25.0</ele><time>2026-05-01T07:48:09Z</time></trkpt><trkpt lat="43.687902601643934" lon="10.785728440135061"><ele>25.0</ele><time>2026-05-01T07:48:10Z</time></trkpt><trkpt lat="43.687911441613764" lon="10.785896820385851"><ele>24.75</ele><time>2026-05-01T07:48:11Z</time></trkpt><trkpt lat="43.68791784829171" lon="10.786066515211662"><ele>24.5</ele><time>2026-05-01T07:48:12Z</time></trkpt><trkpt lat="43.68793909728155" lon="10.786233999238076"><ele>24.25</ele><time>2026-05-01T07:48:13Z</time></trkpt><trkpt lat="43.68792691176034" lon="10.786388215161761"><ele>24.0</ele><time>2026-05-01T07:48:14Z</time></trkpt><trkpt lat="43.68793033132133" lon="10.78653002867234"><ele>23.999999999999996</ele><time>2026-05-01T07:48:15Z</time></trkpt><trkpt lat="43.687946557621835" lon="10.786651910603796"><ele>24.0</ele><time>2026-05-01T07:48:16Z</time></trkpt><trkpt lat="43.68794420308105" lon="10.78675421906719"><ele>24.0</ele><time>2026-05-01T07:48:17Z</time></trkpt><trkpt lat="43.6879462374175" lon="10.78685087654266"><ele>24.0</ele><time>2026-05-01T07:48:18Z</time></trkpt><trkpt lat="43.687950126799464" lon="10.78694848024447"><ele>24.0</ele><time>2026-05-01T07:48:19Z</time></trkpt><trkpt lat="43.68795750983175" lon="10.787048084354337"><ele>23.999999999999996</ele><time>2026-05-01T07:48:20Z</time></trkpt><trkpt lat="43.68796179612787" lon="10.787135806812419"><ele>24.0</ele><time>2026-05-01T07:48:21Z</time></trkpt><trkpt lat="43.68795133630871" lon="10.78722758428629"><ele>24.4</ele><time>2026-05-01T07:48:22Z</time></trkpt><trkpt lat="43.687958546475016" lon="10.787409955928984"><ele>24.799999999999997</ele><time>2026-05-01T07:48:24Z</time></trkpt><trkpt lat="43.68797861852554" lon="10.787515899482539"><ele>25.200000000000003</ele><time>2026-05-01T07:48:25Z</time></trkpt><trkpt lat="43.687982498306155" lon="10.78762244843957"><ele>25.6</ele><time>2026-05-01T07:48:26Z</time></trkpt><trkpt lat="43.687988181032864" lon="10.78774160609824"><ele>26.0</ele><time>2026-05-01T07:48:27Z</time></trkpt><trkpt lat="43.68799523558749" lon="10.787857939406637"><ele>26.4</ele><time>2026-05-01T07:48:28Z</time></trkpt><trkpt lat="43.68800489438567" lon="10.78798845470204"><ele>26.8</ele><time>2026-05-01T07:48:29Z</time></trkpt><trkpt lat="43.68801418183209" lon="10.788114461049922"><ele>27.199999999999996</ele><time>2026-05-01T07:48:30Z</time></trkpt><trkpt lat="43.68802827843448" lon="10.788241177605887"><ele>27.599999999999998</ele><time>2026-05-01T07:48:31Z</time></trkpt><trkpt lat="43.688044797233005" lon="10.788372638376531"><ele>28.0</ele><time>2026-05-01T07:48:32Z</time></trkpt><trkpt lat="43.68806851950066" lon="10.78849868801446"><ele>27.799999999999997</ele><time>2026-05-01T07:48:33Z</time></trkpt><trkpt lat="43.688091273589926" lon="10.78864445916315"><ele>27.599999999999998</ele><time>2026-05-01T07:48:34Z</time></trkpt><trkpt lat="43.68811878596142" lon="10.788774880349695"><ele>27.400000000000002</ele><time>2026-05-01T07:48:35Z</time></trkpt><trkpt lat="43.68812717497786" lon="10.788890868270407"><ele>27.200000000000003</ele><time>2026-05-01T07:48:36Z</time></trkpt><trkpt lat="43.68813885200769" lon="10.788991684012876"><ele>27.0</ele><time>2026-05-01T07:48:36.999Z</time></trkpt><trkpt lat="43.6881370343408" lon="10.789137400632015"><ele>27.0</ele><time>2026-05-01T07:48:37.999Z</time></trkpt><trkpt lat="43.68811897452505" lon="10.789254611644068"><ele>27.0</ele><time>2026-05-01T07:48:38.999Z</time></trkpt><trkpt lat="43.68809357676674" lon="10.78936311693024"><ele>27.0</ele><time>2026-05-01T07:48:39.999Z</time></trkpt><trkpt lat="43.688055718640186" lon="10.789464125217131"><ele>27.0</ele><time>2026-05-01T07:48:40.999Z</time></trkpt><trkpt lat="43.68800537759426" lon="10.78956549043729"><ele>27.0</ele><time>2026-05-01T07:48:41.999Z</time></trkpt><trkpt lat="43.68795061325419" lon="10.789657889253311"><ele>27.0</ele><time>2026-05-01T07:48:42.999Z</time></trkpt><trkpt lat="43.68788785050432" lon="10.789744625789162"><ele>27.0</ele><time>2026-05-01T07:48:43.999Z</time></trkpt><trkpt lat="43.68781704149887" lon="10.789819234934745"><ele>27.000000000000004</ele><time>2026-05-01T07:48:44.999Z</time></trkpt><trkpt lat="43.68773839533565" lon="10.789893660850446"><ele>27.000000000000004</ele><time>2026-05-01T07:48:45.999Z</time></trkpt><trkpt lat="43.68765928896811" lon="10.789976781824086"><ele>27.0</ele><time>2026-05-01T07:48:46.999Z</time></trkpt><trkpt lat="43.68754911779702" lon="10.790064425293986"><ele>27.0</ele><time>2026-05-01T07:48:47.999Z</time></trkpt><trkpt lat="43.687457428059425" lon="10.79013716344785"><ele>27.0</ele><time>2026-05-01T07:48:48.999Z</time></trkpt><trkpt lat="43.68736867474107" lon="10.79020741808047"><ele>27.000000000000004</ele><time>2026-05-01T07:48:49.999Z</time></trkpt><trkpt lat="43.687273125555755" lon="10.79028627011401"><ele>27.000000000000004</ele><time>2026-05-01T07:48:50.999Z</time></trkpt><trkpt lat="43.68717342199096" lon="10.790362790852635"><ele>27.0</ele><time>2026-05-01T07:48:51.999Z</time></trkpt><trkpt lat="43.68707846620913" lon="10.79044326641196"><ele>27.0</ele><time>2026-05-01T07:48:52.999Z</time></trkpt><trkpt lat="43.6869889576813" lon="10.790513586848334"><ele>27.5</ele><time>2026-05-01T07:48:53.999Z</time></trkpt><trkpt lat="43.68685538724093" lon="10.79060997134687"><ele>28.0</ele><time>2026-05-01T07:48:54.999Z</time></trkpt><trkpt lat="43.68675843919685" lon="10.79071844516857"><ele>28.5</ele><time>2026-05-01T07:48:55.999Z</time></trkpt><trkpt lat="43.68667792933799" lon="10.79083833202337"><ele>29.0</ele><time>2026-05-01T07:48:56.999Z</time></trkpt><trkpt lat="43.68659583500411" lon="10.79094213388635"><ele>28.799999999999997</ele><time>2026-05-01T07:48:57.999Z</time></trkpt><trkpt lat="43.686509546079336" lon="10.791021292283508"><ele>28.599999999999998</ele><time>2026-05-01T07:48:58.999Z</time></trkpt><trkpt lat="43.68642613066204" lon="10.791125115577836"><ele>28.4</ele><time>2026-05-01T07:48:59.999Z</time></trkpt><trkpt lat="43.68634172914124" lon="10.791230166228548"><ele>28.2</ele><time>2026-05-01T07:49:00.999Z</time></trkpt><trkpt lat="43.68625790299561" lon="10.791338034668415"><ele>28.0</ele><time>2026-05-01T07:49:01.999Z</time></trkpt><trkpt lat="43.6861863277" lon="10.7914388235502"><ele>28.000000000000004</ele><time>2026-05-01T07:49:02.999Z</time></trkpt><trkpt lat="43.68613262174474" lon="10.791547956003797"><ele>28.0</ele><time>2026-05-01T07:49:03.999Z</time></trkpt><trkpt lat="43.6860834106791" lon="10.791636981993076"><ele>28.0</ele><time>2026-05-01T07:49:04.999Z</time></trkpt><trkpt lat="43.68605125976266" lon="10.791730047019184"><ele>28.0</ele><time>2026-05-01T07:49:05.999Z</time></trkpt><trkpt lat="43.686035457481374" lon="10.791842909118749"><ele>28.000000000000004</ele><time>2026-05-01T07:49:06.999Z</time></trkpt><trkpt lat="43.686039133885444" lon="10.791958107449894"><ele>28.0</ele><time>2026-05-01T07:49:07.999Z</time></trkpt><trkpt lat="43.686058470432194" lon="10.792066572838351"><ele>28.0</ele><time>2026-05-01T07:49:08.999Z</time></trkpt><trkpt lat="43.68609887650827" lon="10.79223833066885"><ele>28.0</ele><time>2026-05-01T07:49:10.999Z</time></trkpt><trkpt lat="43.68613193068631" lon="10.792402444213792"><ele>28.0</ele><time>2026-05-01T07:49:12.999Z</time></trkpt><trkpt lat="43.68616086245254" lon="10.792543890166419"><ele>28.0</ele><time>2026-05-01T07:49:14.999Z</time></trkpt><trkpt lat="43.686184616836464" lon="10.792668175391979"><ele>27.666666666666668</ele><time>2026-05-01T07:49:16.999Z</time></trkpt><trkpt lat="43.686200842524464" lon="10.792768085254817"><ele>27.333333333333336</ele><time>2026-05-01T07:49:18.998Z</time></trkpt><trkpt lat="43.686210245127846" lon="10.792863383326678"><ele>27.0</ele><time>2026-05-01T07:49:21.998Z</time></trkpt><trkpt lat="43.68621763462056" lon="10.792955691983703"><ele>26.666666666666664</ele><time>2026-05-01T07:49:26.998Z</time></trkpt><trkpt lat="43.68624373565777" lon="10.793091316827908"><ele>26.333333333333332</ele><time>2026-05-01T07:49:35.998Z</time></trkpt><trkpt lat="43.686272480765616" lon="10.793226024506911"><ele>26.0</ele><time>2026-05-01T07:49:37.998Z</time></trkpt><trkpt lat="43.68630331624792" lon="10.793406453030517"><ele>25.999999999999996</ele><time>2026-05-01T07:49:39.998Z</time></trkpt><trkpt lat="43.686319658985695" lon="10.793496287137271"><ele>26.0</ele><time>2026-05-01T07:49:40.998Z</time></trkpt><trkpt lat="43.686345210485285" lon="10.793594489388594"><ele>26.0</ele><time>2026-05-01T07:49:41.998Z</time></trkpt><trkpt lat="43.686365958195765" lon="10.793713281943711"><ele>26.0</ele><time>2026-05-01T07:49:42.998Z</time></trkpt><trkpt lat="43.68639575677385" lon="10.793845432725737"><ele>25.999999999999996</ele><time>2026-05-01T07:49:43.998Z</time></trkpt><trkpt lat="43.68642614512176" lon="10.793952795882218"><ele>26.0</ele><time>2026-05-01T07:49:44.998Z</time></trkpt><trkpt lat="43.686453521705566" lon="10.794073298452618"><ele>26.0</ele><time>2026-05-01T07:49:45.998Z</time></trkpt><trkpt lat="43.686481964068314" lon="10.794191584634598"><ele>26.0</ele><time>2026-05-01T07:49:46.998Z</time></trkpt><trkpt lat="43.68651082857979" lon="10.794316750952715"><ele>26.0</ele><time>2026-05-01T07:49:47.998Z</time></trkpt><trkpt lat="43.68653818712441" lon="10.794448203059547"><ele>26.0</ele><time>2026-05-01T07:49:48.998Z</time></trkpt><trkpt lat="43.68655853018993" lon="10.794577339010377"><ele>26.0</ele><time>2026-05-01T07:49:49.998Z</time></trkpt><trkpt lat="43.68658001164449" lon="10.794692467196231"><ele>26.0</ele><time>2026-05-01T07:49:50.998Z</time></trkpt><trkpt lat="43.68660433908499" lon="10.794813721026282"><ele>26.0</ele><time>2026-05-01T07:49:51.998Z</time></trkpt><trkpt lat="43.68662674011422" lon="10.794938771476614"><ele>26.0</ele><time>2026-05-01T07:49:52.998Z</time></trkpt><trkpt lat="43.6866564039047" lon="10.795061175682466"><ele>26.0</ele><time>2026-05-01T07:49:53.998Z</time></trkpt><trkpt lat="43.686662651734224" lon="10.795186552240482"><ele>26.0</ele><time>2026-05-01T07:49:54.998Z</time></trkpt><trkpt lat="43.68668426394358" lon="10.795302750736296"><ele>26.0</ele><time>2026-05-01T07:49:55.998Z</time></trkpt><trkpt lat="43.68670625200225" lon="10.795420969997602"><ele>26.0</ele><time>2026-05-01T07:49:56.998Z</time></trkpt><trkpt lat="43.6867442085368" lon="10.795538197661243"><ele>26.0</ele><time>2026-05-01T07:49:57.998Z</time></trkpt><trkpt lat="43.68676533776776" lon="10.795665493906167"><ele>26.0</ele><time>2026-05-01T07:49:58.998Z</time></trkpt><trkpt lat="43.686786905985095" lon="10.795796078713252"><ele>26.0</ele><time>2026-05-01T07:49:59.998Z</time></trkpt><trkpt lat="43.686808912000735" lon="10.795920797304005"><ele>26.0</ele><time>2026-05-01T07:50:00.998Z</time></trkpt><trkpt lat="43.68683560467875" lon="10.796055667620767"><ele>26.0</ele><time>2026-05-01T07:50:01.998Z</time></trkpt><trkpt lat="43.686858677600256" lon="10.79618234828765"><ele>26.0</ele><time>2026-05-01T07:50:03Z</time></trkpt><trkpt lat="43.686882024972824" lon="10.796301900716703"><ele>26.0</ele><time>2026-05-01T07:50:04Z</time></trkpt><trkpt lat="43.68690561454163" lon="10.796419086982048"><ele>26.0</ele><time>2026-05-01T07:50:05Z</time></trkpt><trkpt lat="43.686930728201766" lon="10.796535292470448"><ele>26.200000000000003</ele><time>2026-05-01T07:50:06Z</time></trkpt><trkpt lat="43.68695498186154" lon="10.796667515095484"><ele>26.400000000000002</ele><time>2026-05-01T07:50:07Z</time></trkpt><trkpt lat="43.686980079958126" lon="10.796784146296515"><ele>26.6</ele><time>2026-05-01T07:50:08Z</time></trkpt><trkpt lat="43.68699989242499" lon="10.796910496169643"><ele>26.8</ele><time>2026-05-01T07:50:09Z</time></trkpt><trkpt lat="43.68702415230459" lon="10.797053824021726"><ele>27.0</ele><time>2026-05-01T07:50:10Z</time></trkpt><trkpt lat="43.68705432132951" lon="10.797196129191654"><ele>26.5</ele><time>2026-05-01T07:50:11Z</time></trkpt><trkpt lat="43.68708407101845" lon="10.797341745108339"><ele>26.0</ele><time>2026-05-01T07:50:12Z</time></trkpt><trkpt lat="43.6871203753463" lon="10.797518890857669"><ele>25.5</ele><time>2026-05-01T07:50:13Z</time></trkpt><trkpt lat="43.687142983692084" lon="10.79768398143059"><ele>25.0</ele><time>2026-05-01T07:50:14Z</time></trkpt><trkpt lat="43.68718378049594" lon="10.797849194099912"><ele>25.0</ele><time>2026-05-01T07:50:15Z</time></trkpt><trkpt lat="43.68722497458885" lon="10.798005042709537"><ele>25.0</ele><time>2026-05-01T07:50:16Z</time></trkpt><trkpt lat="43.68725599571314" lon="10.798132460609246"><ele>25.0</ele><time>2026-05-01T07:50:17Z</time></trkpt><trkpt lat="43.687288146786145" lon="10.798280151863938"><ele>25.0</ele><time>2026-05-01T07:50:18Z</time></trkpt><trkpt lat="43.68732054498908" lon="10.79844497071518"><ele>25.2</ele><time>2026-05-01T07:50:19Z</time></trkpt><trkpt lat="43.68735745884211" lon="10.798601444152736"><ele>25.4</ele><time>2026-05-01T07:50:20Z</time></trkpt><trkpt lat="43.68739325862625" lon="10.798728221792759"><ele>25.6</ele><time>2026-05-01T07:50:21Z</time></trkpt><trkpt lat="43.6874264307393" lon="10.798857510053319"><ele>25.8</ele><time>2026-05-01T07:50:22Z</time></trkpt><trkpt lat="43.687465887688816" lon="10.798988774888748"><ele>26.0</ele><time>2026-05-01T07:50:23Z</time></trkpt><trkpt lat="43.68749142965447" lon="10.799136603217883"><ele>26.0</ele><time>2026-05-01T07:50:24Z</time></trkpt><trkpt lat="43.687533961446924" lon="10.799283799548313"><ele>26.0</ele><time>2026-05-01T07:50:25Z</time></trkpt><trkpt lat="43.68757869470011" lon="10.799446252857857"><ele>26.0</ele><time>2026-05-01T07:50:26Z</time></trkpt><trkpt lat="43.687617426293386" lon="10.799600055428764"><ele>26.0</ele><time>2026-05-01T07:50:27Z</time></trkpt><trkpt lat="43.68763034753216" lon="10.799708318008298"><ele>26.0</ele><time>2026-05-01T07:50:28Z</time></trkpt><trkpt lat="43.687642481995994" lon="10.799857357452515"><ele>25.6</ele><time>2026-05-01T07:50:29Z</time></trkpt><trkpt lat="43.68765489734585" lon="10.800005248391843"><ele>25.200000000000003</ele><time>2026-05-01T07:50:30Z</time></trkpt><trkpt lat="43.68768108458534" lon="10.8001551557332"><ele>24.799999999999997</ele><time>2026-05-01T07:50:31Z</time></trkpt><trkpt lat="43.68769192638506" lon="10.800302854177826"><ele>24.4</ele><time>2026-05-01T07:50:32Z</time></trkpt><trkpt lat="43.687707004107374" lon="10.800443036348641"><ele>24.0</ele><time>2026-05-01T07:50:33Z</time></trkpt><trkpt lat="43.687729219246165" lon="10.800568160116244"><ele>24.25</ele><time>2026-05-01T07:50:34Z</time></trkpt><trkpt lat="43.687778023362256" lon="10.800691723056074"><ele>24.5</ele><time>2026-05-01T07:50:35Z</time></trkpt><trkpt lat="43.68784290351273" lon="10.800815521627092"><ele>24.75</ele><time>2026-05-01T07:50:36Z</time></trkpt><trkpt lat="43.68792854455392" lon="10.800947559299074"><ele>25.0</ele><time>2026-05-01T07:50:37Z</time></trkpt><trkpt lat="43.68800378472473" lon="10.801077546947168"><ele>25.4</ele><time>2026-05-01T07:50:37.999Z</time></trkpt><trkpt lat="43.688064085834064" lon="10.801191660664948"><ele>25.8</ele><time>2026-05-01T07:50:38.999Z</time></trkpt><trkpt lat="43.688117554016905" lon="10.801319782549685"><ele>26.200000000000003</ele><time>2026-05-01T07:50:39.999Z</time></trkpt><trkpt lat="43.688150419393814" lon="10.801438231610941"><ele>26.6</ele><time>2026-05-01T07:50:40.999Z</time></trkpt><trkpt lat="43.68817451946244" lon="10.801583807935542"><ele>27.0</ele><time>2026-05-01T07:50:41.999Z</time></trkpt><trkpt lat="43.6881907677621" lon="10.801740498296677"><ele>27.0</ele><time>2026-05-01T07:50:42.999Z</time></trkpt><trkpt lat="43.68820220636824" lon="10.8018969869966"><ele>27.000000000000004</ele><time>2026-05-01T07:50:43.999Z</time></trkpt><trkpt lat="43.68821699812376" lon="10.802049794323551"><ele>27.000000000000004</ele><time>2026-05-01T07:50:44.999Z</time></trkpt><trkpt lat="43.688225142058215" lon="10.802176057514119"><ele>27.0</ele><time>2026-05-01T07:50:45.999Z</time></trkpt><trkpt lat="43.688215229032494" lon="10.802291396060365"><ele>27.0</ele><time>2026-05-01T07:50:46.999Z</time></trkpt><trkpt lat="43.68821840775767" lon="10.802394356368287"><ele>27.0</ele><time>2026-05-01T07:50:47.999Z</time></trkpt><trkpt lat="43.68821917425811" lon="10.802502943805932"><ele>27.000000000000004</ele><time>2026-05-01T07:50:48.999Z</time></trkpt><trkpt lat="43.688216322837555" lon="10.802633892039193"><ele>27.000000000000004</ele><time>2026-05-01T07:50:49.999Z</time></trkpt><trkpt lat="43.688213315102054" lon="10.802777467190896"><ele>27.0</ele><time>2026-05-01T07:50:50.999Z</time></trkpt><trkpt lat="43.68821098336141" lon="10.802937480545744"><ele>27.0</ele><time>2026-05-01T07:50:51.999Z</time></trkpt><trkpt lat="43.68820880425585" lon="10.803118977105461"><ele>27.0</ele><time>2026-05-01T07:50:52.999Z</time></trkpt><trkpt lat="43.68820575389678" lon="10.803324329493094"><ele>27.0</ele><time>2026-05-01T07:50:53.999Z</time></trkpt><trkpt lat="43.68820276344897" lon="10.803521347240554"><ele>27.0</ele><time>2026-05-01T07:50:54.999Z</time></trkpt><trkpt lat="43.688200266528845" lon="10.803685850035121"><ele>27.0</ele><time>2026-05-01T07:50:55.999Z</time></trkpt><trkpt lat="43.68821401750673" lon="10.803834432475782"><ele>27.0</ele><time>2026-05-01T07:50:56.999Z</time></trkpt><trkpt lat="43.68820891440468" lon="10.803960638125863"><ele>27.0</ele><time>2026-05-01T07:50:57.999Z</time></trkpt><trkpt lat="43.688203693261315" lon="10.804073905220804"><ele>27.0</ele><time>2026-05-01T07:50:58.999Z</time></trkpt><trkpt lat="43.68820360792142" lon="10.804179853340578"><ele>27.0</ele><time>2026-05-01T07:50:59.999Z</time></trkpt><trkpt lat="43.6882005548359" lon="10.80428696986831"><ele>27.0</ele><time>2026-05-01T07:51:00.999Z</time></trkpt><trkpt lat="43.68819885161986" lon="10.804403828826343"><ele>27.0</ele><time>2026-05-01T07:51:01.999Z</time></trkpt><trkpt lat="43.688201172196464" lon="10.804518135306632"><ele>26.666666666666668</ele><time>2026-05-01T07:51:02.999Z</time></trkpt><trkpt lat="43.688198939453315" lon="10.804610714604513"><ele>26.333333333333336</ele><time>2026-05-01T07:51:03.999Z</time></trkpt><trkpt lat="43.68819012988424" lon="10.804741424909416"><ele>26.0</ele><time>2026-05-01T07:51:05.999Z</time></trkpt><trkpt lat="43.6881962217731" lon="10.804871427598336"><ele>25.666666666666668</ele><time>2026-05-01T07:51:07.999Z</time></trkpt><trkpt lat="43.688218998470866" lon="10.805003627411894"><ele>25.333333333333336</ele><time>2026-05-01T07:51:09.999Z</time></trkpt><trkpt lat="43.688217948765306" lon="10.80509128260049"><ele>25.0</ele><time>2026-05-01T07:51:10.999Z</time></trkpt><trkpt lat="43.68819881081804" lon="10.805185350508536"><ele>25.000000000000004</ele><time>2026-05-01T07:51:11.999Z</time></trkpt><trkpt lat="43.68817639169256" lon="10.805301543990273"><ele>25.0</ele><time>2026-05-01T07:51:12.999Z</time></trkpt><trkpt lat="43.6881647818533" lon="10.805418653499625"><ele>25.0</ele><time>2026-05-01T07:51:13.999Z</time></trkpt><trkpt lat="43.68816563829027" lon="10.805528354334198"><ele>25.0</ele><time>2026-05-01T07:51:14.999Z</time></trkpt><trkpt lat="43.68816375677774" lon="10.80563528520289"><ele>25.000000000000004</ele><time>2026-05-01T07:51:15.999Z</time></trkpt><trkpt lat="43.68816491703027" lon="10.805752286522045"><ele>25.0</ele><time>2026-05-01T07:51:16.999Z</time></trkpt><trkpt lat="43.688166616959954" lon="10.805887899413783"><ele>24.75</ele><time>2026-05-01T07:51:17.999Z</time></trkpt><trkpt lat="43.68816751495302" lon="10.80604748977309"><ele>24.5</ele><time>2026-05-01T07:51:18.998Z</time></trkpt><trkpt lat="43.688162315989665" lon="10.806235516146717"><ele>24.25</ele><time>2026-05-01T07:51:19.998Z</time></trkpt><trkpt lat="43.68815487460441" lon="10.806414308337501"><ele>24.0</ele><time>2026-05-01T07:51:20.998Z</time></trkpt><trkpt lat="43.68814983034596" lon="10.806591162455042"><ele>24.0</ele><time>2026-05-01T07:51:21.998Z</time></trkpt><trkpt lat="43.688142643637896" lon="10.806789954588487"><ele>24.0</ele><time>2026-05-01T07:51:22.998Z</time></trkpt><trkpt lat="43.68813676103534" lon="10.80700455216236"><ele>24.0</ele><time>2026-05-01T07:51:23.998Z</time></trkpt><trkpt lat="43.68813077155845" lon="10.807217319144756"><ele>24.0</ele><time>2026-05-01T07:51:24.998Z</time></trkpt><trkpt lat="43.68812523538114" lon="10.807417021490108"><ele>24.0</ele><time>2026-05-01T07:51:25.998Z</time></trkpt><trkpt lat="43.688120961247876" lon="10.807637367944594"><ele>24.0</ele><time>2026-05-01T07:51:26.998Z</time></trkpt><trkpt lat="43.68811691983578" lon="10.807838968150437"><ele>24.4</ele><time>2026-05-01T07:51:27.998Z</time></trkpt><trkpt lat="43.68811131471337" lon="10.808010259091725"><ele>24.799999999999997</ele><time>2026-05-01T07:51:28.998Z</time></trkpt><trkpt lat="43.688109132339726" lon="10.808143968419177"><ele>25.200000000000003</ele><time>2026-05-01T07:51:29.998Z</time></trkpt><trkpt lat="43.688106080808346" lon="10.808261792194115"><ele>25.6</ele><time>2026-05-01T07:51:30.998Z</time></trkpt><trkpt lat="43.68810452195993" lon="10.808379020693282"><ele>26.0</ele><time>2026-05-01T07:51:31.998Z</time></trkpt><trkpt lat="43.6881000524066" lon="10.808509420870378"><ele>26.0</ele><time>2026-05-01T07:51:32.998Z</time></trkpt><trkpt lat="43.68809778398667" lon="10.808637309474667"><ele>26.0</ele><time>2026-05-01T07:51:33.998Z</time></trkpt><trkpt lat="43.68809611680175" lon="10.808763980074568"><ele>26.0</ele><time>2026-05-01T07:51:34.998Z</time></trkpt><trkpt lat="43.688091728151235" lon="10.808910217314901"><ele>26.0</ele><time>2026-05-01T07:51:35.998Z</time></trkpt><trkpt lat="43.68809076701193" lon="10.809064250024697"><ele>26.0</ele><time>2026-05-01T07:51:36.998Z</time></trkpt><trkpt lat="43.68809052572513" lon="10.809219721217534"><ele>26.0</ele><time>2026-05-01T07:51:37.998Z</time></trkpt><trkpt lat="43.68808573343411" lon="10.809372791580513"><ele>26.0</ele><time>2026-05-01T07:51:38.998Z</time></trkpt><trkpt lat="43.68808053139874" lon="10.809523408847639"><ele>26.0</ele><time>2026-05-01T07:51:39.998Z</time></trkpt><trkpt lat="43.6880819407568" lon="10.8096782256478"><ele>26.0</ele><time>2026-05-01T07:51:40.998Z</time></trkpt><trkpt lat="43.68808346005322" lon="10.809837584662223"><ele>26.0</ele><time>2026-05-01T07:51:41.998Z</time></trkpt><trkpt lat="43.68808156173612" lon="10.810011229683644"><ele>26.0</ele><time>2026-05-01T07:51:42.998Z</time></trkpt><trkpt lat="43.68807913382567" lon="10.810170033182555"><ele>26.0</ele><time>2026-05-01T07:51:43.998Z</time></trkpt><trkpt lat="43.688078180213466" lon="10.810333016781495"><ele>26.0</ele><time>2026-05-01T07:51:44.998Z</time></trkpt><trkpt lat="43.68807412784954" lon="10.81049452232469"><ele>26.0</ele><time>2026-05-01T07:51:45.998Z</time></trkpt><trkpt lat="43.688068158247" lon="10.810655955965492"><ele>26.0</ele><time>2026-05-01T07:51:46.998Z</time></trkpt><trkpt lat="43.688064063727204" lon="10.81080411535027"><ele>26.0</ele><time>2026-05-01T07:51:47.998Z</time></trkpt><trkpt lat="43.68806346179284" lon="10.810960681696557"><ele>26.0</ele><time>2026-05-01T07:51:48.998Z</time></trkpt><trkpt lat="43.688061070529706" lon="10.811132810156902"><ele>26.0</ele><time>2026-05-01T07:51:49.998Z</time></trkpt><trkpt lat="43.688059610260616" lon="10.811302004784432"><ele>25.25</ele><time>2026-05-01T07:51:50.998Z</time></trkpt><trkpt lat="43.688058491675676" lon="10.811474817786618"><ele>24.5</ele><time>2026-05-01T07:51:51.998Z</time></trkpt><trkpt lat="43.688059329525366" lon="10.811652763594"><ele>23.75</ele><time>2026-05-01T07:51:52.998Z</time></trkpt><trkpt lat="43.688053925405534" lon="10.811824536703527"><ele>23.0</ele><time>2026-05-01T07:51:53.998Z</time></trkpt><trkpt lat="43.688049530327845" lon="10.81198312169975"><ele>22.75</ele><time>2026-05-01T07:51:54.998Z</time></trkpt><trkpt lat="43.688042713841966" lon="10.812150780476683"><ele>22.5</ele><time>2026-05-01T07:51:55.998Z</time></trkpt><trkpt lat="43.688009040712224" lon="10.812362807091063"><ele>22.25</ele><time>2026-05-01T07:51:56.998Z</time></trkpt><trkpt lat="43.68804020682973" lon="10.812459485280497"><ele>22.0</ele><time>2026-05-01T07:51:57.998Z</time></trkpt><trkpt lat="43.68803768925485" lon="10.81261893295744"><ele>22.75</ele><time>2026-05-01T07:51:58.998Z</time></trkpt><trkpt lat="43.68803507325461" lon="10.812787026027623"><ele>23.5</ele><time>2026-05-01T07:51:59.998Z</time></trkpt><trkpt lat="43.68803281045329" lon="10.812959510187511"><ele>24.25</ele><time>2026-05-01T07:52:00.997Z</time></trkpt><trkpt lat="43.68803192735473" lon="10.813134157627363"><ele>25.0</ele><time>2026-05-01T07:52:01.997Z</time></trkpt><trkpt lat="43.688032868674945" lon="10.813315320076848"><ele>25.0</ele><time>2026-05-01T07:52:02.997Z</time></trkpt><trkpt lat="43.68803207258061" lon="10.813504993453634"><ele>25.0</ele><time>2026-05-01T07:52:03.997Z</time></trkpt><trkpt lat="43.688032567137924" lon="10.813701239310145"><ele>25.0</ele><time>2026-05-01T07:52:04.997Z</time></trkpt><trkpt lat="43.688030504130886" lon="10.81389864450247"><ele>25.0</ele><time>2026-05-01T07:52:05.997Z</time></trkpt><trkpt lat="43.68802711937586" lon="10.814107201403166"><ele>25.0</ele><time>2026-05-01T07:52:06.997Z</time></trkpt><trkpt lat="43.68802461812143" lon="10.814311749315486"><ele>25.0</ele><time>2026-05-01T07:52:07.997Z</time></trkpt><trkpt lat="43.68802156448476" lon="10.81450758836776"><ele>25.0</ele><time>2026-05-01T07:52:09Z</time></trkpt><trkpt lat="43.688023636903004" lon="10.8147098873592"><ele>25.0</ele><time>2026-05-01T07:52:10Z</time></trkpt><trkpt lat="43.688021065465335" lon="10.814906606868849"><ele>25.5</ele><time>2026-05-01T07:52:11Z</time></trkpt><trkpt lat="43.68801700822416" lon="10.81508559620507"><ele>26.0</ele><time>2026-05-01T07:52:12Z</time></trkpt><trkpt lat="43.68800991905659" lon="10.815264104691193"><ele>26.5</ele><time>2026-05-01T07:52:13Z</time></trkpt><trkpt lat="43.688013301759824" lon="10.815444073886"><ele>27.0</ele><time>2026-05-01T07:52:14Z</time></trkpt><trkpt lat="43.68801466842708" lon="10.815627813546119"><ele>27.5</ele><time>2026-05-01T07:52:15Z</time></trkpt><trkpt lat="43.68801578628361" lon="10.815805432811484"><ele>28.0</ele><time>2026-05-01T07:52:16Z</time></trkpt><trkpt lat="43.68799765213218" lon="10.815955131152366"><ele>28.5</ele><time>2026-05-01T07:52:17Z</time></trkpt><trkpt lat="43.68801001150066" lon="10.816122427318652"><ele>29.0</ele><time>2026-05-01T07:52:18Z</time></trkpt><trkpt lat="43.688003608655414" lon="10.816289904300374"><ele>29.0</ele><time>2026-05-01T07:52:19Z</time></trkpt><trkpt lat="43.688005321932295" lon="10.816468112159448"><ele>29.0</ele><time>2026-05-01T07:52:20Z</time></trkpt><trkpt lat="43.68799491424498" lon="10.816652635810774"><ele>29.0</ele><time>2026-05-01T07:52:21Z</time></trkpt><trkpt lat="43.687995567800904" lon="10.816832979869778"><ele>29.0</ele><time>2026-05-01T07:52:22Z</time></trkpt><trkpt lat="43.687986579214076" lon="10.817014765279596"><ele>28.75</ele><time>2026-05-01T07:52:23Z</time></trkpt><trkpt lat="43.68797755444837" lon="10.817196678158364"><ele>28.5</ele><time>2026-05-01T07:52:24Z</time></trkpt><trkpt lat="43.687966621045454" lon="10.817384115093894"><ele>28.25</ele><time>2026-05-01T07:52:25Z</time></trkpt><trkpt lat="43.6879537033383" lon="10.817565129629276"><ele>28.0</ele><time>2026-05-01T07:52:26Z</time></trkpt><trkpt lat="43.68792486165554" lon="10.81774270679234"><ele>28.0</ele><time>2026-05-01T07:52:27Z</time></trkpt><trkpt lat="43.68791039563738" lon="10.817903480514756"><ele>28.0</ele><time>2026-05-01T07:52:28Z</time></trkpt><trkpt lat="43.687910976339325" lon="10.818072384511456"><ele>28.0</ele><time>2026-05-01T07:52:29Z</time></trkpt><trkpt lat="43.687879503443554" lon="10.818232318548947"><ele>28.0</ele><time>2026-05-01T07:52:30Z</time></trkpt><trkpt lat="43.687879448643706" lon="10.818387461262422"><ele>28.166666666666668</ele><time>2026-05-01T07:52:31Z</time></trkpt><trkpt lat="43.68786933159165" lon="10.818501537529349"><ele>28.333333333333336</ele><time>2026-05-01T07:52:32Z</time></trkpt><trkpt lat="43.68785658442242" lon="10.818596755400586"><ele>28.5</ele><time>2026-05-01T07:52:33Z</time></trkpt><trkpt lat="43.6878454252449" lon="10.818696069078333"><ele>28.666666666666664</ele><time>2026-05-01T07:52:34Z</time></trkpt><trkpt lat="43.6878344917331" lon="10.818811318073237"><ele>28.833333333333332</ele><time>2026-05-01T07:52:35Z</time></trkpt><trkpt lat="43.68782107169469" lon="10.81894620445354"><ele>29.0</ele><time>2026-05-01T07:52:36Z</time></trkpt><trkpt lat="43.68780923177507" lon="10.819105815697315"><ele>29.0</ele><time>2026-05-01T07:52:37Z</time></trkpt><trkpt lat="43.68779369636382" lon="10.819270029841825"><ele>29.0</ele><time>2026-05-01T07:52:38Z</time></trkpt><trkpt lat="43.687786113748665" lon="10.819403013345726"><ele>29.0</ele><time>2026-05-01T07:52:39Z</time></trkpt><trkpt lat="43.68778083975914" lon="10.819524805850456"><ele>29.0</ele><time>2026-05-01T07:52:40Z</time></trkpt><trkpt lat="43.68777482386247" lon="10.819661327983761"><ele>29.0</ele><time>2026-05-01T07:52:40.999Z</time></trkpt><trkpt lat="43.68775324745044" lon="10.81976813699904"><ele>29.0</ele><time>2026-05-01T07:52:41.999Z</time></trkpt><trkpt lat="43.68774731143514" lon="10.819863025955817"><ele>29.0</ele><time>2026-05-01T07:52:42.999Z</time></trkpt><trkpt lat="43.68773827238696" lon="10.82002438941747"><ele>29.0</ele><time>2026-05-01T07:52:44.999Z</time></trkpt><trkpt lat="43.687730232189" lon="10.820162440037127"><ele>29.0</ele><time>2026-05-01T07:52:46.999Z</time></trkpt><trkpt lat="43.68772231151379" lon="10.820290985398316"><ele>29.0</ele><time>2026-05-01T07:52:48.999Z</time></trkpt><trkpt lat="43.68771315009235" lon="10.820435314071233"><ele>28.4</ele><time>2026-05-01T07:52:50.999Z</time></trkpt><trkpt lat="43.687869266517296" lon="10.820495865228393"><ele>27.799999999999997</ele><time>2026-05-01T07:52:52.999Z</time></trkpt><trkpt lat="43.687951307868964" lon="10.820511219142315"><ele>27.200000000000003</ele><time>2026-05-01T07:52:53.999Z</time></trkpt><trkpt lat="43.68802365671773" lon="10.820535749544868"><ele>26.6</ele><time>2026-05-01T07:52:54.999Z</time></trkpt><trkpt lat="43.688089965278415" lon="10.820584270025302"><ele>26.0</ele><time>2026-05-01T07:52:55.999Z</time></trkpt><trkpt lat="43.6881495104341" lon="10.820641033541794"><ele>26.0</ele><time>2026-05-01T07:52:56.999Z</time></trkpt><trkpt lat="43.68824285089207" lon="10.82066922931137"><ele>26.0</ele><time>2026-05-01T07:52:57.999Z</time></trkpt><trkpt lat="43.688352872947455" lon="10.820692377031893"><ele>26.0</ele><time>2026-05-01T07:52:58.999Z</time></trkpt><trkpt lat="43.688475316605185" lon="10.820711635027276"><ele>26.0</ele><time>2026-05-01T07:52:59.999Z</time></trkpt><trkpt lat="43.688591009065455" lon="10.820736982761897"><ele>26.0</ele><time>2026-05-01T07:53:00.999Z</time></trkpt><trkpt lat="43.688714308111464" lon="10.820761126258175"><ele>26.6</ele><time>2026-05-01T07:53:01.999Z</time></trkpt><trkpt lat="43.688817848255205" lon="10.820780915769006"><ele>27.200000000000003</ele><time>2026-05-01T07:53:02.999Z</time></trkpt><trkpt lat="43.688895027672345" lon="10.820800144341952"><ele>27.799999999999997</ele><time>2026-05-01T07:53:03.999Z</time></trkpt><trkpt lat="43.6889856162507" lon="10.820827453009827"><ele>28.4</ele><time>2026-05-01T07:53:04.999Z</time></trkpt><trkpt lat="43.68908955693031" lon="10.820852809951461"><ele>29.0</ele><time>2026-05-01T07:53:05.999Z</time></trkpt><trkpt lat="43.68920940822866" lon="10.820875150192203"><ele>29.0</ele><time>2026-05-01T07:53:06.999Z</time></trkpt><trkpt lat="43.689320348103756" lon="10.820897215448667"><ele>29.0</ele><time>2026-05-01T07:53:07.999Z</time></trkpt><trkpt lat="43.68941660582524" lon="10.82092265535127"><ele>29.0</ele><time>2026-05-01T07:53:08.999Z</time></trkpt><trkpt lat="43.68951109282501" lon="10.820947731706381"><ele>29.0</ele><time>2026-05-01T07:53:09.999Z</time></trkpt><trkpt lat="43.689619122653205" lon="10.82097571271219"><ele>29.0</ele><time>2026-05-01T07:53:10.999Z</time></trkpt><trkpt lat="43.68973627544348" lon="10.82100694072817"><ele>28.25</ele><time>2026-05-01T07:53:11.999Z</time></trkpt><trkpt lat="43.68986498831304" lon="10.821043188881355"><ele>27.5</ele><time>2026-05-01T07:53:12.999Z</time></trkpt><trkpt lat="43.68999731642121" lon="10.821081586931136"><ele>26.75</ele><time>2026-05-01T07:53:13.999Z</time></trkpt><trkpt lat="43.69011854034221" lon="10.821126109104052"><ele>26.0</ele><time>2026-05-01T07:53:14.999Z</time></trkpt><trkpt lat="43.69022433508314" lon="10.821175387503164"><ele>25.8</ele><time>2026-05-01T07:53:15.999Z</time></trkpt><trkpt lat="43.69031805200392" lon="10.821229240228789"><ele>25.6</ele><time>2026-05-01T07:53:16.999Z</time></trkpt><trkpt lat="43.69040008742354" lon="10.821297068284672"><ele>25.4</ele><time>2026-05-01T07:53:17.999Z</time></trkpt><trkpt lat="43.69047302728246" lon="10.821391193823237"><ele>25.2</ele><time>2026-05-01T07:53:18.999Z</time></trkpt><trkpt lat="43.69053330154861" lon="10.821510395517409"><ele>25.0</ele><time>2026-05-01T07:53:19.999Z</time></trkpt><trkpt lat="43.69057185727646" lon="10.821651672042748"><ele>25.0</ele><time>2026-05-01T07:53:20.999Z</time></trkpt><trkpt lat="43.69058483835457" lon="10.821800013438182"><ele>25.0</ele><time>2026-05-01T07:53:21.998Z</time></trkpt><trkpt lat="43.69059317414395" lon="10.821933273934627"><ele>25.0</ele><time>2026-05-01T07:53:22.998Z</time></trkpt><trkpt lat="43.69060570374896" lon="10.822058149213373"><ele>25.0</ele><time>2026-05-01T07:53:23.998Z</time></trkpt><trkpt lat="43.69062046595448" lon="10.822191025293954"><ele>25.0</ele><time>2026-05-01T07:53:24.998Z</time></trkpt><trkpt lat="43.69062882162532" lon="10.822331215511582"><ele>24.8</ele><time>2026-05-01T07:53:25.998Z</time></trkpt><trkpt lat="43.69064019271812" lon="10.82247409506039"><ele>24.6</ele><time>2026-05-01T07:53:26.998Z</time></trkpt><trkpt lat="43.69064978130964" lon="10.822597468990704"><ele>24.4</ele><time>2026-05-01T07:53:27.998Z</time></trkpt><trkpt lat="43.69065823464517" lon="10.82270867981278"><ele>24.2</ele><time>2026-05-01T07:53:28.998Z</time></trkpt><trkpt lat="43.69067011796342" lon="10.822836474090488"><ele>24.0</ele><time>2026-05-01T07:53:29.998Z</time></trkpt><trkpt lat="43.69068330906743" lon="10.822987085269315"><ele>24.0</ele><time>2026-05-01T07:53:30.998Z</time></trkpt><trkpt lat="43.69069488224499" lon="10.823144185837963"><ele>24.0</ele><time>2026-05-01T07:53:31.998Z</time></trkpt><trkpt lat="43.69070780235544" lon="10.823318499475125"><ele>24.0</ele><time>2026-05-01T07:53:32.998Z</time></trkpt><trkpt lat="43.690722589155314" lon="10.823490512167728"><ele>24.0</ele><time>2026-05-01T07:53:33.998Z</time></trkpt><trkpt lat="43.69073562921676" lon="10.8236711814003"><ele>24.2</ele><time>2026-05-01T07:53:34.998Z</time></trkpt><trkpt lat="43.69075128012782" lon="10.82383908579476"><ele>24.4</ele><time>2026-05-01T07:53:35.998Z</time></trkpt><trkpt lat="43.69076378146801" lon="10.823989431413569"><ele>24.6</ele><time>2026-05-01T07:53:36.998Z</time></trkpt><trkpt lat="43.69077874301003" lon="10.824114148598095"><ele>24.8</ele><time>2026-05-01T07:53:37.998Z</time></trkpt><trkpt lat="43.69080228363012" lon="10.824259721490781"><ele>25.0</ele><time>2026-05-01T07:53:38.998Z</time></trkpt><trkpt lat="43.69083624560774" lon="10.824402803685844"><ele>24.5</ele><time>2026-05-01T07:53:39.998Z</time></trkpt><trkpt lat="43.69088241591519" lon="10.82455465906902"><ele>24.0</ele><time>2026-05-01T07:53:40.998Z</time></trkpt><trkpt lat="43.69093087456984" lon="10.824710793282254"><ele>23.5</ele><time>2026-05-01T07:53:41.998Z</time></trkpt><trkpt lat="43.6909360212876" lon="10.824884948894697"><ele>23.0</ele><time>2026-05-01T07:53:42.998Z</time></trkpt><trkpt lat="43.69095769628664" lon="10.82506154340238"><ele>22.75</ele><time>2026-05-01T07:53:43.998Z</time></trkpt><trkpt lat="43.6909592356043" lon="10.82524273411975"><ele>22.5</ele><time>2026-05-01T07:53:44.998Z</time></trkpt><trkpt lat="43.690970835028736" lon="10.825430659831513"><ele>22.25</ele><time>2026-05-01T07:53:45.998Z</time></trkpt><trkpt lat="43.6909830088842" lon="10.825599229808915"><ele>22.0</ele><time>2026-05-01T07:53:46.998Z</time></trkpt><trkpt lat="43.690994181153734" lon="10.825767154314962"><ele>22.0</ele><time>2026-05-01T07:53:47.998Z</time></trkpt><trkpt lat="43.69100507808068" lon="10.82594004272103"><ele>22.0</ele><time>2026-05-01T07:53:48.998Z</time></trkpt><trkpt lat="43.69101616621668" lon="10.826119213007235"><ele>22.0</ele><time>2026-05-01T07:53:49.998Z</time></trkpt><trkpt lat="43.6910254720009" lon="10.826291745672492"><ele>22.0</ele><time>2026-05-01T07:53:50.998Z</time></trkpt><trkpt lat="43.691035869236266" lon="10.826464999962802"><ele>22.25</ele><time>2026-05-01T07:53:51.998Z</time></trkpt><trkpt lat="43.69104750662143" lon="10.826637777983393"><ele>22.5</ele><time>2026-05-01T07:53:52.998Z</time></trkpt><trkpt lat="43.69105651661824" lon="10.826813886711703"><ele>22.75</ele><time>2026-05-01T07:53:53.998Z</time></trkpt><trkpt lat="43.69106920198258" lon="10.826985020342846"><ele>23.0</ele><time>2026-05-01T07:53:54.998Z</time></trkpt><trkpt lat="43.69107977403709" lon="10.827150598613011"><ele>23.0</ele><time>2026-05-01T07:53:55.998Z</time></trkpt><trkpt lat="43.69109348873967" lon="10.827306336131358"><ele>23.0</ele><time>2026-05-01T07:53:56.998Z</time></trkpt><trkpt lat="43.691098022414614" lon="10.827456387652818"><ele>23.0</ele><time>2026-05-01T07:53:57.998Z</time></trkpt><trkpt lat="43.6910987865024" lon="10.82760973650611"><ele>23.0</ele><time>2026-05-01T07:53:58.998Z</time></trkpt><trkpt lat="43.69110720939954" lon="10.827769278542295"><ele>23.0</ele><time>2026-05-01T07:53:59.998Z</time></trkpt><trkpt lat="43.691123915892" lon="10.827926925271287"><ele>23.0</ele><time>2026-05-01T07:54:00.998Z</time></trkpt><trkpt lat="43.69114381530458" lon="10.828076670274148"><ele>23.0</ele><time>2026-05-01T07:54:01.998Z</time></trkpt><trkpt lat="43.69116691049012" lon="10.8282232768116"><ele>23.0</ele><time>2026-05-01T07:54:02.998Z</time></trkpt><trkpt lat="43.691191507447286" lon="10.828371184876838"><ele>23.0</ele><time>2026-05-01T07:54:03.997Z</time></trkpt><trkpt lat="43.69122797473285" lon="10.828531541985873"><ele>22.5</ele><time>2026-05-01T07:54:04.997Z</time></trkpt><trkpt lat="43.6912708413356" lon="10.828690809389071"><ele>22.0</ele><time>2026-05-01T07:54:05.997Z</time></trkpt><trkpt lat="43.69133281410989" lon="10.828862956295817"><ele>21.5</ele><time>2026-05-01T07:54:06.997Z</time></trkpt><trkpt lat="43.691401631944714" lon="10.829034501730478"><ele>21.0</ele><time>2026-05-01T07:54:07.997Z</time></trkpt><trkpt lat="43.69145861129218" lon="10.829192107772347"><ele>21.4</ele><time>2026-05-01T07:54:08.997Z</time></trkpt><trkpt lat="43.69150590904425" lon="10.829336831284177"><ele>21.8</ele><time>2026-05-01T07:54:09.997Z</time></trkpt><trkpt lat="43.69155430681437" lon="10.829487207396213"><ele>22.2</ele><time>2026-05-01T07:54:10.997Z</time></trkpt><trkpt lat="43.69159730636661" lon="10.829622730997778"><ele>22.599999999999998</ele><time>2026-05-01T07:54:11.997Z</time></trkpt><trkpt lat="43.691644792575126" lon="10.82975416161714"><ele>23.0</ele><time>2026-05-01T07:54:12.997Z</time></trkpt><trkpt lat="43.691695308467175" lon="10.829884817092271"><ele>23.0</ele><time>2026-05-01T07:54:13.997Z</time></trkpt><trkpt lat="43.69174737792538" lon="10.830021387116236"><ele>23.0</ele><time>2026-05-01T07:54:15Z</time></trkpt><trkpt lat="43.691798200400605" lon="10.830162081645119"><ele>23.0</ele><time>2026-05-01T07:54:16Z</time></trkpt><trkpt lat="43.691854863016566" lon="10.830321676627937"><ele>23.0</ele><time>2026-05-01T07:54:17Z</time></trkpt><trkpt lat="43.691904178732585" lon="10.830460717050864"><ele>23.0</ele><time>2026-05-01T07:54:18Z</time></trkpt><trkpt lat="43.691945330719825" lon="10.830586250728945"><ele>23.0</ele><time>2026-05-01T07:54:19Z</time></trkpt><trkpt lat="43.69198621509514" lon="10.830701217663037"><ele>23.0</ele><time>2026-05-01T07:54:20Z</time></trkpt><trkpt lat="43.69202130222347" lon="10.83080398524943"><ele>23.0</ele><time>2026-05-01T07:54:21Z</time></trkpt><trkpt lat="43.69205438189019" lon="10.83089479270873"><ele>23.0</ele><time>2026-05-01T07:54:22Z</time></trkpt><trkpt lat="43.692108409936004" lon="10.831041816108954"><ele>23.0</ele><time>2026-05-01T07:54:24Z</time></trkpt><trkpt lat="43.69212605130535" lon="10.831165727685196"><ele>23.0</ele><time>2026-05-01T07:54:26Z</time></trkpt><trkpt lat="43.69209577334402" lon="10.831343075553708"><ele>23.0</ele><time>2026-05-01T07:54:28Z</time></trkpt><trkpt lat="43.69206365117151" lon="10.831444468302793"><ele>23.0</ele><time>2026-05-01T07:54:29Z</time></trkpt><trkpt lat="43.69204049346445" lon="10.8315278941612"><ele>23.0</ele><time>2026-05-01T07:54:30Z</time></trkpt><trkpt lat="43.69203504526989" lon="10.831623821090949"><ele>23.0</ele><time>2026-05-01T07:54:31Z</time></trkpt><trkpt lat="43.69206220310208" lon="10.831725175382429"><ele>23.0</ele><time>2026-05-01T07:54:32Z</time></trkpt><trkpt lat="43.69210044996617" lon="10.831806327222171"><ele>23.0</ele><time>2026-05-01T07:54:32.999Z</time></trkpt><trkpt lat="43.69222521230475" lon="10.83194689282415"><ele>23.0</ele><time>2026-05-01T07:54:34.999Z</time></trkpt><trkpt lat="43.6923176176994" lon="10.83194794066769"><ele>23.0</ele><time>2026-05-01T07:54:35.999Z</time></trkpt><trkpt lat="43.69241299628796" lon="10.83191443151798"><ele>23.0</ele><time>2026-05-01T07:54:36.999Z</time></trkpt><trkpt lat="43.6924956125468" lon="10.831850394008944"><ele>23.0</ele><time>2026-05-01T07:54:37.999Z</time></trkpt><trkpt lat="43.69255289085369" lon="10.831768377668467"><ele>23.0</ele><time>2026-05-01T07:54:38.999Z</time></trkpt><trkpt lat="43.69261035091617" lon="10.831656318895385"><ele>23.0</ele><time>2026-05-01T07:54:39.999Z</time></trkpt><trkpt lat="43.69267592604776" lon="10.831564006744282"><ele>23.0</ele><time>2026-05-01T07:54:40.999Z</time></trkpt><trkpt lat="43.69274342799318" lon="10.831505430177781"><ele>23.0</ele><time>2026-05-01T07:54:41.999Z</time></trkpt><trkpt lat="43.69281520111781" lon="10.83145611746116"><ele>23.0</ele><time>2026-05-01T07:54:42.999Z</time></trkpt><trkpt lat="43.692896723710184" lon="10.831391168373438"><ele>22.799999999999997</ele><time>2026-05-01T07:54:43.999Z</time></trkpt><trkpt lat="43.69295770664454" lon="10.831350463569215"><ele>22.6</ele><time>2026-05-01T07:54:44.999Z</time></trkpt><trkpt lat="43.69304452054115" lon="10.831374211396355"><ele>22.4</ele><time>2026-05-01T07:54:46.998Z</time></trkpt><trkpt lat="43.69311715809939" lon="10.831487241883034"><ele>22.200000000000003</ele><time>2026-05-01T07:54:48.998Z</time></trkpt><trkpt lat="43.693154945630674" lon="10.83158103590985"><ele>22.0</ele><time>2026-05-01T07:54:49.998Z</time></trkpt><trkpt lat="43.693211909916904" lon="10.831720986330344"><ele>22.0</ele><time>2026-05-01T07:54:51.998Z</time></trkpt><trkpt lat="43.69326059738247" lon="10.831789990693915"><ele>22.0</ele><time>2026-05-01T07:54:53.998Z</time></trkpt><trkpt lat="43.693407916592015" lon="10.831592026442506"><ele>22.0</ele><time>2026-05-01T07:54:54.998Z</time></trkpt><trkpt lat="43.69347012997962" lon="10.83163645260726"><ele>22.0</ele><time>2026-05-01T07:54:55.998Z</time></trkpt><trkpt lat="43.69354480004275" lon="10.831589202099593"><ele>22.0</ele><time>2026-05-01T07:54:57.998Z</time></trkpt><trkpt lat="43.69362074916129" lon="10.831593946277094"><ele>22.0</ele><time>2026-05-01T07:54:59.998Z</time></trkpt><trkpt lat="43.6936814490487" lon="10.831569248984515"><ele>22.0</ele><time>2026-05-01T07:55:03.998Z</time></trkpt><trkpt lat="43.693747059975934" lon="10.8315487671524"><ele>22.0</ele><time>2026-05-01T08:04:29.997Z</time></trkpt><trkpt lat="43.69378386924896" lon="10.831475390765064"><ele>22.0</ele><time>2026-05-01T08:04:39.997Z</time></trkpt><trkpt lat="43.69375539314262" lon="10.831392510932266"><ele>22.0</ele><time>2026-05-01T08:11:49.999Z</time></trkpt><trkpt lat="43.69369145427655" lon="10.831351589369728"><ele>22.0</ele><time>2026-05-01T08:11:51.999Z</time></trkpt><trkpt lat="43.69362514933842" lon="10.831376264187341"><ele>22.0</ele><time>2026-05-01T08:11:53.999Z</time></trkpt><trkpt lat="43.69355440771981" lon="10.831372057161627"><ele>22.0</ele><time>2026-05-01T08:11:56.999Z</time></trkpt><trkpt lat="43.6935189640423" lon="10.831288287527169"><ele>22.0</ele><time>2026-05-01T08:11:58.999Z</time></trkpt><trkpt lat="43.69349138762002" lon="10.831204483650174"><ele>22.0</ele><time>2026-05-01T08:12:00.999Z</time></trkpt><trkpt lat="43.693467632543964" lon="10.83109660355255"><ele>22.0</ele><time>2026-05-01T08:12:03.999Z</time></trkpt><trkpt lat="43.69348619525436" lon="10.83099170636968"><ele>22.0</ele><time>2026-05-01T08:12:24.998Z</time></trkpt><trkpt lat="43.69355344608914" lon="10.830925559211105"><ele>22.0</ele><time>2026-05-01T08:12:26.998Z</time></trkpt><trkpt lat="43.693641858415006" lon="10.830871214309175"><ele>21.6</ele><time>2026-05-01T08:12:28.998Z</time></trkpt><trkpt lat="43.69373557722391" lon="10.83080822931045"><ele>21.200000000000003</ele><time>2026-05-01T08:12:30.998Z</time></trkpt><trkpt lat="43.69382956739595" lon="10.830741116403217"><ele>20.8</ele><time>2026-05-01T08:12:32.998Z</time></trkpt><trkpt lat="43.69393810070077" lon="10.830663454381533"><ele>20.4</ele><time>2026-05-01T08:12:34.998Z</time></trkpt><trkpt lat="43.69399623891774" lon="10.830623059536642"><ele>20.0</ele><time>2026-05-01T08:12:35.998Z</time></trkpt><trkpt lat="43.694064648370606" lon="10.83057296587301"><ele>20.0</ele><time>2026-05-01T08:12:36.998Z</time></trkpt><trkpt lat="43.694152052142954" lon="10.83051009332685"><ele>20.0</ele><time>2026-05-01T08:12:37.998Z</time></trkpt><trkpt lat="43.69425722614306" lon="10.830435951651161"><ele>20.0</ele><time>2026-05-01T08:12:38.998Z</time></trkpt><trkpt lat="43.69436246878502" lon="10.830349999068714"><ele>20.0</ele><time>2026-05-01T08:12:40.998Z</time></trkpt><trkpt lat="43.694438460850016" lon="10.83029488863724"><ele>20.0</ele><time>2026-05-01T08:12:41.998Z</time></trkpt><trkpt lat="43.69452400137209" lon="10.830230076197179"><ele>20.25</ele><time>2026-05-01T08:12:42.998Z</time></trkpt><trkpt lat="43.69461676797128" lon="10.830161193968047"><ele>20.5</ele><time>2026-05-01T08:12:43.998Z</time></trkpt><trkpt lat="43.69472278851227" lon="10.830089930201721"><ele>20.75</ele><time>2026-05-01T08:12:44.998Z</time></trkpt><trkpt lat="43.694830145547556" lon="10.830021903640551"><ele>21.0</ele><time>2026-05-01T08:12:45.998Z</time></trkpt><trkpt lat="43.694941134404424" lon="10.82995392355542"><ele>21.0</ele><time>2026-05-01T08:12:46.998Z</time></trkpt><trkpt lat="43.695053425876466" lon="10.829891656073904"><ele>21.0</ele><time>2026-05-01T08:12:47.998Z</time></trkpt><trkpt lat="43.69516855427428" lon="10.829833133557461"><ele>21.0</ele><time>2026-05-01T08:12:48.998Z</time></trkpt><trkpt lat="43.69527130482922" lon="10.82977972856024"><ele>21.0</ele><time>2026-05-01T08:12:49.998Z</time></trkpt><trkpt lat="43.6953712217953" lon="10.829728729354096"><ele>21.0</ele><time>2026-05-01T08:12:50.998Z</time></trkpt><trkpt lat="43.695476041849574" lon="10.829678292302926"><ele>21.0</ele><time>2026-05-01T08:12:51.998Z</time></trkpt><trkpt lat="43.69558770181087" lon="10.829625512521792"><ele>21.0</ele><time>2026-05-01T08:12:52.997Z</time></trkpt><trkpt lat="43.69570245421353" lon="10.829581511055755"><ele>21.0</ele><time>2026-05-01T08:12:53.997Z</time></trkpt><trkpt lat="43.69582029418775" lon="10.829536088451349"><ele>21.0</ele><time>2026-05-01T08:12:54.997Z</time></trkpt><trkpt lat="43.69594004892573" lon="10.829493545007006"><ele>21.0</ele><time>2026-05-01T08:12:55.997Z</time></trkpt><trkpt lat="43.696059554403696" lon="10.82945555684898"><ele>21.0</ele><time>2026-05-01T08:12:56.997Z</time></trkpt><trkpt lat="43.69618694323137" lon="10.829422780498644"><ele>21.0</ele><time>2026-05-01T08:12:57.997Z</time></trkpt><trkpt lat="43.69631939004463" lon="10.829391612271442"><ele>21.25</ele><time>2026-05-01T08:12:58.997Z</time></trkpt><trkpt lat="43.696453841173636" lon="10.829365430075823"><ele>21.5</ele><time>2026-05-01T08:12:59.997Z</time></trkpt><trkpt lat="43.696585434756784" lon="10.829335637562805"><ele>21.75</ele><time>2026-05-01T08:13:00.997Z</time></trkpt><trkpt lat="43.69672229036512" lon="10.829308330713507"><ele>22.0</ele><time>2026-05-01T08:13:01.997Z</time></trkpt><trkpt lat="43.69686075211978" lon="10.82927379109382"><ele>23.0</ele><time>2026-05-01T08:13:02.997Z</time></trkpt><trkpt lat="43.69699799082331" lon="10.829240983755934"><ele>24.0</ele><time>2026-05-01T08:13:03.997Z</time></trkpt><trkpt lat="43.697132905307704" lon="10.829210093216863"><ele>25.0</ele><time>2026-05-01T08:13:04.997Z</time></trkpt><trkpt lat="43.69726167416204" lon="10.829182449556367"><ele>26.0</ele><time>2026-05-01T08:13:05.997Z</time></trkpt><trkpt lat="43.69738741803367" lon="10.829157821371235"><ele>26.0</ele><time>2026-05-01T08:13:07Z</time></trkpt><trkpt lat="43.69751714862635" lon="10.829129577048631"><ele>26.0</ele><time>2026-05-01T08:13:08Z</time></trkpt><trkpt lat="43.6976467263629" lon="10.829098375534874"><ele>26.0</ele><time>2026-05-01T08:13:09Z</time></trkpt><trkpt lat="43.697779846741476" lon="10.829067385091491"><ele>26.0</ele><time>2026-05-01T08:13:10Z</time></trkpt><trkpt lat="43.69791174478823" lon="10.829036063782054"><ele>25.75</ele><time>2026-05-01T08:13:11Z</time></trkpt><trkpt lat="43.698051359216215" lon="10.829003555093788"><ele>25.5</ele><time>2026-05-01T08:13:12Z</time></trkpt><trkpt lat="43.69819646426583" lon="10.828970565433682"><ele>25.25</ele><time>2026-05-01T08:13:13Z</time></trkpt><trkpt lat="43.69834892421785" lon="10.828936088432833"><ele>25.0</ele><time>2026-05-01T08:13:14Z</time></trkpt><trkpt lat="43.698495266457726" lon="10.82890191841958"><ele>23.75</ele><time>2026-05-01T08:13:15Z</time></trkpt><trkpt lat="43.698627076741595" lon="10.828869863620884"><ele>22.5</ele><time>2026-05-01T08:13:16Z</time></trkpt><trkpt lat="43.698763731684345" lon="10.828833175869459"><ele>21.25</ele><time>2026-05-01T08:13:17Z</time></trkpt><trkpt lat="43.69890343677629" lon="10.828797349204722"><ele>20.0</ele><time>2026-05-01T08:13:18Z</time></trkpt><trkpt lat="43.69904727784973" lon="10.828763556740295"><ele>20.0</ele><time>2026-05-01T08:13:19Z</time></trkpt><trkpt lat="43.69919444852355" lon="10.828729025177509"><ele>20.0</ele><time>2026-05-01T08:13:20Z</time></trkpt><trkpt lat="43.69934485642174" lon="10.82869737551714"><ele>20.0</ele><time>2026-05-01T08:13:21Z</time></trkpt><trkpt lat="43.69949624029497" lon="10.828664670592467"><ele>20.0</ele><time>2026-05-01T08:13:22Z</time></trkpt><trkpt lat="43.6996472238391" lon="10.828630242426739"><ele>20.0</ele><time>2026-05-01T08:13:23Z</time></trkpt><trkpt lat="43.69980174046134" lon="10.828593520951136"><ele>20.0</ele><time>2026-05-01T08:13:24Z</time></trkpt><trkpt lat="43.69995566745596" lon="10.828558414095237"><ele>20.0</ele><time>2026-05-01T08:13:25Z</time></trkpt><trkpt lat="43.70010981576123" lon="10.82852134056008"><ele>20.0</ele><time>2026-05-01T08:13:26Z</time></trkpt><trkpt lat="43.70026475018876" lon="10.828481028330629"><ele>20.0</ele><time>2026-05-01T08:13:27Z</time></trkpt><trkpt lat="43.70042322656124" lon="10.828441543536867"><ele>21.0</ele><time>2026-05-01T08:13:28Z</time></trkpt><trkpt lat="43.70058337363631" lon="10.828405571078841"><ele>22.0</ele><time>2026-05-01T08:13:29Z</time></trkpt><trkpt lat="43.70074249331089" lon="10.82837087139654"><ele>23.0</ele><time>2026-05-01T08:13:30Z</time></trkpt><trkpt lat="43.70090878919407" lon="10.828334913164888"><ele>23.0</ele><time>2026-05-01T08:13:31Z</time></trkpt><trkpt lat="43.70107121907076" lon="10.828299461858714"><ele>23.0</ele><time>2026-05-01T08:13:32Z</time></trkpt><trkpt lat="43.70123645554241" lon="10.828261351074437"><ele>23.0</ele><time>2026-05-01T08:13:33Z</time></trkpt><trkpt lat="43.70140113369118" lon="10.828220177677174"><ele>22.0</ele><time>2026-05-01T08:13:34Z</time></trkpt><trkpt lat="43.70155480425715" lon="10.8281795362213"><ele>21.0</ele><time>2026-05-01T08:13:35Z</time></trkpt><trkpt lat="43.701705106236844" lon="10.828138116577376"><ele>20.0</ele><time>2026-05-01T08:13:35.999Z</time></trkpt><trkpt lat="43.70185280622583" lon="10.828104476703414"><ele>20.0</ele><time>2026-05-01T08:13:36.999Z</time></trkpt><trkpt lat="43.70200562470371" lon="10.82807231644772"><ele>20.0</ele><time>2026-05-01T08:13:37.999Z</time></trkpt><trkpt lat="43.70215595739171" lon="10.828037779320455"><ele>20.0</ele><time>2026-05-01T08:13:38.999Z</time></trkpt><trkpt lat="43.70230467522533" lon="10.828005626905805"><ele>20.0</ele><time>2026-05-01T08:13:39.999Z</time></trkpt><trkpt lat="43.702446298746814" lon="10.827968024252847"><ele>20.0</ele><time>2026-05-01T08:13:40.999Z</time></trkpt><trkpt lat="43.702576752850604" lon="10.827936364515415"><ele>20.0</ele><time>2026-05-01T08:13:41.999Z</time></trkpt><trkpt lat="43.70269579040841" lon="10.827908800725996"><ele>20.0</ele><time>2026-05-01T08:13:42.999Z</time></trkpt><trkpt lat="43.70281379949136" lon="10.82787894698909"><ele>20.2</ele><time>2026-05-01T08:13:43.999Z</time></trkpt><trkpt lat="43.70293109372241" lon="10.82785309522584"><ele>20.4</ele><time>2026-05-01T08:13:44.999Z</time></trkpt><trkpt lat="43.7030386560985" lon="10.827828806515738"><ele>20.6</ele><time>2026-05-01T08:13:45.999Z</time></trkpt><trkpt lat="43.703145044236464" lon="10.827806147450005"><ele>20.8</ele><time>2026-05-01T08:13:46.999Z</time></trkpt><trkpt lat="43.70324939923413" lon="10.82778225257251"><ele>21.0</ele><time>2026-05-01T08:13:47.999Z</time></trkpt><trkpt lat="43.703353245343166" lon="10.827757780171856"><ele>21.0</ele><time>2026-05-01T08:13:48.999Z</time></trkpt><trkpt lat="43.70345144143152" lon="10.82773471884376"><ele>21.0</ele><time>2026-05-01T08:13:49.999Z</time></trkpt><trkpt lat="43.70354403718913" lon="10.827709816618974"><ele>21.0</ele><time>2026-05-01T08:13:50.999Z</time></trkpt><trkpt lat="43.70363537390603" lon="10.827685625517265"><ele>21.0</ele><time>2026-05-01T08:13:51.999Z</time></trkpt><trkpt lat="43.70372425721802" lon="10.827663628350228"><ele>21.0</ele><time>2026-05-01T08:13:52.999Z</time></trkpt><trkpt lat="43.70380326896988" lon="10.827645870477491"><ele>21.0</ele><time>2026-05-01T08:13:53.999Z</time></trkpt><trkpt lat="43.703870287281056" lon="10.827635244310693"><ele>21.0</ele><time>2026-05-01T08:13:54.999Z</time></trkpt><trkpt lat="43.70398676372619" lon="10.827657417112409"><ele>21.0</ele><time>2026-05-01T08:13:56.999Z</time></trkpt><trkpt lat="43.7040525222282" lon="10.82768825464098"><ele>21.0</ele><time>2026-05-01T08:13:57.999Z</time></trkpt><trkpt lat="43.70411724790365" lon="10.827708661199152"><ele>21.0</ele><time>2026-05-01T08:13:58.999Z</time></trkpt><trkpt lat="43.7041857035158" lon="10.827690847470487"><ele>21.0</ele><time>2026-05-01T08:13:59.999Z</time></trkpt><trkpt lat="43.70424532908435" lon="10.827634065240543"><ele>21.0</ele><time>2026-05-01T08:14:00.999Z</time></trkpt><trkpt lat="43.70429518231892" lon="10.827565288782361"><ele>21.0</ele><time>2026-05-01T08:14:01.999Z</time></trkpt><trkpt lat="43.704393717375616" lon="10.827509638382715"><ele>21.0</ele><time>2026-05-01T08:14:03.999Z</time></trkpt><trkpt lat="43.70446000428338" lon="10.827516307742068"><ele>21.0</ele><time>2026-05-01T08:14:07.999Z</time></trkpt><trkpt lat="43.704534509599036" lon="10.827477663425725"><ele>21.0</ele><time>2026-05-01T08:15:17Z</time></trkpt><trkpt lat="43.70466867518757" lon="10.827433442280354"><ele>20.8</ele><time>2026-05-01T08:15:19Z</time></trkpt><trkpt lat="43.704778822863524" lon="10.82736755477622"><ele>20.6</ele><time>2026-05-01T08:15:21Z</time></trkpt><trkpt lat="43.70486507166241" lon="10.827282681113694"><ele>20.4</ele><time>2026-05-01T08:15:22Z</time></trkpt><trkpt lat="43.704975676633914" lon="10.827225867042333"><ele>20.2</ele><time>2026-05-01T08:15:23Z</time></trkpt><trkpt lat="43.70507052791644" lon="10.827165729292634"><ele>20.0</ele><time>2026-05-01T08:15:24Z</time></trkpt><trkpt lat="43.705187477408906" lon="10.827093250518681"><ele>20.25</ele><time>2026-05-01T08:15:25Z</time></trkpt><trkpt lat="43.70530065235833" lon="10.826977269420677"><ele>20.5</ele><time>2026-05-01T08:15:26Z</time></trkpt><trkpt lat="43.70541021364874" lon="10.826860232524812"><ele>20.75</ele><time>2026-05-01T08:15:27Z</time></trkpt><trkpt lat="43.70551705918247" lon="10.826747280822993"><ele>21.0</ele><time>2026-05-01T08:15:28Z</time></trkpt><trkpt lat="43.70564262890488" lon="10.826615107514229"><ele>21.0</ele><time>2026-05-01T08:15:29Z</time></trkpt><trkpt lat="43.705772565918224" lon="10.826477825644696"><ele>21.0</ele><time>2026-05-01T08:15:30Z</time></trkpt><trkpt lat="43.70591242504301" lon="10.826349534959474"><ele>21.0</ele><time>2026-05-01T08:15:31Z</time></trkpt><trkpt lat="43.706018509347714" lon="10.826190293721435"><ele>21.333333333333332</ele><time>2026-05-01T08:15:32Z</time></trkpt><trkpt lat="43.70613618805305" lon="10.826013564510252"><ele>21.666666666666664</ele><time>2026-05-01T08:15:33Z</time></trkpt><trkpt lat="43.7062368204363" lon="10.825827631133047"><ele>22.0</ele><time>2026-05-01T08:15:34Z</time></trkpt><trkpt lat="43.706330413504276" lon="10.825666906238231"><ele>21.5</ele><time>2026-05-01T08:15:35Z</time></trkpt><trkpt lat="43.70641994392657" lon="10.825523165871898"><ele>21.0</ele><time>2026-05-01T08:15:36Z</time></trkpt><trkpt lat="43.70649942144995" lon="10.825366604424575"><ele>20.5</ele><time>2026-05-01T08:15:37Z</time></trkpt><trkpt lat="43.706582585868446" lon="10.825206851597287"><ele>20.0</ele><time>2026-05-01T08:15:38Z</time></trkpt><trkpt lat="43.70666935737068" lon="10.825041092310178"><ele>20.0</ele><time>2026-05-01T08:15:39Z</time></trkpt><trkpt lat="43.70675820853264" lon="10.824874948467844"><ele>20.0</ele><time>2026-05-01T08:15:40Z</time></trkpt><trkpt lat="43.706852486468" lon="10.824705287696492"><ele>20.0</ele><time>2026-05-01T08:15:41Z</time></trkpt><trkpt lat="43.70694088809861" lon="10.824537033598157"><ele>20.0</ele><time>2026-05-01T08:15:42Z</time></trkpt><trkpt lat="43.707014396860174" lon="10.824398554732046"><ele>20.0</ele><time>2026-05-01T08:15:43Z</time></trkpt><trkpt lat="43.70708639837943" lon="10.824265073540694"><ele>20.0</ele><time>2026-05-01T08:15:44Z</time></trkpt><trkpt lat="43.70715503243946" lon="10.8241418258504"><ele>20.0</ele><time>2026-05-01T08:15:45Z</time></trkpt><trkpt lat="43.707226676483515" lon="10.824013822311267"><ele>20.0</ele><time>2026-05-01T08:15:46Z</time></trkpt><trkpt lat="43.707290607330734" lon="10.82389849215088"><ele>20.0</ele><time>2026-05-01T08:15:47Z</time></trkpt><trkpt lat="43.70734696439568" lon="10.823793073874388"><ele>20.0</ele><time>2026-05-01T08:15:47.999Z</time></trkpt><trkpt lat="43.70740156005814" lon="10.823690690061449"><ele>20.0</ele><time>2026-05-01T08:15:48.999Z</time></trkpt><trkpt lat="43.70745994057755" lon="10.82358127615292"><ele>20.0</ele><time>2026-05-01T08:15:49.999Z</time></trkpt><trkpt lat="43.707521501189" lon="10.82346756320206"><ele>20.4</ele><time>2026-05-01T08:15:50.999Z</time></trkpt><trkpt lat="43.70758555490643" lon="10.823353357754238"><ele>20.8</ele><time>2026-05-01T08:15:51.999Z</time></trkpt><trkpt lat="43.70765199852842" lon="10.823237059222036"><ele>21.200000000000003</ele><time>2026-05-01T08:15:52.999Z</time></trkpt><trkpt lat="43.70771668677742" lon="10.823120151330286"><ele>21.6</ele><time>2026-05-01T08:15:53.999Z</time></trkpt><trkpt lat="43.70778157749603" lon="10.823001052276398"><ele>22.0</ele><time>2026-05-01T08:15:54.999Z</time></trkpt><trkpt lat="43.70784802926954" lon="10.82287887974614"><ele>22.0</ele><time>2026-05-01T08:15:55.999Z</time></trkpt><trkpt lat="43.707910697930565" lon="10.822758149609607"><ele>22.0</ele><time>2026-05-01T08:15:56.999Z</time></trkpt><trkpt lat="43.70797528759489" lon="10.822629578038917"><ele>22.0</ele><time>2026-05-01T08:15:57.999Z</time></trkpt><trkpt lat="43.70804491571008" lon="10.822502855246055"><ele>22.0</ele><time>2026-05-01T08:15:58.999Z</time></trkpt><trkpt lat="43.708117455007496" lon="10.822376538897277"><ele>22.0</ele><time>2026-05-01T08:15:59.999Z</time></trkpt><trkpt lat="43.708189543313985" lon="10.822248101918152"><ele>22.0</ele><time>2026-05-01T08:16:00.999Z</time></trkpt><trkpt lat="43.708259195567514" lon="10.822114290354362"><ele>22.0</ele><time>2026-05-01T08:16:01.999Z</time></trkpt><trkpt lat="43.70833110544506" lon="10.821979333450935"><ele>22.0</ele><time>2026-05-01T08:16:02.999Z</time></trkpt><trkpt lat="43.70840419028327" lon="10.82184476860586"><ele>22.0</ele><time>2026-05-01T08:16:03.999Z</time></trkpt><trkpt lat="43.70847336859834" lon="10.82170975066627"><ele>22.0</ele><time>2026-05-01T08:16:04.999Z</time></trkpt><trkpt lat="43.708541378520316" lon="10.821569898684333"><ele>22.0</ele><time>2026-05-01T08:16:05.999Z</time></trkpt><trkpt lat="43.70861096940916" lon="10.821434079808595"><ele>22.0</ele><time>2026-05-01T08:16:06.999Z</time></trkpt><trkpt lat="43.708681574566775" lon="10.821295503510756"><ele>22.0</ele><time>2026-05-01T08:16:07.999Z</time></trkpt><trkpt lat="43.70875721505166" lon="10.821154929261224"><ele>22.0</ele><time>2026-05-01T08:16:08.999Z</time></trkpt><trkpt lat="43.70883834817311" lon="10.821009495673712"><ele>22.0</ele><time>2026-05-01T08:16:09.999Z</time></trkpt><trkpt lat="43.70893188393867" lon="10.82085159696927"><ele>22.0</ele><time>2026-05-01T08:16:10.999Z</time></trkpt><trkpt lat="43.70902314720734" lon="10.820703290512032"><ele>22.0</ele><time>2026-05-01T08:16:11.999Z</time></trkpt><trkpt lat="43.70911705934209" lon="10.820562297781358"><ele>22.0</ele><time>2026-05-01T08:16:12.999Z</time></trkpt><trkpt lat="43.709209103042774" lon="10.820437629813812"><ele>22.0</ele><time>2026-05-01T08:16:13.999Z</time></trkpt><trkpt lat="43.70931268572335" lon="10.820307492499978"><ele>22.0</ele><time>2026-05-01T08:16:14.999Z</time></trkpt><trkpt lat="43.70941440262681" lon="10.820181204750286"><ele>21.75</ele><time>2026-05-01T08:16:15.999Z</time></trkpt><trkpt lat="43.70950851759905" lon="10.82005894585037"><ele>21.5</ele><time>2026-05-01T08:16:16.999Z</time></trkpt><trkpt lat="43.70959219761789" lon="10.819948814705079"><ele>21.25</ele><time>2026-05-01T08:16:17.999Z</time></trkpt><trkpt lat="43.70967640227475" lon="10.819852522648702"><ele>21.0</ele><time>2026-05-01T08:16:18.999Z</time></trkpt><trkpt lat="43.70975467096592" lon="10.819767581834293"><ele>21.0</ele><time>2026-05-01T08:16:19.999Z</time></trkpt><trkpt lat="43.709827098367676" lon="10.819688034225008"><ele>21.0</ele><time>2026-05-01T08:16:20.999Z</time></trkpt><trkpt lat="43.709899651520395" lon="10.819610571767225"><ele>21.0</ele><time>2026-05-01T08:16:21.999Z</time></trkpt><trkpt lat="43.70996703845592" lon="10.819537550362378"><ele>21.0</ele><time>2026-05-01T08:16:22.999Z</time></trkpt><trkpt lat="43.71003330303162" lon="10.819469611546527"><ele>21.0</ele><time>2026-05-01T08:16:23.999Z</time></trkpt><trkpt lat="43.71009527969058" lon="10.819406155279598"><ele>21.0</ele><time>2026-05-01T08:16:24.999Z</time></trkpt><trkpt lat="43.71015168902142" lon="10.819356581288602"><ele>21.333333333333332</ele><time>2026-05-01T08:16:25.999Z</time></trkpt><trkpt lat="43.710258530382" lon="10.819310769455802"><ele>21.666666666666668</ele><time>2026-05-01T08:16:27.999Z</time></trkpt><trkpt lat="43.71033343325026" lon="10.81930790393453"><ele>22.0</ele><time>2026-05-01T08:16:28.999Z</time></trkpt><trkpt lat="43.71041140541064" lon="10.81929862791135"><ele>22.333333333333336</ele><time>2026-05-01T08:16:29.999Z</time></trkpt><trkpt lat="43.71049187799188" lon="10.819253395622978"><ele>22.666666666666668</ele><time>2026-05-01T08:16:30.999Z</time></trkpt><trkpt lat="43.710562852366145" lon="10.819179905214469"><ele>23.0</ele><time>2026-05-01T08:16:31.999Z</time></trkpt><trkpt lat="43.710637718736734" lon="10.819104822878746"><ele>23.0</ele><time>2026-05-01T08:16:32.998Z</time></trkpt><trkpt lat="43.71071305807082" lon="10.819055416868114"><ele>23.0</ele><time>2026-05-01T08:16:33.998Z</time></trkpt><trkpt lat="43.710804540997714" lon="10.819016983687712"><ele>23.0</ele><time>2026-05-01T08:16:34.998Z</time></trkpt><trkpt lat="43.71090894853998" lon="10.81898140606596"><ele>23.0</ele><time>2026-05-01T08:16:35.998Z</time></trkpt><trkpt lat="43.71102883746519" lon="10.818948265527611"><ele>23.0</ele><time>2026-05-01T08:16:36.998Z</time></trkpt><trkpt lat="43.71115500593087" lon="10.81891228448614"><ele>23.5</ele><time>2026-05-01T08:16:37.998Z</time></trkpt><trkpt lat="43.71129175372096" lon="10.81887673528508"><ele>24.0</ele><time>2026-05-01T08:16:38.998Z</time></trkpt><trkpt lat="43.7114178216011" lon="10.818850738522416"><ele>24.5</ele><time>2026-05-01T08:16:39.998Z</time></trkpt><trkpt lat="43.711557866029494" lon="10.818829704410657"><ele>25.0</ele><time>2026-05-01T08:16:40.998Z</time></trkpt><trkpt lat="43.7117058448844" lon="10.818812587705567"><ele>25.0</ele><time>2026-05-01T08:16:41.998Z</time></trkpt><trkpt lat="43.71186473068513" lon="10.818795146096182"><ele>25.0</ele><time>2026-05-01T08:16:42.998Z</time></trkpt><trkpt lat="43.71201788076643" lon="10.818781481765383"><ele>25.0</ele><time>2026-05-01T08:16:43.998Z</time></trkpt><trkpt lat="43.712163128013216" lon="10.818777332799966"><ele>23.666666666666668</ele><time>2026-05-01T08:16:44.998Z</time></trkpt><trkpt lat="43.712322884801715" lon="10.818777076702368"><ele>22.333333333333336</ele><time>2026-05-01T08:16:45.998Z</time></trkpt><trkpt lat="43.71248671595473" lon="10.818781349516794"><ele>21.0</ele><time>2026-05-01T08:16:46.998Z</time></trkpt><trkpt lat="43.712651873710925" lon="10.818805004055429"><ele>21.333333333333332</ele><time>2026-05-01T08:16:47.998Z</time></trkpt><trkpt lat="43.71282037136423" lon="10.818850767550018"><ele>21.666666666666664</ele><time>2026-05-01T08:16:48.998Z</time></trkpt><trkpt lat="43.7129924257419" lon="10.81890525621824"><ele>22.0</ele><time>2026-05-01T08:16:49.998Z</time></trkpt><trkpt lat="43.71317073837072" lon="10.818957931515822"><ele>22.0</ele><time>2026-05-01T08:16:50.998Z</time></trkpt><trkpt lat="43.71335237869615" lon="10.819017776757088"><ele>22.0</ele><time>2026-05-01T08:16:51.998Z</time></trkpt><trkpt lat="43.7135211365685" lon="10.819085015101502"><ele>22.0</ele><time>2026-05-01T08:16:52.998Z</time></trkpt><trkpt lat="43.713687599120604" lon="10.819162770595657"><ele>21.666666666666664</ele><time>2026-05-01T08:16:53.998Z</time></trkpt><trkpt lat="43.713859122469536" lon="10.819245513232119"><ele>21.333333333333332</ele><time>2026-05-01T08:16:54.998Z</time></trkpt><trkpt lat="43.71403794726343" lon="10.819331665324029"><ele>21.0</ele><time>2026-05-01T08:16:55.998Z</time></trkpt><trkpt lat="43.7142161694306" lon="10.819421215776849"><ele>20.0</ele><time>2026-05-01T08:16:56.998Z</time></trkpt><trkpt lat="43.714391534192195" lon="10.819509675979303"><ele>19.0</ele><time>2026-05-01T08:16:57.998Z</time></trkpt><trkpt lat="43.714569071466066" lon="10.819597963426094"><ele>18.0</ele><time>2026-05-01T08:16:58.998Z</time></trkpt><trkpt lat="43.71475178593123" lon="10.819690068397426"><ele>18.0</ele><time>2026-05-01T08:16:59.998Z</time></trkpt><trkpt lat="43.71493806489145" lon="10.819788137479943"><ele>18.0</ele><time>2026-05-01T08:17:00.998Z</time></trkpt><trkpt lat="43.71512660242766" lon="10.819888056681457"><ele>18.0</ele><time>2026-05-01T08:17:01.998Z</time></trkpt><trkpt lat="43.71531868427061" lon="10.819987732767743"><ele>18.0</ele><time>2026-05-01T08:17:02.998Z</time></trkpt><trkpt lat="43.71550269372056" lon="10.820084106351024"><ele>18.0</ele><time>2026-05-01T08:17:03.998Z</time></trkpt><trkpt lat="43.71568466515882" lon="10.82017791920613"><ele>18.0</ele><time>2026-05-01T08:17:04.998Z</time></trkpt><trkpt lat="43.71586393587519" lon="10.820271067534682"><ele>18.333333333333332</ele><time>2026-05-01T08:17:05.998Z</time></trkpt><trkpt lat="43.71604389683894" lon="10.820365724863846"><ele>18.666666666666664</ele><time>2026-05-01T08:17:06.998Z</time></trkpt><trkpt lat="43.716227593925005" lon="10.820459577606254"><ele>19.0</ele><time>2026-05-01T08:17:07.998Z</time></trkpt><trkpt lat="43.71641551021719" lon="10.820555325446538"><ele>19.333333333333332</ele><time>2026-05-01T08:17:08.998Z</time></trkpt><trkpt lat="43.71661265852094" lon="10.820655379055367"><ele>19.666666666666668</ele><time>2026-05-01T08:17:09.998Z</time></trkpt><trkpt lat="43.71680348613787" lon="10.82075102489242"><ele>20.0</ele><time>2026-05-01T08:17:10.998Z</time></trkpt><trkpt lat="43.71699708246277" lon="10.820853169275575"><ele>20.333333333333336</ele><time>2026-05-01T08:17:11.998Z</time></trkpt><trkpt lat="43.71719002475135" lon="10.820953073965612"><ele>20.666666666666668</ele><time>2026-05-01T08:17:12.998Z</time></trkpt><trkpt lat="43.71738710746869" lon="10.821052580951754"><ele>21.0</ele><time>2026-05-01T08:17:13.998Z</time></trkpt><trkpt lat="43.71757766098065" lon="10.821152386724718"><ele>21.0</ele><time>2026-05-01T08:17:14.998Z</time></trkpt><trkpt lat="43.717771795302426" lon="10.821252577996777"><ele>21.0</ele><time>2026-05-01T08:17:15.998Z</time></trkpt><trkpt lat="43.71796300738618" lon="10.821349505237478"><ele>21.0</ele><time>2026-05-01T08:17:16.998Z</time></trkpt><trkpt lat="43.7181507797549" lon="10.821446047923358"><ele>21.0</ele><time>2026-05-01T08:17:17.998Z</time></trkpt><trkpt lat="43.7183445512448" lon="10.821547453407314"><ele>21.0</ele><time>2026-05-01T08:17:19Z</time></trkpt><trkpt lat="43.718527976304564" lon="10.821639786507792"><ele>21.0</ele><time>2026-05-01T08:17:20Z</time></trkpt><trkpt lat="43.71870515153059" lon="10.821731633159011"><ele>20.666666666666668</ele><time>2026-05-01T08:17:21Z</time></trkpt><trkpt lat="43.718881489045735" lon="10.821823247095429"><ele>20.333333333333336</ele><time>2026-05-01T08:17:22Z</time></trkpt><trkpt lat="43.71905384524904" lon="10.821914152369583"><ele>20.0</ele><time>2026-05-01T08:17:23Z</time></trkpt><trkpt lat="43.71922678693795" lon="10.822004369895026"><ele>20.0</ele><time>2026-05-01T08:17:24Z</time></trkpt><trkpt lat="43.71939889548968" lon="10.822095073841027"><ele>20.0</ele><time>2026-05-01T08:17:25Z</time></trkpt><trkpt lat="43.71957322583713" lon="10.82218447805455"><ele>20.0</ele><time>2026-05-01T08:17:26Z</time></trkpt><trkpt lat="43.71974795145899" lon="10.822268972460819"><ele>20.0</ele><time>2026-05-01T08:17:27Z</time></trkpt><trkpt lat="43.719921745965486" lon="10.8223494393614"><ele>20.0</ele><time>2026-05-01T08:17:28Z</time></trkpt><trkpt lat="43.72008817999516" lon="10.822456066788309"><ele>20.0</ele><time>2026-05-01T08:17:29Z</time></trkpt><trkpt lat="43.72026075637345" lon="10.822543808122484"><ele>20.333333333333336</ele><time>2026-05-01T08:17:30Z</time></trkpt><trkpt lat="43.72043456980967" lon="10.82261644538204"><ele>20.666666666666668</ele><time>2026-05-01T08:17:31Z</time></trkpt><trkpt lat="43.72060661211127" lon="10.822717780620405"><ele>21.0</ele><time>2026-05-01T08:17:32Z</time></trkpt><trkpt lat="43.72077959229821" lon="10.822814954553113"><ele>21.333333333333332</ele><time>2026-05-01T08:17:33Z</time></trkpt><trkpt lat="43.720957362571525" lon="10.822904704231938"><ele>21.666666666666664</ele><time>2026-05-01T08:17:34Z</time></trkpt><trkpt lat="43.721135505034376" lon="10.822987483866829"><ele>22.0</ele><time>2026-05-01T08:17:35Z</time></trkpt><trkpt lat="43.721315410113355" lon="10.823066695396998"><ele>22.0</ele><time>2026-05-01T08:17:36Z</time></trkpt><trkpt lat="43.721498847779245" lon="10.823141916875363"><ele>22.0</ele><time>2026-05-01T08:17:37Z</time></trkpt><trkpt lat="43.72168674195469" lon="10.823204407808579"><ele>22.0</ele><time>2026-05-01T08:17:38Z</time></trkpt><trkpt lat="43.72187811588966" lon="10.823245128581913"><ele>22.0</ele><time>2026-05-01T08:17:39Z</time></trkpt><trkpt lat="43.72207203259085" lon="10.823270793811096"><ele>22.0</ele><time>2026-05-01T08:17:40Z</time></trkpt><trkpt lat="43.7222708066309" lon="10.823279308313829"><ele>22.0</ele><time>2026-05-01T08:17:41Z</time></trkpt><trkpt lat="43.722477450327155" lon="10.823257506303941"><ele>22.0</ele><time>2026-05-01T08:17:42Z</time></trkpt><trkpt lat="43.72267344284307" lon="10.823211756154123"><ele>22.0</ele><time>2026-05-01T08:17:43Z</time></trkpt><trkpt lat="43.72285109739718" lon="10.823155527865172"><ele>22.0</ele><time>2026-05-01T08:17:44Z</time></trkpt><trkpt lat="43.72300776107815" lon="10.823084787449847"><ele>21.75</ele><time>2026-05-01T08:17:45Z</time></trkpt><trkpt lat="43.7231506147846" lon="10.823013972439952"><ele>21.5</ele><time>2026-05-01T08:17:46Z</time></trkpt><trkpt lat="43.72327599099106" lon="10.822946344697208"><ele>21.25</ele><time>2026-05-01T08:17:47Z</time></trkpt><trkpt lat="43.72338238336382" lon="10.822880490531213"><ele>21.0</ele><time>2026-05-01T08:17:48Z</time></trkpt><trkpt lat="43.72349002898011" lon="10.822805379208633"><ele>21.0</ele><time>2026-05-01T08:17:49Z</time></trkpt><trkpt lat="43.72359473679517" lon="10.82272993188631"><ele>21.0</ele><time>2026-05-01T08:17:49.999Z</time></trkpt><trkpt lat="43.723690732248954" lon="10.8226551597523"><ele>21.0</ele><time>2026-05-01T08:17:50.999Z</time></trkpt><trkpt lat="43.72377540140986" lon="10.82258494230589"><ele>21.0</ele><time>2026-05-01T08:17:51.999Z</time></trkpt><trkpt lat="43.72384591953316" lon="10.822522502752477"><ele>21.0</ele><time>2026-05-01T08:17:52.999Z</time></trkpt><trkpt lat="43.72390504032334" lon="10.822472299831809"><ele>21.166666666666668</ele><time>2026-05-01T08:17:53.999Z</time></trkpt><trkpt lat="43.72396095689319" lon="10.822432241270873"><ele>21.333333333333332</ele><time>2026-05-01T08:17:54.999Z</time></trkpt><trkpt lat="43.72407479182004" lon="10.822372394263104"><ele>21.5</ele><time>2026-05-01T08:17:56.999Z</time></trkpt><trkpt lat="43.72414495310055" lon="10.822360745378935"><ele>21.666666666666664</ele><time>2026-05-01T08:17:57.999Z</time></trkpt><trkpt lat="43.724214536587795" lon="10.822372697635258"><ele>21.833333333333332</ele><time>2026-05-01T08:17:58.999Z</time></trkpt><trkpt lat="43.724290451478645" lon="10.82238973791155"><ele>22.0</ele><time>2026-05-01T08:17:59.999Z</time></trkpt><trkpt lat="43.72437325595125" lon="10.822432460265532"><ele>21.6</ele><time>2026-05-01T08:18:00.999Z</time></trkpt><trkpt lat="43.72446009713151" lon="10.822458982501642"><ele>21.200000000000003</ele><time>2026-05-01T08:18:01.999Z</time></trkpt><trkpt lat="43.72455004242849" lon="10.822472308082892"><ele>20.8</ele><time>2026-05-01T08:18:02.999Z</time></trkpt><trkpt lat="43.72464412904047" lon="10.822457209247947"><ele>20.4</ele><time>2026-05-01T08:18:03.999Z</time></trkpt><trkpt lat="43.72474307794436" lon="10.82242163499934"><ele>20.0</ele><time>2026-05-01T08:18:04.999Z</time></trkpt><trkpt lat="43.72482241565445" lon="10.822343176903406"><ele>20.0</ele><time>2026-05-01T08:18:05.999Z</time></trkpt><trkpt lat="43.72490333324522" lon="10.822304016836897"><ele>20.0</ele><time>2026-05-01T08:18:06.999Z</time></trkpt><trkpt lat="43.724973849977054" lon="10.822226754119782"><ele>20.0</ele><time>2026-05-01T08:18:07.999Z</time></trkpt><trkpt lat="43.7250419615329" lon="10.822137001078628"><ele>20.0</ele><time>2026-05-01T08:18:08.999Z</time></trkpt><trkpt lat="43.72510871110069" lon="10.822023731767052"><ele>20.0</ele><time>2026-05-01T08:18:09.999Z</time></trkpt><trkpt lat="43.725167199073965" lon="10.821877252827516"><ele>20.25</ele><time>2026-05-01T08:18:10.999Z</time></trkpt><trkpt lat="43.725208736147586" lon="10.821722213665163"><ele>20.5</ele><time>2026-05-01T08:18:11.999Z</time></trkpt><trkpt lat="43.7253125389566" lon="10.821576861026788"><ele>20.75</ele><time>2026-05-01T08:18:12.999Z</time></trkpt><trkpt lat="43.72539162478317" lon="10.82141991443305"><ele>21.0</ele><time>2026-05-01T08:18:13.999Z</time></trkpt><trkpt lat="43.725473719681794" lon="10.821277457479844"><ele>21.5</ele><time>2026-05-01T08:18:14.999Z</time></trkpt><trkpt lat="43.7255616975459" lon="10.82113089091261"><ele>22.0</ele><time>2026-05-01T08:18:15.999Z</time></trkpt><trkpt lat="43.725654487256925" lon="10.820981317822376"><ele>22.5</ele><time>2026-05-01T08:18:16.999Z</time></trkpt><trkpt lat="43.725764127654145" lon="10.820837805984544"><ele>23.0</ele><time>2026-05-01T08:18:17.999Z</time></trkpt><trkpt lat="43.72588400647414" lon="10.820703534676538"><ele>23.0</ele><time>2026-05-01T08:18:18.999Z</time></trkpt><trkpt lat="43.72600775077225" lon="10.82057131306496"><ele>23.0</ele><time>2026-05-01T08:18:19.999Z</time></trkpt><trkpt lat="43.72613734880434" lon="10.820439777494915"><ele>23.0</ele><time>2026-05-01T08:18:20.999Z</time></trkpt><trkpt lat="43.72627140059696" lon="10.820315965012059"><ele>24.0</ele><time>2026-05-01T08:18:21.999Z</time></trkpt><trkpt lat="43.726404730468055" lon="10.82018616573842"><ele>25.0</ele><time>2026-05-01T08:18:22.999Z</time></trkpt><trkpt lat="43.726538861062785" lon="10.820055071374178"><ele>26.0</ele><time>2026-05-01T08:18:23.999Z</time></trkpt><trkpt lat="43.72666227366962" lon="10.81993779680186"><ele>26.0</ele><time>2026-05-01T08:18:24.999Z</time></trkpt><trkpt lat="43.72678886454953" lon="10.81983915672455"><ele>26.0</ele><time>2026-05-01T08:18:25.999Z</time></trkpt><trkpt lat="43.72693230842941" lon="10.819735446549393"><ele>26.0</ele><time>2026-05-01T08:18:26.999Z</time></trkpt><trkpt lat="43.72707960716592" lon="10.819627489288745"><ele>26.0</ele><time>2026-05-01T08:18:27.999Z</time></trkpt><trkpt lat="43.72721673780028" lon="10.819516061098172"><ele>26.0</ele><time>2026-05-01T08:18:28.999Z</time></trkpt><trkpt lat="43.7273544328884" lon="10.819410114170022"><ele>26.0</ele><time>2026-05-01T08:18:29.999Z</time></trkpt><trkpt lat="43.727489988141926" lon="10.819313182150044"><ele>26.0</ele><time>2026-05-01T08:18:30.999Z</time></trkpt><trkpt lat="43.72762689386837" lon="10.81922866882196"><ele>26.0</ele><time>2026-05-01T08:18:31.999Z</time></trkpt><trkpt lat="43.72774800940334" lon="10.819165297954653"><ele>26.0</ele><time>2026-05-01T08:18:32.999Z</time></trkpt><trkpt lat="43.72785663831518" lon="10.819104396142924"><ele>26.0</ele><time>2026-05-01T08:18:33.999Z</time></trkpt><trkpt lat="43.727948790684685" lon="10.819056869000608"><ele>26.833333333333332</ele><time>2026-05-01T08:18:34.998Z</time></trkpt><trkpt lat="43.7280216136318" lon="10.819020243044164"><ele>27.666666666666664</ele><time>2026-05-01T08:18:35.998Z</time></trkpt><trkpt lat="43.72813138391202" lon="10.818969842561883"><ele>28.5</ele><time>2026-05-01T08:18:37.998Z</time></trkpt><trkpt lat="43.728219788009746" lon="10.818927810788136"><ele>29.333333333333336</ele><time>2026-05-01T08:18:39.998Z</time></trkpt><trkpt lat="43.72828760419955" lon="10.81889560467178"><ele>30.166666666666668</ele><time>2026-05-01T08:18:41.998Z</time></trkpt><trkpt lat="43.72834819046555" lon="10.818858677527375"><ele>31.0</ele><time>2026-05-01T08:18:59.998Z</time></trkpt><trkpt lat="43.72845228950031" lon="10.818807040676033"><ele>31.0</ele><time>2026-05-01T08:19:01.998Z</time></trkpt><trkpt lat="43.72852987808286" lon="10.818770088063713"><ele>31.0</ele><time>2026-05-01T08:19:02.998Z</time></trkpt><trkpt lat="43.72862725194821" lon="10.81872783690715"><ele>31.0</ele><time>2026-05-01T08:19:03.998Z</time></trkpt><trkpt lat="43.72872372935951" lon="10.818676118790696"><ele>31.0</ele><time>2026-05-01T08:19:04.998Z</time></trkpt><trkpt lat="43.72881642957318" lon="10.818627506591252"><ele>31.0</ele><time>2026-05-01T08:19:05.998Z</time></trkpt><trkpt lat="43.72893566690833" lon="10.81856772730104"><ele>30.5</ele><time>2026-05-01T08:19:06.998Z</time></trkpt><trkpt lat="43.72906615048722" lon="10.818502643233064"><ele>30.0</ele><time>2026-05-01T08:19:07.998Z</time></trkpt><trkpt lat="43.72919494816496" lon="10.818439491957767"><ele>29.5</ele><time>2026-05-01T08:19:08.998Z</time></trkpt><trkpt lat="43.729337820672605" lon="10.818369272396257"><ele>29.0</ele><time>2026-05-01T08:19:09.998Z</time></trkpt><trkpt lat="43.72949567745332" lon="10.818291725215788"><ele>26.666666666666664</ele><time>2026-05-01T08:19:10.998Z</time></trkpt><trkpt lat="43.72964353662018" lon="10.818218534018431"><ele>24.333333333333332</ele><time>2026-05-01T08:19:11.998Z</time></trkpt><trkpt lat="43.72979525595899" lon="10.8181426017345"><ele>22.0</ele><time>2026-05-01T08:19:12.998Z</time></trkpt><trkpt lat="43.729962712623745" lon="10.818056242755222"><ele>22.0</ele><time>2026-05-01T08:19:13.998Z</time></trkpt><trkpt lat="43.73013380057125" lon="10.817966198504015"><ele>22.0</ele><time>2026-05-01T08:19:14.998Z</time></trkpt><trkpt lat="43.73031439931005" lon="10.817874241460718"><ele>22.0</ele><time>2026-05-01T08:19:15.998Z</time></trkpt><trkpt lat="43.73047890118245" lon="10.817797496260285"><ele>21.666666666666664</ele><time>2026-05-01T08:19:16.998Z</time></trkpt><trkpt lat="43.73063388102384" lon="10.817719366619807"><ele>21.333333333333332</ele><time>2026-05-01T08:19:17.998Z</time></trkpt><trkpt lat="43.73078158854748" lon="10.817643479975581"><ele>21.0</ele><time>2026-05-01T08:19:18.998Z</time></trkpt><trkpt lat="43.73092971684602" lon="10.817557063624998"><ele>21.0</ele><time>2026-05-01T08:19:19.998Z</time></trkpt><trkpt lat="43.73108265444709" lon="10.81745772849464"><ele>21.0</ele><time>2026-05-01T08:19:20.997Z</time></trkpt><trkpt lat="43.731222357047585" lon="10.817352812025359"><ele>21.0</ele><time>2026-05-01T08:19:21.997Z</time></trkpt><trkpt lat="43.731345972546215" lon="10.817249196163742"><ele>21.0</ele><time>2026-05-01T08:19:22.997Z</time></trkpt><trkpt lat="43.73146156715137" lon="10.817148941644165"><ele>21.0</ele><time>2026-05-01T08:19:24Z</time></trkpt><trkpt lat="43.73156271807288" lon="10.817050448979886"><ele>21.0</ele><time>2026-05-01T08:19:25Z</time></trkpt><trkpt lat="43.73165776875758" lon="10.816940030898687"><ele>21.0</ele><time>2026-05-01T08:19:26Z</time></trkpt><trkpt lat="43.73175711300103" lon="10.816824617588516"><ele>21.25</ele><time>2026-05-01T08:19:27Z</time></trkpt><trkpt lat="43.731849201944904" lon="10.816722171444535"><ele>21.5</ele><time>2026-05-01T08:19:28Z</time></trkpt><trkpt lat="43.73193766085409" lon="10.816617875807264"><ele>21.75</ele><time>2026-05-01T08:19:29Z</time></trkpt><trkpt lat="43.73202665347642" lon="10.816493685092684"><ele>22.0</ele><time>2026-05-01T08:19:30Z</time></trkpt><trkpt lat="43.732114601047044" lon="10.816357561898673"><ele>23.0</ele><time>2026-05-01T08:19:31Z</time></trkpt><trkpt lat="43.73219976451607" lon="10.81622304070874"><ele>24.0</ele><time>2026-05-01T08:19:32Z</time></trkpt><trkpt lat="43.732294359174155" lon="10.816061829066483"><ele>25.0</ele><time>2026-05-01T08:19:33Z</time></trkpt><trkpt lat="43.73239640026485" lon="10.815870293998842"><ele>25.0</ele><time>2026-05-01T08:19:34Z</time></trkpt><trkpt lat="43.73249683171319" lon="10.815658762177948"><ele>25.0</ele><time>2026-05-01T08:19:35Z</time></trkpt><trkpt lat="43.73258676909675" lon="10.815450908393405"><ele>25.0</ele><time>2026-05-01T08:19:36Z</time></trkpt><trkpt lat="43.73267436083929" lon="10.81523099592812"><ele>29.0</ele><time>2026-05-01T08:19:37Z</time></trkpt><trkpt lat="43.7327443918251" lon="10.815019702713634"><ele>33.0</ele><time>2026-05-01T08:19:38Z</time></trkpt><trkpt lat="43.73280964781372" lon="10.814807966564675"><ele>37.0</ele><time>2026-05-01T08:19:39Z</time></trkpt><trkpt lat="43.73284061789923" lon="10.814592041148808"><ele>37.0</ele><time>2026-05-01T08:19:40Z</time></trkpt><trkpt lat="43.73291797858258" lon="10.814326608282103"><ele>37.0</ele><time>2026-05-01T08:19:41Z</time></trkpt><trkpt lat="43.73296407237693" lon="10.814108629886444"><ele>37.0</ele><time>2026-05-01T08:19:42Z</time></trkpt><trkpt lat="43.733011765668984" lon="10.81389690114564"><ele>37.0</ele><time>2026-05-01T08:19:43Z</time></trkpt><trkpt lat="43.73305885697855" lon="10.81368408975379"><ele>37.0</ele><time>2026-05-01T08:19:44Z</time></trkpt><trkpt lat="43.73310977317951" lon="10.813472228020718"><ele>37.0</ele><time>2026-05-01T08:19:45Z</time></trkpt><trkpt lat="43.733166954932585" lon="10.813258201334857"><ele>37.0</ele><time>2026-05-01T08:19:46Z</time></trkpt><trkpt lat="43.73322380451503" lon="10.813032896199985"><ele>37.0</ele><time>2026-05-01T08:19:47Z</time></trkpt><trkpt lat="43.73327795552551" lon="10.812802012078022"><ele>37.0</ele><time>2026-05-01T08:19:48Z</time></trkpt><trkpt lat="43.73333334622574" lon="10.812566322328847"><ele>34.333333333333336</ele><time>2026-05-01T08:19:49Z</time></trkpt><trkpt lat="43.73338670905106" lon="10.812344545682553"><ele>31.666666666666664</ele><time>2026-05-01T08:19:50Z</time></trkpt><trkpt lat="43.73344470059886" lon="10.812110079532331"><ele>29.0</ele><time>2026-05-01T08:19:51Z</time></trkpt><trkpt lat="43.733506148695675" lon="10.811868761480318"><ele>32.666666666666664</ele><time>2026-05-01T08:19:51.999Z</time></trkpt><trkpt lat="43.73356879128435" lon="10.811624807453235"><ele>36.333333333333336</ele><time>2026-05-01T08:19:52.999Z</time></trkpt><trkpt lat="43.73363232917172" lon="10.811375819261151"><ele>40.0</ele><time>2026-05-01T08:19:53.999Z</time></trkpt><trkpt lat="43.7336994880928" lon="10.811124888928925"><ele>36.66666666666667</ele><time>2026-05-01T08:19:54.999Z</time></trkpt><trkpt lat="43.733774024423646" lon="10.810872418332362"><ele>33.333333333333336</ele><time>2026-05-01T08:19:55.999Z</time></trkpt><trkpt lat="43.733858278344194" lon="10.810626134800906"><ele>30.0</ele><time>2026-05-01T08:19:56.999Z</time></trkpt><trkpt lat="43.733945159886375" lon="10.810387328883571"><ele>27.666666666666668</ele><time>2026-05-01T08:19:57.999Z</time></trkpt><trkpt lat="43.73403115148995" lon="10.810153468004115"><ele>25.333333333333336</ele><time>2026-05-01T08:19:58.999Z</time></trkpt><trkpt lat="43.73411553125922" lon="10.809935996136037"><ele>23.0</ele><time>2026-05-01T08:19:59.999Z</time></trkpt><trkpt lat="43.734196662271344" lon="10.80974182756407"><ele>23.0</ele><time>2026-05-01T08:20:00.999Z</time></trkpt><trkpt lat="43.734277116813246" lon="10.809557079715386"><ele>23.0</ele><time>2026-05-01T08:20:01.999Z</time></trkpt><trkpt lat="43.7343626499816" lon="10.809382660174212"><ele>23.0</ele><time>2026-05-01T08:20:02.999Z</time></trkpt><trkpt lat="43.7344376775496" lon="10.809227722497972"><ele>23.0</ele><time>2026-05-01T08:20:03.999Z</time></trkpt><trkpt lat="43.734514171031776" lon="10.809086217352908"><ele>23.2</ele><time>2026-05-01T08:20:04.999Z</time></trkpt><trkpt lat="43.734579470172136" lon="10.8089498954761"><ele>23.4</ele><time>2026-05-01T08:20:05.999Z</time></trkpt><trkpt lat="43.734640500842985" lon="10.808821953587492"><ele>23.599999999999998</ele><time>2026-05-01T08:20:06.999Z</time></trkpt><trkpt lat="43.73470699366898" lon="10.808703969665016"><ele>23.799999999999997</ele><time>2026-05-01T08:20:07.999Z</time></trkpt><trkpt lat="43.73476632905353" lon="10.808603111049349"><ele>24.0</ele><time>2026-05-01T08:20:08.999Z</time></trkpt><trkpt lat="43.73482396788351" lon="10.808505306670389"><ele>23.666666666666668</ele><time>2026-05-01T08:20:09.999Z</time></trkpt><trkpt lat="43.73487920469861" lon="10.808425828765412"><ele>23.333333333333332</ele><time>2026-05-01T08:20:10.999Z</time></trkpt><trkpt lat="43.73496530155667" lon="10.808343219412757"><ele>23.0</ele><time>2026-05-01T08:20:12.999Z</time></trkpt><trkpt lat="43.73506339293646" lon="10.808303852674246"><ele>22.666666666666664</ele><time>2026-05-01T08:20:14.999Z</time></trkpt><trkpt lat="43.73512945724964" lon="10.808282884881592"><ele>22.333333333333332</ele><time>2026-05-01T08:20:15.999Z</time></trkpt><trkpt lat="43.73520685719868" lon="10.808251704525711"><ele>22.0</ele><time>2026-05-01T08:20:16.999Z</time></trkpt><trkpt lat="43.73526959503605" lon="10.808184495594515"><ele>22.0</ele><time>2026-05-01T08:20:17.999Z</time></trkpt><trkpt lat="43.73530622834884" lon="10.808075830636986"><ele>22.0</ele><time>2026-05-01T08:20:18.999Z</time></trkpt><trkpt lat="43.73531789307816" lon="10.80793922877692"><ele>22.0</ele><time>2026-05-01T08:20:19.999Z</time></trkpt><trkpt lat="43.73530974644059" lon="10.807782856197946"><ele>22.0</ele><time>2026-05-01T08:20:20.999Z</time></trkpt><trkpt lat="43.73531004227339" lon="10.80765271810026"><ele>22.0</ele><time>2026-05-01T08:20:21.999Z</time></trkpt><trkpt lat="43.73535108735261" lon="10.807505621728206"><ele>22.5</ele><time>2026-05-01T08:20:22.999Z</time></trkpt><trkpt lat="43.735430988567124" lon="10.807359847936862"><ele>23.0</ele><time>2026-05-01T08:20:23.999Z</time></trkpt><trkpt lat="43.7355318954691" lon="10.807223387117116"><ele>23.5</ele><time>2026-05-01T08:20:24.999Z</time></trkpt><trkpt lat="43.73562870714083" lon="10.807075845856764"><ele>24.0</ele><time>2026-05-01T08:20:25.999Z</time></trkpt><trkpt lat="43.73570417397488" lon="10.806943426817122"><ele>23.0</ele><time>2026-05-01T08:20:26.999Z</time></trkpt><trkpt lat="43.735786568020025" lon="10.806803053598092"><ele>22.0</ele><time>2026-05-01T08:20:27.999Z</time></trkpt><trkpt lat="43.735875184509325" lon="10.806660886845311"><ele>21.0</ele><time>2026-05-01T08:20:28.999Z</time></trkpt><trkpt lat="43.73596592731563" lon="10.806508671343675"><ele>20.0</ele><time>2026-05-01T08:20:29.999Z</time></trkpt><trkpt lat="43.73605487039013" lon="10.806351985629302"><ele>20.0</ele><time>2026-05-01T08:20:30.999Z</time></trkpt><trkpt lat="43.73614498067399" lon="10.806202164914971"><ele>20.0</ele><time>2026-05-01T08:20:31.999Z</time></trkpt><trkpt lat="43.73622940178606" lon="10.80605015845678"><ele>20.0</ele><time>2026-05-01T08:20:32.999Z</time></trkpt><trkpt lat="43.73632197328258" lon="10.80589345966171"><ele>20.0</ele><time>2026-05-01T08:20:33.999Z</time></trkpt><trkpt lat="43.736420290034516" lon="10.805730109856402"><ele>19.333333333333336</ele><time>2026-05-01T08:20:34.999Z</time></trkpt><trkpt lat="43.73651681626336" lon="10.805573484591658"><ele>18.666666666666668</ele><time>2026-05-01T08:20:35.998Z</time></trkpt><trkpt lat="43.73661677812451" lon="10.805407272253232"><ele>18.0</ele><time>2026-05-01T08:20:36.998Z</time></trkpt><trkpt lat="43.73671136956848" lon="10.805238672553111"><ele>17.333333333333332</ele><time>2026-05-01T08:20:37.998Z</time></trkpt><trkpt lat="43.73680052260638" lon="10.805075260435123"><ele>16.666666666666664</ele><time>2026-05-01T08:20:38.998Z</time></trkpt><trkpt lat="43.736888058186146" lon="10.804897997494246"><ele>16.0</ele><time>2026-05-01T08:20:39.998Z</time></trkpt><trkpt lat="43.7369627184817" lon="10.804707673041204"><ele>16.0</ele><time>2026-05-01T08:20:40.998Z</time></trkpt><trkpt lat="43.73703071340493" lon="10.804497095614694"><ele>16.0</ele><time>2026-05-01T08:20:41.998Z</time></trkpt><trkpt lat="43.73709297807497" lon="10.804280995806469"><ele>16.0</ele><time>2026-05-01T08:20:42.998Z</time></trkpt><trkpt lat="43.73714786028852" lon="10.804061446969525"><ele>16.0</ele><time>2026-05-01T08:20:43.998Z</time></trkpt><trkpt lat="43.73719291340455" lon="10.803832491769072"><ele>16.0</ele><time>2026-05-01T08:20:44.998Z</time></trkpt><trkpt lat="43.737229453977015" lon="10.803593708538957"><ele>16.0</ele><time>2026-05-01T08:20:45.998Z</time></trkpt><trkpt lat="43.73725765351303" lon="10.80335073557192"><ele>15.666666666666666</ele><time>2026-05-01T08:20:46.998Z</time></trkpt><trkpt lat="43.73726867267508" lon="10.803119467291522"><ele>15.333333333333332</ele><time>2026-05-01T08:20:47.998Z</time></trkpt><trkpt lat="43.73727251074145" lon="10.802907308124793"><ele>15.0</ele><time>2026-05-01T08:20:48.998Z</time></trkpt><trkpt lat="43.73726920263092" lon="10.802713291355959"><ele>15.0</ele><time>2026-05-01T08:20:49.998Z</time></trkpt><trkpt lat="43.73726245275301" lon="10.802535496335535"><ele>15.0</ele><time>2026-05-01T08:20:50.998Z</time></trkpt><trkpt lat="43.73725529024245" lon="10.802387510949925"><ele>15.0</ele><time>2026-05-01T08:20:51.998Z</time></trkpt><trkpt lat="43.73724752261702" lon="10.802249569719862"><ele>15.0</ele><time>2026-05-01T08:20:52.998Z</time></trkpt><trkpt lat="43.737241927225874" lon="10.802116234189754"><ele>15.0</ele><time>2026-05-01T08:20:53.998Z</time></trkpt><trkpt lat="43.73724218300008" lon="10.802016692320224"><ele>15.0</ele><time>2026-05-01T08:20:54.998Z</time></trkpt><trkpt lat="43.73725402461463" lon="10.801923519899223"><ele>15.0</ele><time>2026-05-01T08:20:55.998Z</time></trkpt><trkpt lat="43.737281851019674" lon="10.801809998771631"><ele>15.0</ele><time>2026-05-01T08:20:56.998Z</time></trkpt><trkpt lat="43.737310135464156" lon="10.80168840117765"><ele>15.0</ele><time>2026-05-01T08:20:57.998Z</time></trkpt><trkpt lat="43.73730552239087" lon="10.801552053073971"><ele>15.0</ele><time>2026-05-01T08:20:58.998Z</time></trkpt><trkpt lat="43.737254477198476" lon="10.801420425915838"><ele>15.25</ele><time>2026-05-01T08:20:59.998Z</time></trkpt><trkpt lat="43.7371728698325" lon="10.801320088771359"><ele>15.5</ele><time>2026-05-01T08:21:00.998Z</time></trkpt><trkpt lat="43.73716674039661" lon="10.801131264244018"><ele>15.75</ele><time>2026-05-01T08:21:01.998Z</time></trkpt><trkpt lat="43.737176488465074" lon="10.800951200982485"><ele>16.0</ele><time>2026-05-01T08:21:02.998Z</time></trkpt><trkpt lat="43.737182924448724" lon="10.800753541522457"><ele>16.333333333333332</ele><time>2026-05-01T08:21:03.998Z</time></trkpt><trkpt lat="43.737169967991285" lon="10.800536974858803"><ele>16.666666666666668</ele><time>2026-05-01T08:21:04.998Z</time></trkpt><trkpt lat="43.737156145594106" lon="10.800329977559688"><ele>17.0</ele><time>2026-05-01T08:21:05.998Z</time></trkpt><trkpt lat="43.73715243278549" lon="10.800124469700908"><ele>17.0</ele><time>2026-05-01T08:21:06.998Z</time></trkpt><trkpt lat="43.737150168786236" lon="10.799897114923281"><ele>17.0</ele><time>2026-05-01T08:21:07.998Z</time></trkpt><trkpt lat="43.73714734456965" lon="10.799676512024668"><ele>17.0</ele><time>2026-05-01T08:21:08.998Z</time></trkpt><trkpt lat="43.73715653018206" lon="10.799460344544663"><ele>17.0</ele><time>2026-05-01T08:21:09.998Z</time></trkpt><trkpt lat="43.73717762371935" lon="10.799246201868515"><ele>17.0</ele><time>2026-05-01T08:21:10.998Z</time></trkpt><trkpt lat="43.73721147139099" lon="10.799022213876203"><ele>17.0</ele><time>2026-05-01T08:21:11.998Z</time></trkpt><trkpt lat="43.73725822404076" lon="10.798799684524555"><ele>17.0</ele><time>2026-05-01T08:21:12.998Z</time></trkpt><trkpt lat="43.73731253811926" lon="10.798577493158875"><ele>17.0</ele><time>2026-05-01T08:21:13.998Z</time></trkpt><trkpt lat="43.737377337105265" lon="10.79835686002764"><ele>17.0</ele><time>2026-05-01T08:21:14.998Z</time></trkpt><trkpt lat="43.737457323564506" lon="10.798142236698443"><ele>16.666666666666668</ele><time>2026-05-01T08:21:15.998Z</time></trkpt><trkpt lat="43.73754815522745" lon="10.797935320161107"><ele>16.333333333333332</ele><time>2026-05-01T08:21:16.998Z</time></trkpt><trkpt lat="43.73764264807701" lon="10.79774452731552"><ele>16.0</ele><time>2026-05-01T08:21:17.998Z</time></trkpt><trkpt lat="43.73774636855521" lon="10.797556717874029"><ele>15.0</ele><time>2026-05-01T08:21:18.998Z</time></trkpt><trkpt lat="43.73786079705139" lon="10.797374633152314"><ele>14.0</ele><time>2026-05-01T08:21:19.998Z</time></trkpt><trkpt lat="43.73798045235595" lon="10.797189043885268"><ele>13.0</ele><time>2026-05-01T08:21:20.997Z</time></trkpt><trkpt lat="43.73809927323776" lon="10.796997523715751"><ele>13.666666666666666</ele><time>2026-05-01T08:21:21.997Z</time></trkpt><trkpt lat="43.73821525469193" lon="10.796800649985366"><ele>14.333333333333332</ele><time>2026-05-01T08:21:22.997Z</time></trkpt><trkpt lat="43.73833317279839" lon="10.796603987099271"><ele>15.0</ele><time>2026-05-01T08:21:23.997Z</time></trkpt><trkpt lat="43.73845068211262" lon="10.79640805654589"><ele>15.0</ele><time>2026-05-01T08:21:24.997Z</time></trkpt><trkpt lat="43.738568361289516" lon="10.79621423634"><ele>15.0</ele><time>2026-05-01T08:21:25.997Z</time></trkpt><trkpt lat="43.738687191451234" lon="10.796017710580537"><ele>15.0</ele><time>2026-05-01T08:21:26.997Z</time></trkpt><trkpt lat="43.738806274627876" lon="10.79582429003824"><ele>15.0</ele><time>2026-05-01T08:21:27.997Z</time></trkpt><trkpt lat="43.738923802966205" lon="10.795630155093887"><ele>15.0</ele><time>2026-05-01T08:21:28.997Z</time></trkpt><trkpt lat="43.739038061477125" lon="10.795433388156003"><ele>15.0</ele><time>2026-05-01T08:21:30Z</time></trkpt><trkpt lat="43.73915258341941" lon="10.795236487551739"><ele>15.0</ele><time>2026-05-01T08:21:31Z</time></trkpt><trkpt lat="43.73926842598529" lon="10.795045611201578"><ele>15.0</ele><time>2026-05-01T08:21:32Z</time></trkpt><trkpt lat="43.73938943265984" lon="10.794854208854598"><ele>15.0</ele><time>2026-05-01T08:21:33Z</time></trkpt><trkpt lat="43.73950996364646" lon="10.794663692331573"><ele>15.0</ele><time>2026-05-01T08:21:34Z</time></trkpt><trkpt lat="43.739628860321005" lon="10.794464641343371"><ele>15.0</ele><time>2026-05-01T08:21:35Z</time></trkpt><trkpt lat="43.73974753979394" lon="10.794262521621157"><ele>15.0</ele><time>2026-05-01T08:21:36Z</time></trkpt><trkpt lat="43.73986983410927" lon="10.794060381585167"><ele>14.333333333333332</ele><time>2026-05-01T08:21:37Z</time></trkpt><trkpt lat="43.73999650951118" lon="10.793853344741997"><ele>13.666666666666666</ele><time>2026-05-01T08:21:38Z</time></trkpt><trkpt lat="43.740119823707836" lon="10.793647564964127"><ele>13.0</ele><time>2026-05-01T08:21:39Z</time></trkpt><trkpt lat="43.74024362773064" lon="10.793437200429446"><ele>13.0</ele><time>2026-05-01T08:21:40Z</time></trkpt><trkpt lat="43.740369228716595" lon="10.793225180553762"><ele>13.0</ele><time>2026-05-01T08:21:41Z</time></trkpt><trkpt lat="43.740496794057194" lon="10.793016525183143"><ele>13.0</ele><time>2026-05-01T08:21:42Z</time></trkpt><trkpt lat="43.74062438592788" lon="10.792805612503383"><ele>12.666666666666666</ele><time>2026-05-01T08:21:43Z</time></trkpt><trkpt lat="43.74075761342861" lon="10.792584787490654"><ele>12.333333333333332</ele><time>2026-05-01T08:21:44Z</time></trkpt><trkpt lat="43.74088034228299" lon="10.792380151366428"><ele>12.0</ele><time>2026-05-01T08:21:45Z</time></trkpt><trkpt lat="43.741013359450555" lon="10.79215530234341"><ele>12.0</ele><time>2026-05-01T08:21:46Z</time></trkpt><trkpt lat="43.74114068623409" lon="10.791946275616544"><ele>12.0</ele><time>2026-05-01T08:21:47Z</time></trkpt><trkpt lat="43.74125810734883" lon="10.791754898496684"><ele>12.0</ele><time>2026-05-01T08:21:48Z</time></trkpt><trkpt lat="43.741379677079784" lon="10.791557370020687"><ele>12.0</ele><time>2026-05-01T08:21:49Z</time></trkpt><trkpt lat="43.741498730121414" lon="10.79136033129894"><ele>12.0</ele><time>2026-05-01T08:21:50Z</time></trkpt><trkpt lat="43.74161809089643" lon="10.791161942383933"><ele>12.0</ele><time>2026-05-01T08:21:51Z</time></trkpt><trkpt lat="43.74173709390658" lon="10.790966832877439"><ele>12.0</ele><time>2026-05-01T08:21:52Z</time></trkpt><trkpt lat="43.74185596073561" lon="10.790767347723369"><ele>12.0</ele><time>2026-05-01T08:21:53Z</time></trkpt><trkpt lat="43.741972435909446" lon="10.790570732918855"><ele>12.0</ele><time>2026-05-01T08:21:54Z</time></trkpt><trkpt lat="43.742086116824126" lon="10.790369257848717"><ele>12.666666666666668</ele><time>2026-05-01T08:21:55Z</time></trkpt><trkpt lat="43.742193280172756" lon="10.79015953795149"><ele>13.333333333333334</ele><time>2026-05-01T08:21:56Z</time></trkpt><trkpt lat="43.742281575191996" lon="10.789943508124603"><ele>14.0</ele><time>2026-05-01T08:21:57Z</time></trkpt><trkpt lat="43.7423585189439" lon="10.789720794606206"><ele>14.0</ele><time>2026-05-01T08:21:58Z</time></trkpt><trkpt lat="43.74243309604564" lon="10.789504872602693"><ele>14.0</ele><time>2026-05-01T08:21:59Z</time></trkpt><trkpt lat="43.74250627889822" lon="10.789284004166554"><ele>14.0</ele><time>2026-05-01T08:21:59.999Z</time></trkpt><trkpt lat="43.74257071389134" lon="10.789054842789305"><ele>14.0</ele><time>2026-05-01T08:22:00.999Z</time></trkpt><trkpt lat="43.74262745873887" lon="10.788819004141818"><ele>14.0</ele><time>2026-05-01T08:22:01.999Z</time></trkpt><trkpt lat="43.74267730416176" lon="10.788581088465085"><ele>14.0</ele><time>2026-05-01T08:22:02.999Z</time></trkpt><trkpt lat="43.74271932784596" lon="10.788338685864261"><ele>13.666666666666668</ele><time>2026-05-01T08:22:03.999Z</time></trkpt><trkpt lat="43.74275279733562" lon="10.788095101841925"><ele>13.333333333333332</ele><time>2026-05-01T08:22:04.999Z</time></trkpt><trkpt lat="43.74277694295132" lon="10.787877046676652"><ele>13.0</ele><time>2026-05-01T08:22:05.999Z</time></trkpt><trkpt lat="43.74279660298651" lon="10.787663939200607"><ele>12.666666666666666</ele><time>2026-05-01T08:22:06.999Z</time></trkpt><trkpt lat="43.74280786650119" lon="10.787444733538695"><ele>12.333333333333332</ele><time>2026-05-01T08:22:07.999Z</time></trkpt><trkpt lat="43.74281238960945" lon="10.787210365571626"><ele>12.0</ele><time>2026-05-01T08:22:08.999Z</time></trkpt><trkpt lat="43.742806235314774" lon="10.786978266494925"><ele>12.0</ele><time>2026-05-01T08:22:09.999Z</time></trkpt><trkpt lat="43.742796626243766" lon="10.786746241760381"><ele>12.0</ele><time>2026-05-01T08:22:10.999Z</time></trkpt><trkpt lat="43.74278612686375" lon="10.78650670707633"><ele>12.0</ele><time>2026-05-01T08:22:11.999Z</time></trkpt><trkpt lat="43.742765275172886" lon="10.786264151839154"><ele>12.0</ele><time>2026-05-01T08:22:12.999Z</time></trkpt><trkpt lat="43.742731241943986" lon="10.786020544446245"><ele>12.0</ele><time>2026-05-01T08:22:13.999Z</time></trkpt><trkpt lat="43.74268371613776" lon="10.785778198212627"><ele>12.0</ele><time>2026-05-01T08:22:14.999Z</time></trkpt><trkpt lat="43.74263525061278" lon="10.785555805864567"><ele>12.0</ele><time>2026-05-01T08:22:15.999Z</time></trkpt><trkpt lat="43.74258921791144" lon="10.785350011623523"><ele>12.0</ele><time>2026-05-01T08:22:16.999Z</time></trkpt><trkpt lat="43.74254024593753" lon="10.785154589981238"><ele>12.0</ele><time>2026-05-01T08:22:17.999Z</time></trkpt><trkpt lat="43.742487762011166" lon="10.784978406958233"><ele>12.0</ele><time>2026-05-01T08:22:18.999Z</time></trkpt><trkpt lat="43.74243333881879" lon="10.784819750025964"><ele>12.2</ele><time>2026-05-01T08:22:19.999Z</time></trkpt><trkpt lat="43.74238038106366" lon="10.784668659321756"><ele>12.399999999999999</ele><time>2026-05-01T08:22:20.999Z</time></trkpt><trkpt lat="43.74232494800037" lon="10.784521856326016"><ele>12.600000000000001</ele><time>2026-05-01T08:22:21.999Z</time></trkpt><trkpt lat="43.74226899433449" lon="10.784382844388634"><ele>12.8</ele><time>2026-05-01T08:22:22.999Z</time></trkpt><trkpt lat="43.74222164090631" lon="10.784271463791697"><ele>13.0</ele><time>2026-05-01T08:22:23.999Z</time></trkpt><trkpt lat="43.74217744355187" lon="10.784169548711946"><ele>13.2</ele><time>2026-05-01T08:22:24.999Z</time></trkpt><trkpt lat="43.74213874315184" lon="10.784070008195563"><ele>13.4</ele><time>2026-05-01T08:22:25.999Z</time></trkpt><trkpt lat="43.742104907707215" lon="10.783949505352869"><ele>13.599999999999998</ele><time>2026-05-01T08:22:26.999Z</time></trkpt><trkpt lat="43.74209489958693" lon="10.78382068104874"><ele>13.799999999999999</ele><time>2026-05-01T08:22:27.999Z</time></trkpt><trkpt lat="43.74209097860765" lon="10.783670664440402"><ele>14.0</ele><time>2026-05-01T08:22:28.999Z</time></trkpt><trkpt lat="43.74206601954525" lon="10.783552678173443"><ele>14.399999999999999</ele><time>2026-05-01T08:22:29.999Z</time></trkpt><trkpt lat="43.742001837418854" lon="10.783463266717739"><ele>14.799999999999999</ele><time>2026-05-01T08:22:30.999Z</time></trkpt><trkpt lat="43.74190406524221" lon="10.783391492247116"><ele>15.200000000000001</ele><time>2026-05-01T08:22:31.999Z</time></trkpt><trkpt lat="43.741787621904955" lon="10.783355702019094"><ele>15.600000000000001</ele><time>2026-05-01T08:22:32.999Z</time></trkpt><trkpt lat="43.74167532154514" lon="10.783292044364154"><ele>16.0</ele><time>2026-05-01T08:22:33.999Z</time></trkpt><trkpt lat="43.741571858633655" lon="10.783161326319437"><ele>16.333333333333332</ele><time>2026-05-01T08:22:34.999Z</time></trkpt><trkpt lat="43.74146647787793" lon="10.78300226105948"><ele>16.666666666666668</ele><time>2026-05-01T08:22:35.999Z</time></trkpt><trkpt lat="43.74136989506142" lon="10.782860966762536"><ele>17.0</ele><time>2026-05-01T08:22:36.999Z</time></trkpt><trkpt lat="43.7412538619198" lon="10.782706113236083"><ele>16.75</ele><time>2026-05-01T08:22:37.999Z</time></trkpt><trkpt lat="43.74114009196275" lon="10.782554371312864"><ele>16.5</ele><time>2026-05-01T08:22:38.999Z</time></trkpt><trkpt lat="43.741039048341555" lon="10.782417791371916"><ele>16.25</ele><time>2026-05-01T08:22:39.999Z</time></trkpt><trkpt lat="43.74094681510712" lon="10.782292074070295"><ele>16.0</ele><time>2026-05-01T08:22:40.999Z</time></trkpt><trkpt lat="43.74086175987488" lon="10.782175241514345"><ele>16.400000000000002</ele><time>2026-05-01T08:22:41.999Z</time></trkpt><trkpt lat="43.74076702372784" lon="10.782059396220617"><ele>16.8</ele><time>2026-05-01T08:22:42.999Z</time></trkpt><trkpt lat="43.74068335287579" lon="10.781953471534454"><ele>17.200000000000003</ele><time>2026-05-01T08:22:43.999Z</time></trkpt><trkpt lat="43.74060709094798" lon="10.781851146111304"><ele>17.6</ele><time>2026-05-01T08:22:44.999Z</time></trkpt><trkpt lat="43.740538571509894" lon="10.781753794424557"><ele>18.0</ele><time>2026-05-01T08:22:45.999Z</time></trkpt><trkpt lat="43.7404769784488" lon="10.781665833139844"><ele>18.0</ele><time>2026-05-01T08:22:46.998Z</time></trkpt><trkpt lat="43.7404075572802" lon="10.7815615075577"><ele>18.0</ele><time>2026-05-01T08:22:47.998Z</time></trkpt><trkpt lat="43.740354294425046" lon="10.781431439988419"><ele>18.0</ele><time>2026-05-01T08:22:48.998Z</time></trkpt><trkpt lat="43.740339704074444" lon="10.781268469298096"><ele>18.0</ele><time>2026-05-01T08:22:49.998Z</time></trkpt><trkpt lat="43.74033162659041" lon="10.781105604473607"><ele>18.0</ele><time>2026-05-01T08:22:50.998Z</time></trkpt><trkpt lat="43.740302432947914" lon="10.78097600016065"><ele>17.75</ele><time>2026-05-01T08:22:51.998Z</time></trkpt><trkpt lat="43.74021953009442" lon="10.780891732227905"><ele>17.5</ele><time>2026-05-01T08:22:52.998Z</time></trkpt><trkpt lat="43.74010747706033" lon="10.78084457039422"><ele>17.25</ele><time>2026-05-01T08:22:53.998Z</time></trkpt><trkpt lat="43.73998183889622" lon="10.780841014390823"><ele>17.0</ele><time>2026-05-01T08:22:54.998Z</time></trkpt><trkpt lat="43.73976519341405" lon="10.780719750496468"><ele>16.5</ele><time>2026-05-01T08:22:56.998Z</time></trkpt><trkpt lat="43.73967145963705" lon="10.780564429442764"><ele>16.0</ele><time>2026-05-01T08:22:57.998Z</time></trkpt><trkpt lat="43.73958727512148" lon="10.780417198760738"><ele>15.5</ele><time>2026-05-01T08:22:58.998Z</time></trkpt><trkpt lat="43.73948377267978" lon="10.780273881490281"><ele>15.0</ele><time>2026-05-01T08:22:59.998Z</time></trkpt><trkpt lat="43.739364234880085" lon="10.780133083585183"><ele>14.666666666666668</ele><time>2026-05-01T08:23:00.998Z</time></trkpt><trkpt lat="43.73924525107674" lon="10.779967183062004"><ele>14.333333333333334</ele><time>2026-05-01T08:23:01.998Z</time></trkpt><trkpt lat="43.73912575645974" lon="10.779801589970518"><ele>14.0</ele><time>2026-05-01T08:23:02.998Z</time></trkpt><trkpt lat="43.739006537670775" lon="10.779646723856686"><ele>14.0</ele><time>2026-05-01T08:23:03.998Z</time></trkpt><trkpt lat="43.738878028116346" lon="10.77947711041276"><ele>14.0</ele><time>2026-05-01T08:23:04.998Z</time></trkpt><trkpt lat="43.73874759108703" lon="10.77929793044511"><ele>14.0</ele><time>2026-05-01T08:23:05.998Z</time></trkpt><trkpt lat="43.73861009692279" lon="10.779109814383258"><ele>14.666666666666668</ele><time>2026-05-01T08:23:06.998Z</time></trkpt><trkpt lat="43.73847605925792" lon="10.778929587124637"><ele>15.333333333333332</ele><time>2026-05-01T08:23:07.998Z</time></trkpt><trkpt lat="43.73833864337053" lon="10.778745923740448"><ele>16.0</ele><time>2026-05-01T08:23:08.998Z</time></trkpt><trkpt lat="43.738186151599066" lon="10.778536511789424"><ele>15.666666666666666</ele><time>2026-05-01T08:23:09.998Z</time></trkpt><trkpt lat="43.738040712312134" lon="10.778332432727762"><ele>15.333333333333332</ele><time>2026-05-01T08:23:10.998Z</time></trkpt><trkpt lat="43.73790871122987" lon="10.778152956358324"><ele>15.0</ele><time>2026-05-01T08:23:11.998Z</time></trkpt><trkpt lat="43.73778229486302" lon="10.77798087548791"><ele>15.0</ele><time>2026-05-01T08:23:12.998Z</time></trkpt><trkpt lat="43.73765221486777" lon="10.777802924949242"><ele>15.0</ele><time>2026-05-01T08:23:13.998Z</time></trkpt><trkpt lat="43.73751815709364" lon="10.777620628524058"><ele>15.0</ele><time>2026-05-01T08:23:14.998Z</time></trkpt><trkpt lat="43.73738673122484" lon="10.777437742366521"><ele>15.0</ele><time>2026-05-01T08:23:15.998Z</time></trkpt><trkpt lat="43.73726512470429" lon="10.77725917702665"><ele>15.0</ele><time>2026-05-01T08:23:16.998Z</time></trkpt><trkpt lat="43.73714952555669" lon="10.777090729397882"><ele>15.0</ele><time>2026-05-01T08:23:17.998Z</time></trkpt><trkpt lat="43.737043218006555" lon="10.77692974005549"><ele>15.25</ele><time>2026-05-01T08:23:18.998Z</time></trkpt><trkpt lat="43.73693761698557" lon="10.776769081479609"><ele>15.5</ele><time>2026-05-01T08:23:19.998Z</time></trkpt><trkpt lat="43.73684648006207" lon="10.776618420141414"><ele>15.75</ele><time>2026-05-01T08:23:20.998Z</time></trkpt><trkpt lat="43.73675246577775" lon="10.776463815142336"><ele>16.0</ele><time>2026-05-01T08:23:21.998Z</time></trkpt><trkpt lat="43.736672543934766" lon="10.776320835548171"><ele>15.75</ele><time>2026-05-01T08:23:22.998Z</time></trkpt><trkpt lat="43.73659895959877" lon="10.776189982470402"><ele>15.5</ele><time>2026-05-01T08:23:23.998Z</time></trkpt><trkpt lat="43.73651940793338" lon="10.776047496266184"><ele>15.25</ele><time>2026-05-01T08:23:24.998Z</time></trkpt><trkpt lat="43.73643211604909" lon="10.775880578946074"><ele>15.0</ele><time>2026-05-01T08:23:25.998Z</time></trkpt><trkpt lat="43.73634347402775" lon="10.77572839390414"><ele>15.0</ele><time>2026-05-01T08:23:26.998Z</time></trkpt><trkpt lat="43.736262140395" lon="10.775561799087775"><ele>15.0</ele><time>2026-05-01T08:23:27.998Z</time></trkpt><trkpt lat="43.73618519567799" lon="10.775414631889468"><ele>15.0</ele><time>2026-05-01T08:23:28.998Z</time></trkpt><trkpt lat="43.73611606689325" lon="10.775270112214246"><ele>15.0</ele><time>2026-05-01T08:23:29.998Z</time></trkpt><trkpt lat="43.736057827722" lon="10.775137477745679"><ele>14.8</ele><time>2026-05-01T08:23:30.998Z</time></trkpt><trkpt lat="43.73600750139785" lon="10.774999095822734"><ele>14.6</ele><time>2026-05-01T08:23:31.998Z</time></trkpt><trkpt lat="43.73597077437865" lon="10.774864414844897"><ele>14.399999999999999</ele><time>2026-05-01T08:23:32.997Z</time></trkpt><trkpt lat="43.73594690406164" lon="10.774749599247958"><ele>14.2</ele><time>2026-05-01T08:23:33.997Z</time></trkpt><trkpt lat="43.73593149961043" lon="10.774641526014827"><ele>14.0</ele><time>2026-05-01T08:23:34.997Z</time></trkpt><trkpt lat="43.735928797531216" lon="10.774545697826168"><ele>14.0</ele><time>2026-05-01T08:23:36Z</time></trkpt><trkpt lat="43.73593875368322" lon="10.774427514974162"><ele>13.999999999999998</ele><time>2026-05-01T08:23:37Z</time></trkpt><trkpt lat="43.73595167658455" lon="10.774304333499268"><ele>13.999999999999998</ele><time>2026-05-01T08:23:38Z</time></trkpt><trkpt lat="43.735943514197224" lon="10.774192488651593"><ele>14.0</ele><time>2026-05-01T08:23:39Z</time></trkpt><trkpt lat="43.73588536589898" lon="10.774089854711821"><ele>14.0</ele><time>2026-05-01T08:23:40Z</time></trkpt><trkpt lat="43.73578464015631" lon="10.77401770660316"><ele>13.75</ele><time>2026-05-01T08:23:41Z</time></trkpt><trkpt lat="43.73566269399244" lon="10.77397163313142"><ele>13.5</ele><time>2026-05-01T08:23:42Z</time></trkpt><trkpt lat="43.73556015549742" lon="10.773892425928066"><ele>13.25</ele><time>2026-05-01T08:23:43Z</time></trkpt><trkpt lat="43.735471166465345" lon="10.773754279095659"><ele>13.0</ele><time>2026-05-01T08:23:44Z</time></trkpt><trkpt lat="43.735395586834684" lon="10.77357046398918"><ele>13.0</ele><time>2026-05-01T08:23:45Z</time></trkpt><trkpt lat="43.735334732094564" lon="10.77338467660945"><ele>13.0</ele><time>2026-05-01T08:23:46Z</time></trkpt><trkpt lat="43.735248750886925" lon="10.773159761244749"><ele>13.0</ele><time>2026-05-01T08:23:47Z</time></trkpt><trkpt lat="43.73516622320967" lon="10.772928597051868"><ele>13.333333333333332</ele><time>2026-05-01T08:23:48Z</time></trkpt><trkpt lat="43.735083481388486" lon="10.77268824218232"><ele>13.666666666666668</ele><time>2026-05-01T08:23:49Z</time></trkpt><trkpt lat="43.73499941278024" lon="10.772451621027761"><ele>14.0</ele><time>2026-05-01T08:23:50Z</time></trkpt><trkpt lat="43.73492025705427" lon="10.772245739506529"><ele>14.0</ele><time>2026-05-01T08:23:51Z</time></trkpt><trkpt lat="43.73484594029202" lon="10.77204507710039"><ele>14.0</ele><time>2026-05-01T08:23:52Z</time></trkpt><trkpt lat="43.734772914310476" lon="10.771840861313658"><ele>14.0</ele><time>2026-05-01T08:23:53Z</time></trkpt><trkpt lat="43.734697086893654" lon="10.771641223121037"><ele>14.0</ele><time>2026-05-01T08:23:54Z</time></trkpt><trkpt lat="43.73462960587348" lon="10.771464576527613"><ele>14.0</ele><time>2026-05-01T08:23:55Z</time></trkpt><trkpt lat="43.73456466052741" lon="10.771292163158721"><ele>14.0</ele><time>2026-05-01T08:23:56Z</time></trkpt><trkpt lat="43.73450298501066" lon="10.771125731124542"><ele>14.0</ele><time>2026-05-01T08:23:57Z</time></trkpt><trkpt lat="43.73443622114782" lon="10.770948783245087"><ele>13.666666666666668</ele><time>2026-05-01T08:23:58Z</time></trkpt><trkpt lat="43.73436535444274" lon="10.770756747381258"><ele>13.333333333333332</ele><time>2026-05-01T08:23:59Z</time></trkpt><trkpt lat="43.73429271135325" lon="10.77056682029903"><ele>13.0</ele><time>2026-05-01T08:24:00Z</time></trkpt><trkpt lat="43.734222652039534" lon="10.770373335691486"><ele>13.666666666666666</ele><time>2026-05-01T08:24:01Z</time></trkpt><trkpt lat="43.734153600752" lon="10.77017921042137"><ele>14.333333333333332</ele><time>2026-05-01T08:24:02Z</time></trkpt><trkpt lat="43.73408816191858" lon="10.769989261468679"><ele>15.0</ele><time>2026-05-01T08:24:03Z</time></trkpt><trkpt lat="43.73402058838939" lon="10.769807514691053"><ele>15.0</ele><time>2026-05-01T08:24:03.999Z</time></trkpt><trkpt lat="43.73395316322417" lon="10.769630674219927"><ele>15.0</ele><time>2026-05-01T08:24:04.999Z</time></trkpt><trkpt lat="43.73388129557508" lon="10.769442744766163"><ele>15.0</ele><time>2026-05-01T08:24:05.999Z</time></trkpt><trkpt lat="43.733811199485636" lon="10.769260693977452"><ele>15.0</ele><time>2026-05-01T08:24:06.999Z</time></trkpt><trkpt lat="43.73374516280869" lon="10.7690784734345"><ele>15.0</ele><time>2026-05-01T08:24:07.999Z</time></trkpt><trkpt lat="43.73368118356151" lon="10.768898919252559"><ele>15.0</ele><time>2026-05-01T08:24:08.999Z</time></trkpt><trkpt lat="43.73361358512736" lon="10.768718646132568"><ele>15.0</ele><time>2026-05-01T08:24:09.999Z</time></trkpt><trkpt lat="43.733545404993" lon="10.768536771695922"><ele>15.0</ele><time>2026-05-01T08:24:10.999Z</time></trkpt><trkpt lat="43.73347905208933" lon="10.768356287081582"><ele>15.0</ele><time>2026-05-01T08:24:11.999Z</time></trkpt><trkpt lat="43.7334120217519" lon="10.768174940000113"><ele>15.0</ele><time>2026-05-01T08:24:12.999Z</time></trkpt><trkpt lat="43.7333460890217" lon="10.767989604494227"><ele>15.0</ele><time>2026-05-01T08:24:13.999Z</time></trkpt><trkpt lat="43.73327242962799" lon="10.767794527254688"><ele>15.0</ele><time>2026-05-01T08:24:14.999Z</time></trkpt><trkpt lat="43.73320416028049" lon="10.767612769914717"><ele>15.0</ele><time>2026-05-01T08:24:15.999Z</time></trkpt><trkpt lat="43.73313130295538" lon="10.767428283536288"><ele>15.0</ele><time>2026-05-01T08:24:16.999Z</time></trkpt><trkpt lat="43.733062542921104" lon="10.767245532797888"><ele>15.0</ele><time>2026-05-01T08:24:17.999Z</time></trkpt><trkpt lat="43.73299209157651" lon="10.767067574718276"><ele>15.0</ele><time>2026-05-01T08:24:18.999Z</time></trkpt><trkpt lat="43.73293478289742" lon="10.76690684737626"><ele>15.0</ele><time>2026-05-01T08:24:19.999Z</time></trkpt><trkpt lat="43.73287689222393" lon="10.76674001876446"><ele>15.0</ele><time>2026-05-01T08:24:20.999Z</time></trkpt><trkpt lat="43.73281793251173" lon="10.766572476014266"><ele>15.0</ele><time>2026-05-01T08:24:21.999Z</time></trkpt><trkpt lat="43.73275477517353" lon="10.76640477409446"><ele>15.0</ele><time>2026-05-01T08:24:22.999Z</time></trkpt><trkpt lat="43.73269647042868" lon="10.766250128282776"><ele>15.0</ele><time>2026-05-01T08:24:23.999Z</time></trkpt><trkpt lat="43.73264431773723" lon="10.766107390758819"><ele>15.0</ele><time>2026-05-01T08:24:24.999Z</time></trkpt><trkpt lat="43.732595222179285" lon="10.765973195234883"><ele>15.0</ele><time>2026-05-01T08:24:25.999Z</time></trkpt><trkpt lat="43.732543079494654" lon="10.765837258731294"><ele>15.0</ele><time>2026-05-01T08:24:26.999Z</time></trkpt><trkpt lat="43.73249415144513" lon="10.76570676487964"><ele>15.0</ele><time>2026-05-01T08:24:27.999Z</time></trkpt><trkpt lat="43.732448660182484" lon="10.765582515748047"><ele>15.0</ele><time>2026-05-01T08:24:28.999Z</time></trkpt><trkpt lat="43.732404358190365" lon="10.76546815788666"><ele>15.0</ele><time>2026-05-01T08:24:29.999Z</time></trkpt><trkpt lat="43.73236176566656" lon="10.765358455208597"><ele>15.0</ele><time>2026-05-01T08:24:30.999Z</time></trkpt><trkpt lat="43.73232087744766" lon="10.765256783470182"><ele>15.166666666666666</ele><time>2026-05-01T08:24:31.999Z</time></trkpt><trkpt lat="43.73228160268903" lon="10.76515741348314"><ele>15.333333333333332</ele><time>2026-05-01T08:24:32.999Z</time></trkpt><trkpt lat="43.732245224799044" lon="10.76506582771877"><ele>15.5</ele><time>2026-05-01T08:24:33.999Z</time></trkpt><trkpt lat="43.73220909334454" lon="10.764977708024572"><ele>15.666666666666666</ele><time>2026-05-01T08:24:34.999Z</time></trkpt><trkpt lat="43.73216642373853" lon="10.76488648123553"><ele>15.833333333333332</ele><time>2026-05-01T08:24:35.999Z</time></trkpt><trkpt lat="43.73212409957775" lon="10.764804335095002"><ele>16.0</ele><time>2026-05-01T08:24:36.999Z</time></trkpt><trkpt lat="43.73208342135327" lon="10.764723732591976"><ele>16.0</ele><time>2026-05-01T08:24:37.999Z</time></trkpt><trkpt lat="43.73203383414087" lon="10.764630156962141"><ele>16.0</ele><time>2026-05-01T08:24:38.999Z</time></trkpt><trkpt lat="43.73197994836788" lon="10.764531859619188"><ele>16.0</ele><time>2026-05-01T08:24:39.999Z</time></trkpt><trkpt lat="43.73191998460594" lon="10.76442183480439"><ele>16.0</ele><time>2026-05-01T08:24:40.999Z</time></trkpt><trkpt lat="43.7318541897643" lon="10.764291791096158"><ele>16.0</ele><time>2026-05-01T08:24:41.999Z</time></trkpt><trkpt lat="43.73178747246539" lon="10.764154198503846"><ele>15.8</ele><time>2026-05-01T08:24:42.999Z</time></trkpt><trkpt lat="43.7317223956218" lon="10.764029433552908"><ele>15.600000000000001</ele><time>2026-05-01T08:24:43.999Z</time></trkpt><trkpt lat="43.731656192140484" lon="10.763914416821908"><ele>15.4</ele><time>2026-05-01T08:24:44.999Z</time></trkpt><trkpt lat="43.73159166412752" lon="10.763811214017874"><ele>15.2</ele><time>2026-05-01T08:24:45.999Z</time></trkpt><trkpt lat="43.7315350002907" lon="10.763718840026701"><ele>15.0</ele><time>2026-05-01T08:24:46.999Z</time></trkpt><trkpt lat="43.73146489163717" lon="10.763611096762636"><ele>15.25</ele><time>2026-05-01T08:24:47.998Z</time></trkpt><trkpt lat="43.73138493288516" lon="10.763492415471704"><ele>15.5</ele><time>2026-05-01T08:24:48.998Z</time></trkpt><trkpt lat="43.731306695005024" lon="10.763387709800051"><ele>15.75</ele><time>2026-05-01T08:24:49.998Z</time></trkpt><trkpt lat="43.73123013996885" lon="10.763287239181258"><ele>16.0</ele><time>2026-05-01T08:24:50.998Z</time></trkpt><trkpt lat="43.73114445007302" lon="10.763172375742137"><ele>15.75</ele><time>2026-05-01T08:24:51.998Z</time></trkpt><trkpt lat="43.73104660944607" lon="10.763042290693278"><ele>15.5</ele><time>2026-05-01T08:24:52.998Z</time></trkpt><trkpt lat="43.73095122449645" lon="10.762910760525617"><ele>15.25</ele><time>2026-05-01T08:24:53.998Z</time></trkpt><trkpt lat="43.730845091066975" lon="10.762761274359274"><ele>15.0</ele><time>2026-05-01T08:24:54.998Z</time></trkpt><trkpt lat="43.730740680167536" lon="10.762619129594732"><ele>14.75</ele><time>2026-05-01T08:24:55.998Z</time></trkpt><trkpt lat="43.730647034862635" lon="10.762501133806259"><ele>14.5</ele><time>2026-05-01T08:24:56.998Z</time></trkpt><trkpt lat="43.730561799002224" lon="10.762393846440837"><ele>14.25</ele><time>2026-05-01T08:24:57.998Z</time></trkpt><trkpt lat="43.730479626720616" lon="10.762292889370825"><ele>14.0</ele><time>2026-05-01T08:24:58.998Z</time></trkpt><trkpt lat="43.73038886488859" lon="10.762185622543825"><ele>14.0</ele><time>2026-05-01T08:24:59.998Z</time></trkpt><trkpt lat="43.7302932758934" lon="10.76207560874023"><ele>14.0</ele><time>2026-05-01T08:25:00.998Z</time></trkpt><trkpt lat="43.73019856861035" lon="10.761959429269952"><ele>14.0</ele><time>2026-05-01T08:25:01.998Z</time></trkpt><trkpt lat="43.730109882759116" lon="10.761844517694644"><ele>14.0</ele><time>2026-05-01T08:25:02.998Z</time></trkpt><trkpt lat="43.730017104216955" lon="10.76172781440717"><ele>14.5</ele><time>2026-05-01T08:25:03.998Z</time></trkpt><trkpt lat="43.72992246691752" lon="10.761606538833401"><ele>15.0</ele><time>2026-05-01T08:25:04.998Z</time></trkpt><trkpt lat="43.72982893924902" lon="10.761487900475409"><ele>15.5</ele><time>2026-05-01T08:25:05.998Z</time></trkpt><trkpt lat="43.729742826403644" lon="10.761370705598571"><ele>16.0</ele><time>2026-05-01T08:25:06.998Z</time></trkpt><trkpt lat="43.729665779003085" lon="10.761265033286808"><ele>16.0</ele><time>2026-05-01T08:25:07.998Z</time></trkpt><trkpt lat="43.72958674741473" lon="10.761155959841458"><ele>16.0</ele><time>2026-05-01T08:25:08.998Z</time></trkpt><trkpt lat="43.72949990038765" lon="10.761048765492617"><ele>16.0</ele><time>2026-05-01T08:25:09.998Z</time></trkpt><trkpt lat="43.72940007938644" lon="10.76092017024063"><ele>16.0</ele><time>2026-05-01T08:25:10.998Z</time></trkpt><trkpt lat="43.729300640516726" lon="10.760795420921385"><ele>15.75</ele><time>2026-05-01T08:25:11.998Z</time></trkpt><trkpt lat="43.72920110526186" lon="10.760661849901494"><ele>15.5</ele><time>2026-05-01T08:25:12.998Z</time></trkpt><trkpt lat="43.729112189051094" lon="10.760533521502202"><ele>15.25</ele><time>2026-05-01T08:25:13.998Z</time></trkpt><trkpt lat="43.72902920062146" lon="10.760410482824208"><ele>15.0</ele><time>2026-05-01T08:25:14.998Z</time></trkpt><trkpt lat="43.72893110015129" lon="10.760269556502273"><ele>15.0</ele><time>2026-05-01T08:25:15.998Z</time></trkpt><trkpt lat="43.72882432813259" lon="10.760129573569383"><ele>15.0</ele><time>2026-05-01T08:25:16.998Z</time></trkpt><trkpt lat="43.728717644340705" lon="10.759993206222589"><ele>15.0</ele><time>2026-05-01T08:25:17.998Z</time></trkpt><trkpt lat="43.72861250030577" lon="10.759859773062095"><ele>15.0</ele><time>2026-05-01T08:25:18.998Z</time></trkpt><trkpt lat="43.72851219326078" lon="10.759729926616188"><ele>14.75</ele><time>2026-05-01T08:25:19.998Z</time></trkpt><trkpt lat="43.72841364318718" lon="10.759601857219872"><ele>14.5</ele><time>2026-05-01T08:25:20.998Z</time></trkpt><trkpt lat="43.72831127908581" lon="10.759471764924772"><ele>14.25</ele><time>2026-05-01T08:25:21.998Z</time></trkpt><trkpt lat="43.7282114094588" lon="10.759341187116009"><ele>14.0</ele><time>2026-05-01T08:25:22.998Z</time></trkpt><trkpt lat="43.72811317522832" lon="10.759208502923036"><ele>14.0</ele><time>2026-05-01T08:25:23.998Z</time></trkpt><trkpt lat="43.72801374897766" lon="10.759073034755028"><ele>14.0</ele><time>2026-05-01T08:25:24.998Z</time></trkpt><trkpt lat="43.72791905708246" lon="10.758941906015743"><ele>14.0</ele><time>2026-05-01T08:25:25.998Z</time></trkpt><trkpt lat="43.727814236540006" lon="10.758807310684345"><ele>14.0</ele><time>2026-05-01T08:25:26.998Z</time></trkpt><trkpt lat="43.72770620361294" lon="10.758666533714019"><ele>14.0</ele><time>2026-05-01T08:25:27.998Z</time></trkpt><trkpt lat="43.727596418127916" lon="10.758519535864405"><ele>14.0</ele><time>2026-05-01T08:25:28.998Z</time></trkpt><trkpt lat="43.72748922447395" lon="10.758372536992423"><ele>14.0</ele><time>2026-05-01T08:25:29.998Z</time></trkpt><trkpt lat="43.72738845893671" lon="10.758233823824696"><ele>14.0</ele><time>2026-05-01T08:25:30.998Z</time></trkpt><trkpt lat="43.72728891795397" lon="10.758093001224339"><ele>14.0</ele><time>2026-05-01T08:25:31.998Z</time></trkpt><trkpt lat="43.72719250065344" lon="10.757952551384735"><ele>14.0</ele><time>2026-05-01T08:25:32.997Z</time></trkpt><trkpt lat="43.727098625509406" lon="10.75781470496862"><ele>14.0</ele><time>2026-05-01T08:25:33.997Z</time></trkpt><trkpt lat="43.72700310187539" lon="10.757673945142333"><ele>14.0</ele><time>2026-05-01T08:25:34.997Z</time></trkpt><trkpt lat="43.72690490138678" lon="10.757527058044328"><ele>13.75</ele><time>2026-05-01T08:25:35.997Z</time></trkpt><trkpt lat="43.72681154518729" lon="10.757383668609362"><ele>13.5</ele><time>2026-05-01T08:25:36.997Z</time></trkpt><trkpt lat="43.72671479882019" lon="10.757239656575036"><ele>13.25</ele><time>2026-05-01T08:25:37.997Z</time></trkpt><trkpt lat="43.726619294678436" lon="10.757095973232579"><ele>13.0</ele><time>2026-05-01T08:25:38.997Z</time></trkpt><trkpt lat="43.72652372413188" lon="10.756948244004414"><ele>12.75</ele><time>2026-05-01T08:25:39.997Z</time></trkpt><trkpt lat="43.726428040648464" lon="10.756802651851276"><ele>12.5</ele><time>2026-05-01T08:25:40.997Z</time></trkpt><trkpt lat="43.726330150413034" lon="10.75665454420329"><ele>12.25</ele><time>2026-05-01T08:25:42Z</time></trkpt><trkpt lat="43.72622705268636" lon="10.75650386167566"><ele>12.0</ele><time>2026-05-01T08:25:43Z</time></trkpt><trkpt lat="43.72613051941606" lon="10.756357422169376"><ele>12.75</ele><time>2026-05-01T08:25:44Z</time></trkpt><trkpt lat="43.72604614663885" lon="10.756221699411048"><ele>13.5</ele><time>2026-05-01T08:25:45Z</time></trkpt><trkpt lat="43.72595632627532" lon="10.756080980254035"><ele>14.25</ele><time>2026-05-01T08:25:46Z</time></trkpt><trkpt lat="43.72586562787652" lon="10.755935912975552"><ele>15.0</ele><time>2026-05-01T08:25:47Z</time></trkpt><trkpt lat="43.72576767903346" lon="10.755792078196084"><ele>15.5</ele><time>2026-05-01T08:25:48Z</time></trkpt><trkpt lat="43.72566639277457" lon="10.755644606649167"><ele>16.0</ele><time>2026-05-01T08:25:49Z</time></trkpt><trkpt lat="43.7255642953493" lon="10.755498422958386"><ele>16.5</ele><time>2026-05-01T08:25:50Z</time></trkpt><trkpt lat="43.72547170016983" lon="10.755356665920207"><ele>17.0</ele><time>2026-05-01T08:25:51Z</time></trkpt><trkpt lat="43.72538209724226" lon="10.755217259153197"><ele>17.0</ele><time>2026-05-01T08:25:52Z</time></trkpt><trkpt lat="43.72528886925778" lon="10.755076345072334"><ele>17.0</ele><time>2026-05-01T08:25:53Z</time></trkpt><trkpt lat="43.72520090465912" lon="10.754943683669694"><ele>17.0</ele><time>2026-05-01T08:25:54Z</time></trkpt><trkpt lat="43.725116572325234" lon="10.754814984129176"><ele>17.0</ele><time>2026-05-01T08:25:55Z</time></trkpt><trkpt lat="43.725037215786294" lon="10.754687968723132"><ele>17.0</ele><time>2026-05-01T08:25:56Z</time></trkpt><trkpt lat="43.72497308259939" lon="10.754574203173442"><ele>17.0</ele><time>2026-05-01T08:25:57Z</time></trkpt><trkpt lat="43.7249110248268" lon="10.75445671809987"><ele>17.0</ele><time>2026-05-01T08:25:58Z</time></trkpt><trkpt lat="43.72486743250212" lon="10.754345650989801"><ele>17.0</ele><time>2026-05-01T08:25:59Z</time></trkpt><trkpt lat="43.72484438016448" lon="10.754244039880554"><ele>17.0</ele><time>2026-05-01T08:26:00Z</time></trkpt><trkpt lat="43.72482449616123" lon="10.75412325838303"><ele>16.6</ele><time>2026-05-01T08:26:01Z</time></trkpt><trkpt lat="43.72479627111086" lon="10.754010016050279"><ele>16.2</ele><time>2026-05-01T08:26:02Z</time></trkpt><trkpt lat="43.72474942898819" lon="10.753899858982244"><ele>15.8</ele><time>2026-05-01T08:26:02.999Z</time></trkpt><trkpt lat="43.724667186784984" lon="10.75383145524474"><ele>15.4</ele><time>2026-05-01T08:26:03.999Z</time></trkpt><trkpt lat="43.724564449562095" lon="10.75379395764793"><ele>15.0</ele><time>2026-05-01T08:26:04.999Z</time></trkpt><trkpt lat="43.724451673648744" lon="10.753746154523947"><ele>15.0</ele><time>2026-05-01T08:26:05.999Z</time></trkpt><trkpt lat="43.72434279965221" lon="10.753635105034522"><ele>15.0</ele><time>2026-05-01T08:26:06.999Z</time></trkpt><trkpt lat="43.72424916319996" lon="10.753530119845601"><ele>15.0</ele><time>2026-05-01T08:26:07.999Z</time></trkpt><trkpt lat="43.724184522635795" lon="10.753371249615299"><ele>15.0</ele><time>2026-05-01T08:26:08.999Z</time></trkpt><trkpt lat="43.72410551444599" lon="10.753244480604598"><ele>15.5</ele><time>2026-05-01T08:26:09.999Z</time></trkpt><trkpt lat="43.724027234851086" lon="10.753134133327757"><ele>16.0</ele><time>2026-05-01T08:26:10.999Z</time></trkpt><trkpt lat="43.723942576828954" lon="10.753002728307036"><ele>16.5</ele><time>2026-05-01T08:26:11.999Z</time></trkpt><trkpt lat="43.72386054698225" lon="10.752871602512265"><ele>17.0</ele><time>2026-05-01T08:26:12.999Z</time></trkpt><trkpt lat="43.72377580215617" lon="10.75273198393803"><ele>16.75</ele><time>2026-05-01T08:26:13.999Z</time></trkpt><trkpt lat="43.723689274398716" lon="10.752580832344163"><ele>16.5</ele><time>2026-05-01T08:26:14.999Z</time></trkpt><trkpt lat="43.72361683623542" lon="10.752441114420673"><ele>16.25</ele><time>2026-05-01T08:26:15.999Z</time></trkpt><trkpt lat="43.723536567527994" lon="10.75230393856534"><ele>16.0</ele><time>2026-05-01T08:26:16.999Z</time></trkpt><trkpt lat="43.72346593948104" lon="10.752177163344026"><ele>15.8</ele><time>2026-05-01T08:26:17.999Z</time></trkpt><trkpt lat="43.723400432549774" lon="10.752057339522818"><ele>15.600000000000001</ele><time>2026-05-01T08:26:18.999Z</time></trkpt><trkpt lat="43.72334316163109" lon="10.751932562173888"><ele>15.4</ele><time>2026-05-01T08:26:19.999Z</time></trkpt><trkpt lat="43.72329702952722" lon="10.751819129350615"><ele>15.2</ele><time>2026-05-01T08:26:20.999Z</time></trkpt><trkpt lat="43.7232562300207" lon="10.751705643259667"><ele>15.0</ele><time>2026-05-01T08:26:21.999Z</time></trkpt><trkpt lat="43.723221821277484" lon="10.751600186990347"><ele>14.666666666666666</ele><time>2026-05-01T08:26:22.999Z</time></trkpt><trkpt lat="43.723199392594836" lon="10.751506228457199"><ele>14.333333333333332</ele><time>2026-05-01T08:26:23.999Z</time></trkpt><trkpt lat="43.72319480017782" lon="10.751388825746952"><ele>14.0</ele><time>2026-05-01T08:26:24.999Z</time></trkpt><trkpt lat="43.72322271384879" lon="10.7512789792244"><ele>13.666666666666666</ele><time>2026-05-01T08:26:25.999Z</time></trkpt><trkpt lat="43.72324866414831" lon="10.751156757846166"><ele>13.333333333333332</ele><time>2026-05-01T08:26:26.999Z</time></trkpt><trkpt lat="43.72324689264271" lon="10.751031075512072"><ele>13.0</ele><time>2026-05-01T08:26:27.999Z</time></trkpt><trkpt lat="43.72321220315356" lon="10.75090479412295"><ele>13.0</ele><time>2026-05-01T08:26:28.999Z</time></trkpt><trkpt lat="43.72315485038846" lon="10.750804734023813"><ele>13.0</ele><time>2026-05-01T08:26:29.999Z</time></trkpt><trkpt lat="43.723076545462355" lon="10.750710574911713"><ele>13.0</ele><time>2026-05-01T08:26:30.999Z</time></trkpt><trkpt lat="43.72298434001225" lon="10.750638978100351"><ele>13.0</ele><time>2026-05-01T08:26:31.999Z</time></trkpt><trkpt lat="43.722899698122355" lon="10.750544400110892"><ele>13.0</ele><time>2026-05-01T08:26:32.999Z</time></trkpt><trkpt lat="43.722832469719286" lon="10.750398643065305"><ele>13.0</ele><time>2026-05-01T08:26:33.999Z</time></trkpt><trkpt lat="43.722785859910516" lon="10.750211249186895"><ele>13.0</ele><time>2026-05-01T08:26:34.999Z</time></trkpt><trkpt lat="43.72275153525912" lon="10.750021650678727"><ele>13.0</ele><time>2026-05-01T08:26:35.999Z</time></trkpt><trkpt lat="43.7227123473722" lon="10.749811521713253"><ele>13.0</ele><time>2026-05-01T08:26:36.999Z</time></trkpt><trkpt lat="43.72266114647427" lon="10.749599357826968"><ele>12.75</ele><time>2026-05-01T08:26:37.999Z</time></trkpt><trkpt lat="43.72260972661232" lon="10.74940494277512"><ele>12.5</ele><time>2026-05-01T08:26:38.999Z</time></trkpt><trkpt lat="43.72256277917839" lon="10.749220986079921"><ele>12.25</ele><time>2026-05-01T08:26:39.999Z</time></trkpt><trkpt lat="43.72251608305288" lon="10.74903931896536"><ele>12.0</ele><time>2026-05-01T08:26:40.999Z</time></trkpt><trkpt lat="43.72247298112263" lon="10.748879397499989"><ele>12.25</ele><time>2026-05-01T08:26:41.999Z</time></trkpt><trkpt lat="43.722427060824145" lon="10.748695760359192"><ele>12.5</ele><time>2026-05-01T08:26:42.999Z</time></trkpt><trkpt lat="43.7223778410049" lon="10.748525757178113"><ele>12.75</ele><time>2026-05-01T08:26:43.999Z</time></trkpt><trkpt lat="43.72232382916334" lon="10.748341936387225"><ele>13.0</ele><time>2026-05-01T08:26:44.999Z</time></trkpt><trkpt lat="43.72226878341408" lon="10.748153384736387"><ele>13.0</ele><time>2026-05-01T08:26:45.999Z</time></trkpt><trkpt lat="43.72221345077089" lon="10.747953980092744"><ele>13.0</ele><time>2026-05-01T08:26:46.999Z</time></trkpt><trkpt lat="43.72216085112028" lon="10.74774667707211"><ele>13.0</ele><time>2026-05-01T08:26:47.999Z</time></trkpt><trkpt lat="43.722109386592415" lon="10.747532123878347"><ele>13.333333333333332</ele><time>2026-05-01T08:26:48.998Z</time></trkpt><trkpt lat="43.72205947745136" lon="10.747323949294062"><ele>13.666666666666668</ele><time>2026-05-01T08:26:49.998Z</time></trkpt><trkpt lat="43.722008503464366" lon="10.747124728735919"><ele>14.0</ele><time>2026-05-01T08:26:50.998Z</time></trkpt><trkpt lat="43.72195821012602" lon="10.746930880998722"><ele>14.0</ele><time>2026-05-01T08:26:51.998Z</time></trkpt><trkpt lat="43.72190923543371" lon="10.746738839809003"><ele>14.0</ele><time>2026-05-01T08:26:52.998Z</time></trkpt><trkpt lat="43.721857251677356" lon="10.746544149307322"><ele>14.0</ele><time>2026-05-01T08:26:53.998Z</time></trkpt><trkpt lat="43.721806712516454" lon="10.746346952008063"><ele>14.0</ele><time>2026-05-01T08:26:54.998Z</time></trkpt><trkpt lat="43.72175462330152" lon="10.746149390272969"><ele>13.666666666666668</ele><time>2026-05-01T08:26:55.998Z</time></trkpt><trkpt lat="43.72170052227823" lon="10.74594936160086"><ele>13.333333333333332</ele><time>2026-05-01T08:26:56.998Z</time></trkpt><trkpt lat="43.72164516196782" lon="10.745747241265658"><ele>13.0</ele><time>2026-05-01T08:26:57.998Z</time></trkpt><trkpt lat="43.721589120696855" lon="10.745540036363948"><ele>13.0</ele><time>2026-05-01T08:26:58.998Z</time></trkpt><trkpt lat="43.72153253236355" lon="10.745328185982457"><ele>13.0</ele><time>2026-05-01T08:26:59.998Z</time></trkpt><trkpt lat="43.721474860284346" lon="10.745107323410576"><ele>13.0</ele><time>2026-05-01T08:27:00.998Z</time></trkpt><trkpt lat="43.721415833030946" lon="10.744890222795041"><ele>13.0</ele><time>2026-05-01T08:27:01.998Z</time></trkpt><trkpt lat="43.72136174633014" lon="10.744679587634662"><ele>13.0</ele><time>2026-05-01T08:27:02.998Z</time></trkpt><trkpt lat="43.72130331044662" lon="10.74446592978178"><ele>13.0</ele><time>2026-05-01T08:27:03.998Z</time></trkpt><trkpt lat="43.721244443727656" lon="10.744243993941241"><ele>13.333333333333332</ele><time>2026-05-01T08:27:04.998Z</time></trkpt><trkpt lat="43.72118522163834" lon="10.744026210625599"><ele>13.666666666666668</ele><time>2026-05-01T08:27:05.998Z</time></trkpt><trkpt lat="43.72112869608938" lon="10.743808963828155"><ele>14.0</ele><time>2026-05-01T08:27:06.998Z</time></trkpt><trkpt lat="43.721070405152496" lon="10.743591422975099"><ele>14.0</ele><time>2026-05-01T08:27:07.998Z</time></trkpt><trkpt lat="43.721013021435944" lon="10.743379285090688"><ele>14.0</ele><time>2026-05-01T08:27:08.998Z</time></trkpt><trkpt lat="43.720958103807696" lon="10.743168322502338"><ele>14.0</ele><time>2026-05-01T08:27:09.998Z</time></trkpt><trkpt lat="43.720906768513565" lon="10.742958036426591"><ele>14.0</ele><time>2026-05-01T08:27:10.998Z</time></trkpt><trkpt lat="43.720852377587434" lon="10.742746251634419"><ele>14.0</ele><time>2026-05-01T08:27:11.998Z</time></trkpt><trkpt lat="43.72079321522504" lon="10.742532143107939"><ele>14.0</ele><time>2026-05-01T08:27:12.998Z</time></trkpt><trkpt lat="43.7207327803526" lon="10.742315412142625"><ele>13.666666666666668</ele><time>2026-05-01T08:27:13.998Z</time></trkpt><trkpt lat="43.72067459190522" lon="10.74209680281638"><ele>13.333333333333332</ele><time>2026-05-01T08:27:14.998Z</time></trkpt><trkpt lat="43.72061864164262" lon="10.741883090126995"><ele>13.0</ele><time>2026-05-01T08:27:15.998Z</time></trkpt><trkpt lat="43.72056203431436" lon="10.741671743742447"><ele>13.0</ele><time>2026-05-01T08:27:16.998Z</time></trkpt><trkpt lat="43.72050517237294" lon="10.741458400898898"><ele>13.0</ele><time>2026-05-01T08:27:17.998Z</time></trkpt><trkpt lat="43.72044709588047" lon="10.741243703584269"><ele>13.0</ele><time>2026-05-01T08:27:18.998Z</time></trkpt><trkpt lat="43.72038922683685" lon="10.741026268217627"><ele>13.0</ele><time>2026-05-01T08:27:19.998Z</time></trkpt><trkpt lat="43.72033175260621" lon="10.740803288722498"><ele>13.0</ele><time>2026-05-01T08:27:20.998Z</time></trkpt><trkpt lat="43.720274302333486" lon="10.74057964648606"><ele>13.0</ele><time>2026-05-01T08:27:21.998Z</time></trkpt><trkpt lat="43.720213799305434" lon="10.740357224723752"><ele>12.666666666666666</ele><time>2026-05-01T08:27:22.998Z</time></trkpt><trkpt lat="43.72014960261663" lon="10.740131159817588"><ele>12.333333333333332</ele><time>2026-05-01T08:27:23.998Z</time></trkpt><trkpt lat="43.72008549786119" lon="10.73990214017654"><ele>12.0</ele><time>2026-05-01T08:27:24.998Z</time></trkpt><trkpt lat="43.72002010051254" lon="10.739667608123524"><ele>12.0</ele><time>2026-05-01T08:27:25.998Z</time></trkpt><trkpt lat="43.71995360929299" lon="10.739440421513038"><ele>12.0</ele><time>2026-05-01T08:27:26.998Z</time></trkpt><trkpt lat="43.71988932602744" lon="10.739230640406731"><ele>12.0</ele><time>2026-05-01T08:27:27.998Z</time></trkpt><trkpt lat="43.719826065327396" lon="10.73903733181924"><ele>12.333333333333332</ele><time>2026-05-01T08:27:28.998Z</time></trkpt><trkpt lat="43.71976118672534" lon="10.73884105340983"><ele>12.666666666666666</ele><time>2026-05-01T08:27:29.998Z</time></trkpt><trkpt lat="43.719670076323006" lon="10.738625381327596"><ele>13.0</ele><time>2026-05-01T08:27:30.998Z</time></trkpt><trkpt lat="43.719627614487045" lon="10.738467566250634"><ele>13.0</ele><time>2026-05-01T08:27:31.998Z</time></trkpt><trkpt lat="43.71955066115468" lon="10.738271816371384"><ele>13.0</ele><time>2026-05-01T08:27:32.998Z</time></trkpt><trkpt lat="43.71947230441679" lon="10.738072854410019"><ele>13.0</ele><time>2026-05-01T08:27:33.997Z</time></trkpt><trkpt lat="43.71939284888397" lon="10.73787448366215"><ele>13.25</ele><time>2026-05-01T08:27:34.997Z</time></trkpt><trkpt lat="43.719319313210875" lon="10.737699759849876"><ele>13.5</ele><time>2026-05-01T08:27:35.997Z</time></trkpt><trkpt lat="43.71926509237629" lon="10.737557512398958"><ele>13.75</ele><time>2026-05-01T08:27:36.997Z</time></trkpt><trkpt lat="43.719177986942896" lon="10.737367993100303"><ele>14.0</ele><time>2026-05-01T08:27:37.997Z</time></trkpt><trkpt lat="43.71911679214622" lon="10.73721522932847"><ele>14.0</ele><time>2026-05-01T08:27:38.997Z</time></trkpt><trkpt lat="43.71905880836755" lon="10.737079436681745"><ele>13.999999999999998</ele><time>2026-05-01T08:27:39.997Z</time></trkpt><trkpt lat="43.7190026604398" lon="10.73695307293398"><ele>13.999999999999998</ele><time>2026-05-01T08:27:40.997Z</time></trkpt><trkpt lat="43.71895038132031" lon="10.736834261707003"><ele>14.0</ele><time>2026-05-01T08:27:41.997Z</time></trkpt><trkpt lat="43.718900868496085" lon="10.736720599553024"><ele>14.0</ele><time>2026-05-01T08:27:42.997Z</time></trkpt><trkpt lat="43.718855398437654" lon="10.736610082148692"><ele>13.833333333333334</ele><time>2026-05-01T08:27:43.997Z</time></trkpt><trkpt lat="43.71880957775659" lon="10.736508095323376"><ele>13.666666666666668</ele><time>2026-05-01T08:27:44.997Z</time></trkpt><trkpt lat="43.718767617621225" lon="10.736413370397095"><ele>13.5</ele><time>2026-05-01T08:27:45.997Z</time></trkpt><trkpt lat="43.71873286105759" lon="10.736331099873503"><ele>13.333333333333332</ele><time>2026-05-01T08:27:46.997Z</time></trkpt><trkpt lat="43.71870475237827" lon="10.736249961008363"><ele>13.166666666666666</ele><time>2026-05-01T08:27:47.999Z</time></trkpt><trkpt lat="43.71867659348738" lon="10.736092670675827"><ele>13.0</ele><time>2026-05-01T08:27:49.999Z</time></trkpt><trkpt lat="43.71867730630516" lon="10.735999705843996"><ele>13.0</ele><time>2026-05-01T08:27:50.999Z</time></trkpt><trkpt lat="43.71869115666472" lon="10.735905743779409"><ele>13.0</ele><time>2026-05-01T08:27:51.999Z</time></trkpt><trkpt lat="43.718702713809776" lon="10.735807165120793"><ele>13.0</ele><time>2026-05-01T08:27:52.999Z</time></trkpt><trkpt lat="43.71868570985793" lon="10.735708070802916"><ele>13.0</ele><time>2026-05-01T08:27:53.999Z</time></trkpt><trkpt lat="43.718635763197014" lon="10.735629046429326"><ele>13.0</ele><time>2026-05-01T08:27:55Z</time></trkpt><trkpt lat="43.718563070162425" lon="10.73558679297551"><ele>13.0</ele><time>2026-05-01T08:27:55.999Z</time></trkpt><trkpt lat="43.71848549065369" lon="10.735578366702804"><ele>13.0</ele><time>2026-05-01T08:27:57Z</time></trkpt><trkpt lat="43.71841325568619" lon="10.735623883049831"><ele>12.999999999999998</ele><time>2026-05-01T08:27:58Z</time></trkpt><trkpt lat="43.71835087519512" lon="10.735706896413287"><ele>13.0</ele><time>2026-05-01T08:27:58.999Z</time></trkpt><trkpt lat="43.71830986831961" lon="10.735808957600993"><ele>13.0</ele><time>2026-05-01T08:28:00Z</time></trkpt><trkpt lat="43.71828420362851" lon="10.735918555388322"><ele>13.0</ele><time>2026-05-01T08:28:01Z</time></trkpt><trkpt lat="43.71822888760608" lon="10.736016330369656"><ele>12.999999999999998</ele><time>2026-05-01T08:28:02Z</time></trkpt><trkpt lat="43.71816802928218" lon="10.736116535518516"><ele>13.0</ele><time>2026-05-01T08:28:02.999Z</time></trkpt><trkpt lat="43.71806716335302" lon="10.73616182182773"><ele>13.0</ele><time>2026-05-01T08:28:03.999Z</time></trkpt><trkpt lat="43.71798579774552" lon="10.736228205218335"><ele>13.0</ele><time>2026-05-01T08:28:04.999Z</time></trkpt><trkpt lat="43.71792856606478" lon="10.736289155120097"><ele>13.0</ele><time>2026-05-01T08:28:05.999Z</time></trkpt><trkpt lat="43.71778952830387" lon="10.736319566694451"><ele>13.0</ele><time>2026-05-01T08:28:06.999Z</time></trkpt><trkpt lat="43.71768432555206" lon="10.73636895848239"><ele>13.0</ele><time>2026-05-01T08:28:07.999Z</time></trkpt><trkpt lat="43.71756426150057" lon="10.736425327469824"><ele>12.5</ele><time>2026-05-01T08:28:08.999Z</time></trkpt><trkpt lat="43.71742009937551" lon="10.736493010289339"><ele>12.0</ele><time>2026-05-01T08:28:09.999Z</time></trkpt><trkpt lat="43.717298941459546" lon="10.736549892880271"><ele>11.5</ele><time>2026-05-01T08:28:10.999Z</time></trkpt><trkpt lat="43.717144581544396" lon="10.736622363482484"><ele>11.0</ele><time>2026-05-01T08:28:11.999Z</time></trkpt><trkpt lat="43.71698176830252" lon="10.736716686393725"><ele>11.0</ele><time>2026-05-01T08:28:12.999Z</time></trkpt><trkpt lat="43.71681033546786" lon="10.736798046098736"><ele>11.0</ele><time>2026-05-01T08:28:13.999Z</time></trkpt><trkpt lat="43.7166543126541" lon="10.736870063243522"><ele>11.0</ele><time>2026-05-01T08:28:14.999Z</time></trkpt><trkpt lat="43.7165130414961" lon="10.736937238760925"><ele>11.25</ele><time>2026-05-01T08:28:15.999Z</time></trkpt><trkpt lat="43.716383243360305" lon="10.73699619254721"><ele>11.5</ele><time>2026-05-01T08:28:16.999Z</time></trkpt><trkpt lat="43.71625425314849" lon="10.737055463734476"><ele>11.75</ele><time>2026-05-01T08:28:17.999Z</time></trkpt><trkpt lat="43.71611729263869" lon="10.737117947497884"><ele>12.0</ele><time>2026-05-01T08:28:18.999Z</time></trkpt><trkpt lat="43.7159729546443" lon="10.737183026242691"><ele>12.333333333333332</ele><time>2026-05-01T08:28:19.999Z</time></trkpt><trkpt lat="43.715825918992095" lon="10.737252802932412"><ele>12.666666666666666</ele><time>2026-05-01T08:28:20.999Z</time></trkpt><trkpt lat="43.71567529579792" lon="10.737326198855762"><ele>13.0</ele><time>2026-05-01T08:28:21.999Z</time></trkpt><trkpt lat="43.71552217438549" lon="10.737392741785571"><ele>13.0</ele><time>2026-05-01T08:28:22.999Z</time></trkpt><trkpt lat="43.71538544287727" lon="10.737458816652008"><ele>13.0</ele><time>2026-05-01T08:28:23.999Z</time></trkpt><trkpt lat="43.71525402172765" lon="10.737514050348398"><ele>13.0</ele><time>2026-05-01T08:28:24.999Z</time></trkpt><trkpt lat="43.715114854537205" lon="10.737583254133158"><ele>13.0</ele><time>2026-05-01T08:28:25.999Z</time></trkpt><trkpt lat="43.714972042088526" lon="10.737646307706706"><ele>12.75</ele><time>2026-05-01T08:28:26.999Z</time></trkpt><trkpt lat="43.71482776619092" lon="10.737718407905518"><ele>12.5</ele><time>2026-05-01T08:28:27.999Z</time></trkpt><trkpt lat="43.71468540191828" lon="10.737766500387997"><ele>12.25</ele><time>2026-05-01T08:28:28.999Z</time></trkpt><trkpt lat="43.71454992252438" lon="10.737850551579713"><ele>12.0</ele><time>2026-05-01T08:28:29.999Z</time></trkpt><trkpt lat="43.71441011287711" lon="10.737911498135967"><ele>12.25</ele><time>2026-05-01T08:28:30.999Z</time></trkpt><trkpt lat="43.71426882927323" lon="10.737976145292784"><ele>12.5</ele><time>2026-05-01T08:28:31.999Z</time></trkpt><trkpt lat="43.71413067559358" lon="10.738038784234"><ele>12.75</ele><time>2026-05-01T08:28:32.999Z</time></trkpt><trkpt lat="43.71399447917622" lon="10.738100816155931"><ele>13.0</ele><time>2026-05-01T08:28:33.999Z</time></trkpt><trkpt lat="43.71386079124323" lon="10.738164429764874"><ele>13.0</ele><time>2026-05-01T08:28:34.999Z</time></trkpt><trkpt lat="43.71372783107393" lon="10.738228447274071"><ele>13.0</ele><time>2026-05-01T08:28:35.999Z</time></trkpt><trkpt lat="43.71360620790296" lon="10.738285083207462"><ele>13.0</ele><time>2026-05-01T08:28:36.999Z</time></trkpt><trkpt lat="43.713506652565336" lon="10.738335157216014"><ele>13.0</ele><time>2026-05-01T08:28:37.999Z</time></trkpt><trkpt lat="43.713379246016785" lon="10.73839235038815"><ele>13.0</ele><time>2026-05-01T08:28:38.999Z</time></trkpt><trkpt lat="43.71326874145246" lon="10.738444450994448"><ele>13.0</ele><time>2026-05-01T08:28:39.999Z</time></trkpt><trkpt lat="43.71314474404644" lon="10.73849897115101"><ele>13.0</ele><time>2026-05-01T08:28:40.999Z</time></trkpt><trkpt lat="43.71301739788882" lon="10.738562197612255"><ele>13.0</ele><time>2026-05-01T08:28:41.999Z</time></trkpt><trkpt lat="43.71286856535802" lon="10.73861192698201"><ele>13.0</ele><time>2026-05-01T08:28:42.999Z</time></trkpt><trkpt lat="43.71271938459135" lon="10.73868153272822"><ele>13.0</ele><time>2026-05-01T08:28:43.999Z</time></trkpt><trkpt lat="43.71256428386694" lon="10.738772260217148"><ele>13.0</ele><time>2026-05-01T08:28:44.999Z</time></trkpt><trkpt lat="43.712393732955945" lon="10.738846080271886"><ele>13.0</ele><time>2026-05-01T08:28:45.999Z</time></trkpt><trkpt lat="43.71221687322874" lon="10.738935487775558"><ele>13.0</ele><time>2026-05-01T08:28:46.999Z</time></trkpt><trkpt lat="43.712050626203585" lon="10.73899356818686"><ele>13.0</ele><time>2026-05-01T08:28:47.999Z</time></trkpt><trkpt lat="43.71189344040063" lon="10.739089409438714"><ele>13.333333333333332</ele><time>2026-05-01T08:28:48.999Z</time></trkpt><trkpt lat="43.71172794145127" lon="10.739160455008305"><ele>13.666666666666668</ele><time>2026-05-01T08:28:49.999Z</time></trkpt><trkpt lat="43.71154957732094" lon="10.73924616530389"><ele>14.0</ele><time>2026-05-01T08:28:50.999Z</time></trkpt><trkpt lat="43.71135728087976" lon="10.739313902334843"><ele>14.0</ele><time>2026-05-01T08:28:51.998Z</time></trkpt><trkpt lat="43.71118542889188" lon="10.739394398638316"><ele>14.0</ele><time>2026-05-01T08:28:52.998Z</time></trkpt><trkpt lat="43.71103614616755" lon="10.739486700336304"><ele>14.0</ele><time>2026-05-01T08:28:53.998Z</time></trkpt><trkpt lat="43.710880353416286" lon="10.739555294158473"><ele>13.666666666666668</ele><time>2026-05-01T08:28:54.998Z</time></trkpt><trkpt lat="43.71071577597649" lon="10.739631586224256"><ele>13.333333333333332</ele><time>2026-05-01T08:28:55.998Z</time></trkpt><trkpt lat="43.710550819492" lon="10.739713413357158"><ele>13.0</ele><time>2026-05-01T08:28:56.998Z</time></trkpt><trkpt lat="43.71037452685573" lon="10.739772829151404"><ele>13.333333333333332</ele><time>2026-05-01T08:28:57.998Z</time></trkpt><trkpt lat="43.71020511148883" lon="10.739870885511904"><ele>13.666666666666668</ele><time>2026-05-01T08:28:58.998Z</time></trkpt><trkpt lat="43.71003545788133" lon="10.739946983627393"><ele>14.0</ele><time>2026-05-01T08:28:59.998Z</time></trkpt><trkpt lat="43.70988034661627" lon="10.74002416385503"><ele>14.0</ele><time>2026-05-01T08:29:00.998Z</time></trkpt><trkpt lat="43.70973133077887" lon="10.740068581384572"><ele>14.0</ele><time>2026-05-01T08:29:01.998Z</time></trkpt><trkpt lat="43.70959760041103" lon="10.740151756050134"><ele>14.0</ele><time>2026-05-01T08:29:02.998Z</time></trkpt><trkpt lat="43.70946836013202" lon="10.74021057749074"><ele>14.0</ele><time>2026-05-01T08:29:03.998Z</time></trkpt><trkpt lat="43.70932068169799" lon="10.740256962650765"><ele>13.666666666666668</ele><time>2026-05-01T08:29:04.998Z</time></trkpt><trkpt lat="43.70918401550387" lon="10.740319656971455"><ele>13.333333333333332</ele><time>2026-05-01T08:29:05.998Z</time></trkpt><trkpt lat="43.709068947988" lon="10.740372901150938"><ele>13.0</ele><time>2026-05-01T08:29:06.998Z</time></trkpt><trkpt lat="43.70886655846486" lon="10.740466846908424"><ele>13.0</ele><time>2026-05-01T08:29:07.998Z</time></trkpt><trkpt lat="43.70871033195488" lon="10.74053936457457"><ele>13.0</ele><time>2026-05-01T08:29:08.998Z</time></trkpt><trkpt lat="43.70856623791588" lon="10.740605835734524"><ele>13.0</ele><time>2026-05-01T08:29:09.998Z</time></trkpt><trkpt lat="43.708426198494365" lon="10.740670412116383"><ele>13.0</ele><time>2026-05-01T08:29:10.998Z</time></trkpt><trkpt lat="43.70827885859996" lon="10.74073835515195"><ele>13.0</ele><time>2026-05-01T08:29:11.998Z</time></trkpt><trkpt lat="43.70813544007501" lon="10.740804489839492"><ele>13.0</ele><time>2026-05-01T08:29:12.998Z</time></trkpt><trkpt lat="43.70798864270591" lon="10.74087218268282"><ele>13.0</ele><time>2026-05-01T08:29:13.998Z</time></trkpt><trkpt lat="43.7078387886696" lon="10.74094128503722"><ele>13.0</ele><time>2026-05-01T08:29:14.998Z</time></trkpt><trkpt lat="43.70768619656605" lon="10.74101165001821"><ele>13.0</ele><time>2026-05-01T08:29:15.998Z</time></trkpt><trkpt lat="43.70753503023085" lon="10.741081883958088"><ele>13.25</ele><time>2026-05-01T08:29:16.998Z</time></trkpt><trkpt lat="43.707391413582634" lon="10.741145558445659"><ele>13.5</ele><time>2026-05-01T08:29:17.998Z</time></trkpt><trkpt lat="43.70726259778574" lon="10.741203935057827"><ele>13.75</ele><time>2026-05-01T08:29:18.998Z</time></trkpt><trkpt lat="43.707143334413736" lon="10.74125774978275"><ele>14.0</ele><time>2026-05-01T08:29:19.998Z</time></trkpt><trkpt lat="43.70701942752697" lon="10.741313659730958"><ele>14.25</ele><time>2026-05-01T08:29:20.998Z</time></trkpt><trkpt lat="43.70688932692463" lon="10.741372364448964"><ele>14.5</ele><time>2026-05-01T08:29:21.998Z</time></trkpt><trkpt lat="43.70675951720924" lon="10.741430646075692"><ele>14.75</ele><time>2026-05-01T08:29:22.998Z</time></trkpt><trkpt lat="43.706628190568644" lon="10.741493181766536"><ele>15.0</ele><time>2026-05-01T08:29:23.998Z</time></trkpt><trkpt lat="43.70648656965125" lon="10.74156061936876"><ele>15.0</ele><time>2026-05-01T08:29:24.998Z</time></trkpt><trkpt lat="43.70634608431609" lon="10.74162751630634"><ele>15.0</ele><time>2026-05-01T08:29:25.998Z</time></trkpt><trkpt lat="43.70621711945321" lon="10.741710451363394"><ele>15.0</ele><time>2026-05-01T08:29:26.998Z</time></trkpt><trkpt lat="43.70609386079092" lon="10.741763330452738"><ele>15.0</ele><time>2026-05-01T08:29:27.998Z</time></trkpt><trkpt lat="43.7059586323268" lon="10.74182613637252"><ele>15.0</ele><time>2026-05-01T08:29:28.998Z</time></trkpt><trkpt lat="43.705818403402915" lon="10.741893221340288"><ele>15.0</ele><time>2026-05-01T08:29:29.998Z</time></trkpt><trkpt lat="43.705678449157446" lon="10.741962618517723"><ele>15.0</ele><time>2026-05-01T08:29:30.998Z</time></trkpt><trkpt lat="43.705538096714" lon="10.742030418132575"><ele>15.0</ele><time>2026-05-01T08:29:31.998Z</time></trkpt><trkpt lat="43.705404233335514" lon="10.74209135728625"><ele>15.0</ele><time>2026-05-01T08:29:32.998Z</time></trkpt><trkpt lat="43.705279243623565" lon="10.7421428974984"><ele>15.0</ele><time>2026-05-01T08:29:33.998Z</time></trkpt><trkpt lat="43.70516189373471" lon="10.742181234570548"><ele>15.0</ele><time>2026-05-01T08:29:34.998Z</time></trkpt><trkpt lat="43.7050526003009" lon="10.742252145813596"><ele>15.0</ele><time>2026-05-01T08:29:35.998Z</time></trkpt><trkpt lat="43.70492607528055" lon="10.742305559747301"><ele>15.0</ele><time>2026-05-01T08:29:36.998Z</time></trkpt><trkpt lat="43.70479414680564" lon="10.742367747172445"><ele>15.0</ele><time>2026-05-01T08:29:37.997Z</time></trkpt><trkpt lat="43.70466007749861" lon="10.74242668863692"><ele>15.0</ele><time>2026-05-01T08:29:38.997Z</time></trkpt><trkpt lat="43.70452033162803" lon="10.742491544819961"><ele>15.0</ele><time>2026-05-01T08:29:39.997Z</time></trkpt><trkpt lat="43.70438941129953" lon="10.742549521226747"><ele>15.0</ele><time>2026-05-01T08:29:40.997Z</time></trkpt><trkpt lat="43.70427035737302" lon="10.742598876568408"><ele>15.0</ele><time>2026-05-01T08:29:41.997Z</time></trkpt><trkpt lat="43.70415977416799" lon="10.742616668667875"><ele>15.0</ele><time>2026-05-01T08:29:42.997Z</time></trkpt><trkpt lat="43.70404917430648" lon="10.742625149358885"><ele>15.0</ele><time>2026-05-01T08:29:43.997Z</time></trkpt><trkpt lat="43.703930606016165" lon="10.742767307053592"><ele>15.0</ele><time>2026-05-01T08:29:44.997Z</time></trkpt><trkpt lat="43.7038349396145" lon="10.74280431796004"><ele>15.0</ele><time>2026-05-01T08:29:45.997Z</time></trkpt><trkpt lat="43.7037535508079" lon="10.742841307734018"><ele>15.0</ele><time>2026-05-01T08:29:46.997Z</time></trkpt><trkpt lat="43.70367601160709" lon="10.742877853592555"><ele>15.0</ele><time>2026-05-01T08:29:47.997Z</time></trkpt><trkpt lat="43.70360850451571" lon="10.742911813152629"><ele>15.0</ele><time>2026-05-01T08:29:48.997Z</time></trkpt><trkpt lat="43.70350130431714" lon="10.742959239438704"><ele>14.8</ele><time>2026-05-01T08:29:50.997Z</time></trkpt><trkpt lat="43.703407533935874" lon="10.742999305517287"><ele>14.6</ele><time>2026-05-01T08:29:52.997Z</time></trkpt><trkpt lat="43.70330550479931" lon="10.743048411513742"><ele>14.399999999999999</ele><time>2026-05-01T08:29:55Z</time></trkpt><trkpt lat="43.703235386095145" lon="10.74307758787432"><ele>14.2</ele><time>2026-05-01T08:29:55.999Z</time></trkpt><trkpt lat="43.70314269282732" lon="10.743118855123036"><ele>14.0</ele><time>2026-05-01T08:29:57Z</time></trkpt><trkpt lat="43.703043091657385" lon="10.743157944116922"><ele>14.0</ele><time>2026-05-01T08:29:58Z</time></trkpt><trkpt lat="43.70295335280824" lon="10.743200017867391"><ele>13.999999999999998</ele><time>2026-05-01T08:29:59Z</time></trkpt><trkpt lat="43.70287113864406" lon="10.743234915473513"><ele>13.999999999999998</ele><time>2026-05-01T08:30:00Z</time></trkpt><trkpt lat="43.702792587796736" lon="10.743275705228553"><ele>14.0</ele><time>2026-05-01T08:30:01Z</time></trkpt><trkpt lat="43.70269876583899" lon="10.743321910006479"><ele>14.0</ele><time>2026-05-01T08:30:02Z</time></trkpt><trkpt lat="43.70259579682979" lon="10.743370430026957"><ele>14.000000000000002</ele><time>2026-05-01T08:30:03Z</time></trkpt><trkpt lat="43.70249811773605" lon="10.743411744745496"><ele>14.0</ele><time>2026-05-01T08:30:04Z</time></trkpt><trkpt lat="43.702414763941015" lon="10.743450301812151"><ele>14.0</ele><time>2026-05-01T08:30:04.999Z</time></trkpt><trkpt lat="43.70234266074787" lon="10.743483979674254"><ele>14.0</ele><time>2026-05-01T08:30:06Z</time></trkpt><trkpt lat="43.7022823453965" lon="10.743513717749575"><ele>14.000000000000002</ele><time>2026-05-01T08:30:07Z</time></trkpt><trkpt lat="43.70219157744393" lon="10.743558817405829"><ele>14.0</ele><time>2026-05-01T08:30:08.999Z</time></trkpt><trkpt lat="43.70208543856342" lon="10.743600590921128"><ele>14.2</ele><time>2026-05-01T08:30:10.999Z</time></trkpt><trkpt lat="43.70200182281437" lon="10.74359352473527"><ele>14.399999999999999</ele><time>2026-05-01T08:30:12.999Z</time></trkpt><trkpt lat="43.701879183292306" lon="10.743540295683237"><ele>14.6</ele><time>2026-05-01T08:30:14.999Z</time></trkpt><trkpt lat="43.701861668205254" lon="10.743354092504802"><ele>14.8</ele><time>2026-05-01T08:30:15.999Z</time></trkpt><trkpt lat="43.701838261069625" lon="10.743217836361572"><ele>15.0</ele><time>2026-05-01T08:30:16.999Z</time></trkpt><trkpt lat="43.70182111618311" lon="10.743123325393368"><ele>15.0</ele><time>2026-05-01T08:30:17.999Z</time></trkpt><trkpt lat="43.701791356444076" lon="10.743003952363832"><ele>15.0</ele><time>2026-05-01T08:30:19.999Z</time></trkpt><trkpt lat="43.7017556255438" lon="10.742888456504026"><ele>15.0</ele><time>2026-05-01T08:30:22.999Z</time></trkpt><trkpt lat="43.70172272194845" lon="10.742804453952985"><ele>15.0</ele><time>2026-05-01T08:30:24.999Z</time></trkpt><trkpt lat="43.701676355591935" lon="10.742681794761353"><ele>15.0</ele><time>2026-05-01T08:30:26.999Z</time></trkpt><trkpt lat="43.70166107645381" lon="10.742584925138832"><ele>15.0</ele><time>2026-05-01T08:30:27.999Z</time></trkpt><trkpt lat="43.70163707235927" lon="10.742484785055542"><ele>15.0</ele><time>2026-05-01T08:30:28.999Z</time></trkpt><trkpt lat="43.70159203898414" lon="10.742396145757828"><ele>15.0</ele><time>2026-05-01T08:30:29.999Z</time></trkpt><trkpt lat="43.701531858596766" lon="10.742288517168145"><ele>15.0</ele><time>2026-05-01T08:30:30.999Z</time></trkpt><trkpt lat="43.701467567872974" lon="10.742175677562027"><ele>15.0</ele><time>2026-05-01T08:30:31.999Z</time></trkpt><trkpt lat="43.70139932798684" lon="10.742061011384122"><ele>15.0</ele><time>2026-05-01T08:30:32.999Z</time></trkpt><trkpt lat="43.70132080072154" lon="10.741958477923463"><ele>15.5</ele><time>2026-05-01T08:30:33.999Z</time></trkpt><trkpt lat="43.70122125411754" lon="10.741852273309405"><ele>16.0</ele><time>2026-05-01T08:30:34.999Z</time></trkpt><trkpt lat="43.70111137083251" lon="10.741761079852747"><ele>16.5</ele><time>2026-05-01T08:30:35.999Z</time></trkpt><trkpt lat="43.70099694721788" lon="10.741685455708103"><ele>17.0</ele><time>2026-05-01T08:30:36.999Z</time></trkpt><trkpt lat="43.70087711677109" lon="10.741623956957522"><ele>17.25</ele><time>2026-05-01T08:30:37.999Z</time></trkpt><trkpt lat="43.700763835284064" lon="10.74158339797505"><ele>17.5</ele><time>2026-05-01T08:30:38.999Z</time></trkpt><trkpt lat="43.70065829820089" lon="10.741560772413756"><ele>17.75</ele><time>2026-05-01T08:30:39.999Z</time></trkpt><trkpt lat="43.7005280406278" lon="10.741544553033979"><ele>18.0</ele><time>2026-05-01T08:30:40.999Z</time></trkpt><trkpt lat="43.70039455712693" lon="10.741545949469714"><ele>18.0</ele><time>2026-05-01T08:30:41.999Z</time></trkpt><trkpt lat="43.7002641381479" lon="10.741561012101144"><ele>18.0</ele><time>2026-05-01T08:30:42.999Z</time></trkpt><trkpt lat="43.700140755953164" lon="10.741584726880792"><ele>18.0</ele><time>2026-05-01T08:30:43.999Z</time></trkpt><trkpt lat="43.70002370839069" lon="10.741606124528007"><ele>18.0</ele><time>2026-05-01T08:30:44.999Z</time></trkpt><trkpt lat="43.69990725845093" lon="10.741625162026258"><ele>17.8</ele><time>2026-05-01T08:30:45.999Z</time></trkpt><trkpt lat="43.69980952516002" lon="10.74164220005079"><ele>17.6</ele><time>2026-05-01T08:30:46.999Z</time></trkpt><trkpt lat="43.6997222567342" lon="10.741653973644786"><ele>17.4</ele><time>2026-05-01T08:30:47.999Z</time></trkpt><trkpt lat="43.699630010802174" lon="10.741657498460711"><ele>17.2</ele><time>2026-05-01T08:30:48.999Z</time></trkpt><trkpt lat="43.69952061147001" lon="10.741660284322759"><ele>17.0</ele><time>2026-05-01T08:30:49.999Z</time></trkpt><trkpt lat="43.699414889076415" lon="10.741665947443217"><ele>17.0</ele><time>2026-05-01T08:30:50.999Z</time></trkpt><trkpt lat="43.699321345244186" lon="10.741674308901931"><ele>17.0</ele><time>2026-05-01T08:30:51.999Z</time></trkpt><trkpt lat="43.69924656324151" lon="10.741684844848095"><ele>17.0</ele><time>2026-05-01T08:30:52.999Z</time></trkpt><trkpt lat="43.69918102893218" lon="10.741681345391688"><ele>17.0</ele><time>2026-05-01T08:30:53.999Z</time></trkpt><trkpt lat="43.699082980370164" lon="10.741566599608985"><ele>17.0</ele><time>2026-05-01T08:30:55.999Z</time></trkpt><trkpt lat="43.69902831057111" lon="10.741324491415979"><ele>17.0</ele><time>2026-05-01T08:30:57.999Z</time></trkpt><trkpt lat="43.699030738436285" lon="10.741175650641097"><ele>17.0</ele><time>2026-05-01T08:30:58.998Z</time></trkpt><trkpt lat="43.69902673380971" lon="10.74103019708191"><ele>17.0</ele><time>2026-05-01T08:30:59.998Z</time></trkpt><trkpt lat="43.69901676431787" lon="10.740879916678333"><ele>17.0</ele><time>2026-05-01T08:31:00.998Z</time></trkpt><trkpt lat="43.698999811572264" lon="10.740736319315403"><ele>17.0</ele><time>2026-05-01T08:31:01.998Z</time></trkpt><trkpt lat="43.69899038659292" lon="10.740589111686148"><ele>17.0</ele><time>2026-05-01T08:31:02.998Z</time></trkpt><trkpt lat="43.69898726012336" lon="10.74042514602799"><ele>17.0</ele><time>2026-05-01T08:31:03.998Z</time></trkpt><trkpt lat="43.69898139362642" lon="10.74025302286252"><ele>17.0</ele><time>2026-05-01T08:31:04.998Z</time></trkpt><trkpt lat="43.698971519134226" lon="10.740082000728187"><ele>17.0</ele><time>2026-05-01T08:31:05.998Z</time></trkpt><trkpt lat="43.6989594926001" lon="10.739889249728357"><ele>17.0</ele><time>2026-05-01T08:31:06.998Z</time></trkpt><trkpt lat="43.698944127642235" lon="10.739686896880238"><ele>17.0</ele><time>2026-05-01T08:31:07.998Z</time></trkpt><trkpt lat="43.6989300308493" lon="10.739477155628235"><ele>17.0</ele><time>2026-05-01T08:31:08.998Z</time></trkpt><trkpt lat="43.69891563975465" lon="10.73925606596029"><ele>17.0</ele><time>2026-05-01T08:31:09.998Z</time></trkpt><trkpt lat="43.69890221678764" lon="10.7390287004657"><ele>17.0</ele><time>2026-05-01T08:31:10.998Z</time></trkpt><trkpt lat="43.69888686366351" lon="10.738794445780817"><ele>17.0</ele><time>2026-05-01T08:31:11.998Z</time></trkpt><trkpt lat="43.698867928495744" lon="10.738543606535453"><ele>16.666666666666668</ele><time>2026-05-01T08:31:12.998Z</time></trkpt><trkpt lat="43.69885050482089" lon="10.738277910768723"><ele>16.333333333333332</ele><time>2026-05-01T08:31:13.998Z</time></trkpt><trkpt lat="43.69883795179233" lon="10.738035024763592"><ele>16.0</ele><time>2026-05-01T08:31:14.998Z</time></trkpt><trkpt lat="43.69882330121504" lon="10.737798457428026"><ele>16.666666666666664</ele><time>2026-05-01T08:31:15.998Z</time></trkpt><trkpt lat="43.69880712921679" lon="10.737556294921356"><ele>17.333333333333332</ele><time>2026-05-01T08:31:16.998Z</time></trkpt><trkpt lat="43.69878804837232" lon="10.737312333374048"><ele>18.0</ele><time>2026-05-01T08:31:17.998Z</time></trkpt><trkpt lat="43.698770853469355" lon="10.73707643303943"><ele>18.0</ele><time>2026-05-01T08:31:18.998Z</time></trkpt><trkpt lat="43.6987577982781" lon="10.736840640746781"><ele>18.0</ele><time>2026-05-01T08:31:19.998Z</time></trkpt><trkpt lat="43.69874584294858" lon="10.736602001882844"><ele>18.0</ele><time>2026-05-01T08:31:20.998Z</time></trkpt><trkpt lat="43.698731522244465" lon="10.736367978832915"><ele>18.0</ele><time>2026-05-01T08:31:21.998Z</time></trkpt><trkpt lat="43.69871594385599" lon="10.736137100642088"><ele>18.0</ele><time>2026-05-01T08:31:22.998Z</time></trkpt><trkpt lat="43.698698233533904" lon="10.735908406260656"><ele>18.0</ele><time>2026-05-01T08:31:23.998Z</time></trkpt><trkpt lat="43.698683120381034" lon="10.735677869477989"><ele>18.0</ele><time>2026-05-01T08:31:24.998Z</time></trkpt><trkpt lat="43.69866949669142" lon="10.735441673871074"><ele>18.0</ele><time>2026-05-01T08:31:25.998Z</time></trkpt><trkpt lat="43.6986563785487" lon="10.735206994213145"><ele>18.0</ele><time>2026-05-01T08:31:26.998Z</time></trkpt><trkpt lat="43.69864275128236" lon="10.734981042574123"><ele>17.25</ele><time>2026-05-01T08:31:27.998Z</time></trkpt><trkpt lat="43.698632438495785" lon="10.734769993584244"><ele>16.5</ele><time>2026-05-01T08:31:28.998Z</time></trkpt><trkpt lat="43.698619046106636" lon="10.73458179292518"><ele>15.75</ele><time>2026-05-01T08:31:29.998Z</time></trkpt><trkpt lat="43.69860465005955" lon="10.734406804040736"><ele>15.0</ele><time>2026-05-01T08:31:30.998Z</time></trkpt><trkpt lat="43.69859461445303" lon="10.734223089011364"><ele>15.5</ele><time>2026-05-01T08:31:31.998Z</time></trkpt><trkpt lat="43.69858380722551" lon="10.734024489074157"><ele>16.0</ele><time>2026-05-01T08:31:32.998Z</time></trkpt><trkpt lat="43.69856844888033" lon="10.733821107126655"><ele>16.5</ele><time>2026-05-01T08:31:33.998Z</time></trkpt><trkpt lat="43.698553550245784" lon="10.733611771027084"><ele>17.0</ele><time>2026-05-01T08:31:34.998Z</time></trkpt><trkpt lat="43.698538557111824" lon="10.733389685424378"><ele>17.0</ele><time>2026-05-01T08:31:35.998Z</time></trkpt><trkpt lat="43.698526592022866" lon="10.73315776395102"><ele>17.0</ele><time>2026-05-01T08:31:36.998Z</time></trkpt><trkpt lat="43.69851340817064" lon="10.732916571672598"><ele>17.0</ele><time>2026-05-01T08:31:37.998Z</time></trkpt><trkpt lat="43.6984984153291" lon="10.732672961958551"><ele>17.0</ele><time>2026-05-01T08:31:38.998Z</time></trkpt><trkpt lat="43.69848470450782" lon="10.732434307738204"><ele>17.0</ele><time>2026-05-01T08:31:39.998Z</time></trkpt><trkpt lat="43.698471408336545" lon="10.732193588681435"><ele>17.0</ele><time>2026-05-01T08:31:40.998Z</time></trkpt><trkpt lat="43.69845525074065" lon="10.731954768943604"><ele>17.0</ele><time>2026-05-01T08:31:41.998Z</time></trkpt><trkpt lat="43.69843598498574" lon="10.731719952617894"><ele>17.0</ele><time>2026-05-01T08:31:42.998Z</time></trkpt><trkpt lat="43.698413477846685" lon="10.731484118285833"><ele>17.0</ele><time>2026-05-01T08:31:43.998Z</time></trkpt><trkpt lat="43.69838540234024" lon="10.731254739873002"><ele>16.666666666666668</ele><time>2026-05-01T08:31:44.998Z</time></trkpt><trkpt lat="43.69835260939358" lon="10.73102748125788"><ele>16.333333333333332</ele><time>2026-05-01T08:31:45.997Z</time></trkpt><trkpt lat="43.69831894315284" lon="10.730798430367878"><ele>16.0</ele><time>2026-05-01T08:31:46.997Z</time></trkpt><trkpt lat="43.69828670535186" lon="10.730569755316452"><ele>16.0</ele><time>2026-05-01T08:31:47.997Z</time></trkpt><trkpt lat="43.69825457412966" lon="10.730342129036082"><ele>16.0</ele><time>2026-05-01T08:31:48.997Z</time></trkpt><trkpt lat="43.69822233487853" lon="10.73011165515121"><ele>16.0</ele><time>2026-05-01T08:31:49.997Z</time></trkpt><trkpt lat="43.698188733690586" lon="10.729885320706108"><ele>15.666666666666666</ele><time>2026-05-01T08:31:50.997Z</time></trkpt><trkpt lat="43.69815482316059" lon="10.72967123555739"><ele>15.333333333333332</ele><time>2026-05-01T08:31:51.997Z</time></trkpt><trkpt lat="43.69811854057729" lon="10.729458033967713"><ele>15.0</ele><time>2026-05-01T08:31:52.997Z</time></trkpt><trkpt lat="43.69808127771231" lon="10.729239561286542"><ele>15.0</ele><time>2026-05-01T08:31:53.997Z</time></trkpt><trkpt lat="43.698049015822534" lon="10.729034080646404"><ele>15.0</ele><time>2026-05-01T08:31:54.997Z</time></trkpt><trkpt lat="43.698021139723274" lon="10.728822438785539"><ele>15.0</ele><time>2026-05-01T08:31:55.997Z</time></trkpt><trkpt lat="43.697988100079044" lon="10.728600699176662"><ele>15.0</ele><time>2026-05-01T08:31:56.997Z</time></trkpt><trkpt lat="43.69794629593606" lon="10.72836928912213"><ele>15.0</ele><time>2026-05-01T08:31:57.997Z</time></trkpt><trkpt lat="43.69792311839282" lon="10.728117721268415"><ele>15.0</ele><time>2026-05-01T08:31:59Z</time></trkpt><trkpt lat="43.69788407150525" lon="10.72785292882349"><ele>14.666666666666668</ele><time>2026-05-01T08:32:00Z</time></trkpt><trkpt lat="43.69784499728031" lon="10.727581954511935"><ele>14.333333333333334</ele><time>2026-05-01T08:32:01Z</time></trkpt><trkpt lat="43.69782369087824" lon="10.727322893694136"><ele>14.0</ele><time>2026-05-01T08:32:02Z</time></trkpt><trkpt lat="43.697784099289414" lon="10.727075614291476"><ele>14.333333333333334</ele><time>2026-05-01T08:32:03Z</time></trkpt><trkpt lat="43.697740449279934" lon="10.726823677478592"><ele>14.666666666666668</ele><time>2026-05-01T08:32:04Z</time></trkpt><trkpt lat="43.69770231229285" lon="10.726567918277214"><ele>15.0</ele><time>2026-05-01T08:32:05Z</time></trkpt><trkpt lat="43.69766613647369" lon="10.726307194443498"><ele>15.0</ele><time>2026-05-01T08:32:06Z</time></trkpt><trkpt lat="43.69762789551915" lon="10.726044137459647"><ele>15.0</ele><time>2026-05-01T08:32:07Z</time></trkpt><trkpt lat="43.69758689402604" lon="10.725780858740121"><ele>15.0</ele><time>2026-05-01T08:32:08Z</time></trkpt><trkpt lat="43.697546906095745" lon="10.725514624065863"><ele>15.0</ele><time>2026-05-01T08:32:09Z</time></trkpt><trkpt lat="43.69750706138716" lon="10.725229230619222"><ele>15.0</ele><time>2026-05-01T08:32:10Z</time></trkpt><trkpt lat="43.6974663332554" lon="10.72493718850013"><ele>15.0</ele><time>2026-05-01T08:32:11Z</time></trkpt><trkpt lat="43.69742744365127" lon="10.724675889717169"><ele>15.0</ele><time>2026-05-01T08:32:12Z</time></trkpt><trkpt lat="43.69738847271169" lon="10.724403783357928"><ele>15.0</ele><time>2026-05-01T08:32:13Z</time></trkpt><trkpt lat="43.69734741226006" lon="10.724134304370118"><ele>15.0</ele><time>2026-05-01T08:32:14Z</time></trkpt><trkpt lat="43.6973080403594" lon="10.723872075196782"><ele>15.0</ele><time>2026-05-01T08:32:15Z</time></trkpt><trkpt lat="43.697271805140005" lon="10.723631439479488"><ele>15.0</ele><time>2026-05-01T08:32:16Z</time></trkpt><trkpt lat="43.69723703363605" lon="10.723395015695733"><ele>15.0</ele><time>2026-05-01T08:32:17Z</time></trkpt><trkpt lat="43.69720200696193" lon="10.723151467494693"><ele>14.666666666666668</ele><time>2026-05-01T08:32:18Z</time></trkpt><trkpt lat="43.697166203262036" lon="10.722902443701416"><ele>14.333333333333334</ele><time>2026-05-01T08:32:19Z</time></trkpt><trkpt lat="43.69712849106495" lon="10.722668267049619"><ele>14.0</ele><time>2026-05-01T08:32:19.999Z</time></trkpt><trkpt lat="43.697089021623114" lon="10.7224544639726"><ele>14.0</ele><time>2026-05-01T08:32:20.999Z</time></trkpt><trkpt lat="43.69705554681235" lon="10.722229648829554"><ele>14.0</ele><time>2026-05-01T08:32:21.999Z</time></trkpt><trkpt lat="43.69702468509764" lon="10.721984855876604"><ele>14.0</ele><time>2026-05-01T08:32:22.999Z</time></trkpt><trkpt lat="43.696985148713985" lon="10.72172669062322"><ele>14.0</ele><time>2026-05-01T08:32:23.999Z</time></trkpt><trkpt lat="43.69694460667163" lon="10.721469082664852"><ele>14.0</ele><time>2026-05-01T08:32:24.999Z</time></trkpt><trkpt lat="43.69690741685317" lon="10.721230636036319"><ele>14.0</ele><time>2026-05-01T08:32:25.999Z</time></trkpt><trkpt lat="43.69687338614453" lon="10.721010465304646"><ele>14.666666666666668</ele><time>2026-05-01T08:32:26.999Z</time></trkpt><trkpt lat="43.69684036863215" lon="10.72078934096892"><ele>15.333333333333332</ele><time>2026-05-01T08:32:27.999Z</time></trkpt><trkpt lat="43.6968067611082" lon="10.720564036286552"><ele>16.0</ele><time>2026-05-01T08:32:28.999Z</time></trkpt><trkpt lat="43.696772435446725" lon="10.72031714848386"><ele>16.0</ele><time>2026-05-01T08:32:29.999Z</time></trkpt><trkpt lat="43.6967367717518" lon="10.720060674073636"><ele>16.0</ele><time>2026-05-01T08:32:30.999Z</time></trkpt><trkpt lat="43.69670067217754" lon="10.719801042693486"><ele>16.0</ele><time>2026-05-01T08:32:31.999Z</time></trkpt><trkpt lat="43.696665928496145" lon="10.71956478083731"><ele>16.0</ele><time>2026-05-01T08:32:32.999Z</time></trkpt><trkpt lat="43.6966311337496" lon="10.719315540859817"><ele>16.0</ele><time>2026-05-01T08:32:33.999Z</time></trkpt><trkpt lat="43.69659483016278" lon="10.719064938127623"><ele>16.0</ele><time>2026-05-01T08:32:34.999Z</time></trkpt><trkpt lat="43.696560073791886" lon="10.718828061447253"><ele>16.0</ele><time>2026-05-01T08:32:35.999Z</time></trkpt><trkpt lat="43.696525446677036" lon="10.718607301679217"><ele>16.0</ele><time>2026-05-01T08:32:36.999Z</time></trkpt><trkpt lat="43.696494995936185" lon="10.718388246153378"><ele>16.0</ele><time>2026-05-01T08:32:37.999Z</time></trkpt><trkpt lat="43.696462015564535" lon="10.718165896244411"><ele>16.0</ele><time>2026-05-01T08:32:38.999Z</time></trkpt><trkpt lat="43.69642541819788" lon="10.71794854289476"><ele>16.0</ele><time>2026-05-01T08:32:39.999Z</time></trkpt><trkpt lat="43.69638649914816" lon="10.717738920779606"><ele>16.0</ele><time>2026-05-01T08:32:40.999Z</time></trkpt><trkpt lat="43.69634476496789" lon="10.717517944859813"><ele>15.666666666666666</ele><time>2026-05-01T08:32:41.999Z</time></trkpt><trkpt lat="43.696324609046734" lon="10.717287561855219"><ele>15.333333333333332</ele><time>2026-05-01T08:32:42.999Z</time></trkpt><trkpt lat="43.69628923020224" lon="10.717049108739586"><ele>15.0</ele><time>2026-05-01T08:32:43.999Z</time></trkpt><trkpt lat="43.69625732960561" lon="10.716834099057117"><ele>14.333333333333332</ele><time>2026-05-01T08:32:44.999Z</time></trkpt><trkpt lat="43.696216469698136" lon="10.716501974231225"><ele>13.666666666666666</ele><time>2026-05-01T08:32:45.999Z</time></trkpt><trkpt lat="43.69617378443706" lon="10.716254443941635"><ele>13.0</ele><time>2026-05-01T08:32:46.999Z</time></trkpt><trkpt lat="43.6961354702384" lon="10.716005238887545"><ele>13.0</ele><time>2026-05-01T08:32:47.999Z</time></trkpt><trkpt lat="43.6961013175327" lon="10.715766894742424"><ele>13.0</ele><time>2026-05-01T08:32:48.999Z</time></trkpt><trkpt lat="43.69607331958208" lon="10.715549420495455"><ele>13.0</ele><time>2026-05-01T08:32:49.999Z</time></trkpt><trkpt lat="43.6960413001153" lon="10.715347059304056"><ele>13.666666666666666</ele><time>2026-05-01T08:32:50.999Z</time></trkpt><trkpt lat="43.696007184863745" lon="10.715138241869141"><ele>14.333333333333332</ele><time>2026-05-01T08:32:51.999Z</time></trkpt><trkpt lat="43.69597615018346" lon="10.714921804439676"><ele>15.0</ele><time>2026-05-01T08:32:52.999Z</time></trkpt><trkpt lat="43.695941268364834" lon="10.714696006806964"><ele>15.0</ele><time>2026-05-01T08:32:53.999Z</time></trkpt><trkpt lat="43.69590682226493" lon="10.714459885473932"><ele>15.0</ele><time>2026-05-01T08:32:54.999Z</time></trkpt><trkpt lat="43.695868860708735" lon="10.714222561250432"><ele>15.0</ele><time>2026-05-01T08:32:55.999Z</time></trkpt><trkpt lat="43.695838789081215" lon="10.713996399967526"><ele>15.0</ele><time>2026-05-01T08:32:56.999Z</time></trkpt><trkpt lat="43.695805024412344" lon="10.713767540022895"><ele>15.0</ele><time>2026-05-01T08:32:57.999Z</time></trkpt><trkpt lat="43.695771112482" lon="10.713534374331655"><ele>15.0</ele><time>2026-05-01T08:32:58.999Z</time></trkpt><trkpt lat="43.69574174665441" lon="10.713309663228106"><ele>15.0</ele><time>2026-05-01T08:32:59.999Z</time></trkpt><trkpt lat="43.69570972749501" lon="10.713085876034075"><ele>15.0</ele><time>2026-05-01T08:33:00.999Z</time></trkpt><trkpt lat="43.695675148188" lon="10.712860538694237"><ele>15.0</ele><time>2026-05-01T08:33:01.999Z</time></trkpt><trkpt lat="43.69564026237854" lon="10.71262544934264"><ele>15.333333333333332</ele><time>2026-05-01T08:33:02.999Z</time></trkpt><trkpt lat="43.69560698135063" lon="10.712399118845168"><ele>15.666666666666666</ele><time>2026-05-01T08:33:03.999Z</time></trkpt><trkpt lat="43.6955720998831" lon="10.712167809064345"><ele>16.0</ele><time>2026-05-01T08:33:04.999Z</time></trkpt><trkpt lat="43.695540623300616" lon="10.711951460508809"><ele>15.666666666666666</ele><time>2026-05-01T08:33:05.999Z</time></trkpt><trkpt lat="43.69550829994665" lon="10.711718839021971"><ele>15.333333333333332</ele><time>2026-05-01T08:33:06.998Z</time></trkpt><trkpt lat="43.695472533664606" lon="10.711472977596259"><ele>15.0</ele><time>2026-05-01T08:33:07.998Z</time></trkpt><trkpt lat="43.69544081438839" lon="10.711251691964947"><ele>14.5</ele><time>2026-05-01T08:33:08.998Z</time></trkpt><trkpt lat="43.69540942429234" lon="10.711044272474338"><ele>14.0</ele><time>2026-05-01T08:33:09.998Z</time></trkpt><trkpt lat="43.69537936011309" lon="10.710845501398458"><ele>13.5</ele><time>2026-05-01T08:33:10.998Z</time></trkpt><trkpt lat="43.695352368054245" lon="10.710671281824508"><ele>13.0</ele><time>2026-05-01T08:33:11.998Z</time></trkpt><trkpt lat="43.695321033184705" lon="10.7104819895036"><ele>13.0</ele><time>2026-05-01T08:33:12.998Z</time></trkpt><trkpt lat="43.69528985989879" lon="10.710294183559517"><ele>13.0</ele><time>2026-05-01T08:33:13.998Z</time></trkpt><trkpt lat="43.695261603779215" lon="10.710099620616953"><ele>13.0</ele><time>2026-05-01T08:33:14.998Z</time></trkpt><trkpt lat="43.69523362266108" lon="10.70990264819774"><ele>13.0</ele><time>2026-05-01T08:33:15.998Z</time></trkpt><trkpt lat="43.69520385200187" lon="10.709710394891614"><ele>13.5</ele><time>2026-05-01T08:33:16.998Z</time></trkpt><trkpt lat="43.69517830029117" lon="10.70952503483008"><ele>14.0</ele><time>2026-05-01T08:33:17.998Z</time></trkpt><trkpt lat="43.69515214041781" lon="10.709331838467946"><ele>14.5</ele><time>2026-05-01T08:33:18.998Z</time></trkpt><trkpt lat="43.69512939835007" lon="10.709154928700363"><ele>15.0</ele><time>2026-05-01T08:33:19.998Z</time></trkpt><trkpt lat="43.69510871379703" lon="10.708998030655676"><ele>15.0</ele><time>2026-05-01T08:33:20.998Z</time></trkpt><trkpt lat="43.695088869859475" lon="10.708848958916262"><ele>15.0</ele><time>2026-05-01T08:33:21.998Z</time></trkpt><trkpt lat="43.695067885726466" lon="10.708703843262604"><ele>15.0</ele><time>2026-05-01T08:33:22.998Z</time></trkpt><trkpt lat="43.695046361940484" lon="10.708563730676183"><ele>15.0</ele><time>2026-05-01T08:33:23.998Z</time></trkpt><trkpt lat="43.69502582498423" lon="10.708431937174696"><ele>15.0</ele><time>2026-05-01T08:33:24.998Z</time></trkpt><trkpt lat="43.695006009354685" lon="10.70830909920647"><ele>15.0</ele><time>2026-05-01T08:33:25.998Z</time></trkpt><trkpt lat="43.69498504750257" lon="10.708172578860975"><ele>15.0</ele><time>2026-05-01T08:33:26.998Z</time></trkpt><trkpt lat="43.69496237018565" lon="10.708031907983134"><ele>15.0</ele><time>2026-05-01T08:33:27.998Z</time></trkpt><trkpt lat="43.69494161733662" lon="10.707892751039477"><ele>15.0</ele><time>2026-05-01T08:33:28.998Z</time></trkpt><trkpt lat="43.69492749108696" lon="10.707773723608897"><ele>15.0</ele><time>2026-05-01T08:33:29.998Z</time></trkpt><trkpt lat="43.69491496102549" lon="10.707675815904073"><ele>14.8</ele><time>2026-05-01T08:33:30.998Z</time></trkpt><trkpt lat="43.69490446180606" lon="10.707585962153443"><ele>14.6</ele><time>2026-05-01T08:33:31.998Z</time></trkpt><trkpt lat="43.69489924548211" lon="10.70746281384383"><ele>14.399999999999999</ele><time>2026-05-01T08:33:33.998Z</time></trkpt><trkpt lat="43.69491178182405" lon="10.707351383465422"><ele>14.2</ele><time>2026-05-01T08:33:38.998Z</time></trkpt><trkpt lat="43.69492197230124" lon="10.707213267463302"><ele>14.0</ele><time>2026-05-01T08:33:40.998Z</time></trkpt><trkpt lat="43.69488145252277" lon="10.707056593535258"><ele>14.0</ele><time>2026-05-01T08:33:42.998Z</time></trkpt><trkpt lat="43.69483062230185" lon="10.706995905728615"><ele>13.999999999999998</ele><time>2026-05-01T08:33:43.998Z</time></trkpt><trkpt lat="43.69475713715988" lon="10.706937891169012"><ele>13.999999999999998</ele><time>2026-05-01T08:33:44.998Z</time></trkpt><trkpt lat="43.69464989165185" lon="10.706909521617428"><ele>14.0</ele><time>2026-05-01T08:33:45.998Z</time></trkpt><trkpt lat="43.69453594521205" lon="10.706901611089318"><ele>14.0</ele><time>2026-05-01T08:33:46.998Z</time></trkpt><trkpt lat="43.694398453442076" lon="10.706899671252742"><ele>14.25</ele><time>2026-05-01T08:33:47.998Z</time></trkpt><trkpt lat="43.69425502537684" lon="10.706873352424735"><ele>14.5</ele><time>2026-05-01T08:33:48.998Z</time></trkpt><trkpt lat="43.6941170267422" lon="10.706835675890682"><ele>14.75</ele><time>2026-05-01T08:33:49.998Z</time></trkpt><trkpt lat="43.69397868025315" lon="10.706795481243116"><ele>15.0</ele><time>2026-05-01T08:33:50.998Z</time></trkpt><trkpt lat="43.69385430303554" lon="10.706754337637859"><ele>15.0</ele><time>2026-05-01T08:33:51.998Z</time></trkpt><trkpt lat="43.69374504088952" lon="10.706708346645385"><ele>15.0</ele><time>2026-05-01T08:33:52.998Z</time></trkpt><trkpt lat="43.693641633757764" lon="10.706661501912361"><ele>15.0</ele><time>2026-05-01T08:33:53.997Z</time></trkpt><trkpt lat="43.69355321209146" lon="10.706628931636288"><ele>15.0</ele><time>2026-05-01T08:33:54.997Z</time></trkpt><trkpt lat="43.69346308821487" lon="10.7066056480233"><ele>15.0</ele><time>2026-05-01T08:33:55.997Z</time></trkpt><trkpt lat="43.69337995276798" lon="10.706598707013082"><ele>14.833333333333334</ele><time>2026-05-01T08:33:56.997Z</time></trkpt><trkpt lat="43.693292277657854" lon="10.706596088291212"><ele>14.666666666666668</ele><time>2026-05-01T08:33:57.997Z</time></trkpt><trkpt lat="43.693201849259985" lon="10.70659083113264"><ele>14.5</ele><time>2026-05-01T08:33:58.997Z</time></trkpt><trkpt lat="43.6931198498375" lon="10.706570159691001"><ele>14.333333333333334</ele><time>2026-05-01T08:33:59.997Z</time></trkpt><trkpt lat="43.693039654538346" lon="10.706513578551409"><ele>14.166666666666668</ele><time>2026-05-01T08:34:00.997Z</time></trkpt><trkpt lat="43.692974545596876" lon="10.706425841535655"><ele>14.0</ele><time>2026-05-01T08:34:01.997Z</time></trkpt><trkpt lat="43.69291479149022" lon="10.70633594900993"><ele>14.0</ele><time>2026-05-01T08:34:02.997Z</time></trkpt><trkpt lat="43.69284107717395" lon="10.706288993654216"><ele>13.999999999999998</ele><time>2026-05-01T08:34:04Z</time></trkpt><trkpt lat="43.69275570318362" lon="10.706302575908412"><ele>13.999999999999998</ele><time>2026-05-01T08:34:05Z</time></trkpt><trkpt lat="43.69267346022837" lon="10.706378745677755"><ele>14.0</ele><time>2026-05-01T08:34:06Z</time></trkpt><trkpt lat="43.692599393480144" lon="10.706496422876745"><ele>14.0</ele><time>2026-05-01T08:34:07Z</time></trkpt><trkpt lat="43.692569677073855" lon="10.70663903035866"><ele>13.666666666666668</ele><time>2026-05-01T08:34:08Z</time></trkpt><trkpt lat="43.692382519908435" lon="10.706635587468169"><ele>13.333333333333332</ele><time>2026-05-01T08:34:09Z</time></trkpt><trkpt lat="43.692262745143616" lon="10.7067136703692"><ele>13.0</ele><time>2026-05-01T08:34:10Z</time></trkpt><trkpt lat="43.69214114711118" lon="10.70677767596273"><ele>13.0</ele><time>2026-05-01T08:34:11Z</time></trkpt><trkpt lat="43.692009073346505" lon="10.706866434251518"><ele>13.0</ele><time>2026-05-01T08:34:12Z</time></trkpt><trkpt lat="43.691866829899844" lon="10.706979329593064"><ele>13.0</ele><time>2026-05-01T08:34:13Z</time></trkpt><trkpt lat="43.69172622861207" lon="10.707107251814445"><ele>13.333333333333332</ele><time>2026-05-01T08:34:14Z</time></trkpt><trkpt lat="43.691597013737855" lon="10.707240808306894"><ele>13.666666666666668</ele><time>2026-05-01T08:34:15Z</time></trkpt><trkpt lat="43.69147058002322" lon="10.707397177111757"><ele>14.0</ele><time>2026-05-01T08:34:16Z</time></trkpt><trkpt lat="43.691364141425716" lon="10.707550607478163"><ele>14.0</ele><time>2026-05-01T08:34:17Z</time></trkpt><trkpt lat="43.69127349322661" lon="10.707693551990461"><ele>14.0</ele><time>2026-05-01T08:34:18Z</time></trkpt><trkpt lat="43.69119918951136" lon="10.70782989803186"><ele>14.0</ele><time>2026-05-01T08:34:19Z</time></trkpt><trkpt lat="43.691128027639465" lon="10.707971753318065"><ele>14.0</ele><time>2026-05-01T08:34:20Z</time></trkpt><trkpt lat="43.691058322642846" lon="10.708110980917963"><ele>14.0</ele><time>2026-05-01T08:34:21Z</time></trkpt><trkpt lat="43.6909870026889" lon="10.708251492501452"><ele>14.0</ele><time>2026-05-01T08:34:22Z</time></trkpt><trkpt lat="43.69091066780305" lon="10.708391778932768"><ele>14.0</ele><time>2026-05-01T08:34:23Z</time></trkpt><trkpt lat="43.69083112148197" lon="10.708535386062373"><ele>14.0</ele><time>2026-05-01T08:34:24Z</time></trkpt><trkpt lat="43.69074294619914" lon="10.708701664424021"><ele>14.0</ele><time>2026-05-01T08:34:24.999Z</time></trkpt><trkpt lat="43.69064614705046" lon="10.70889153943096"><ele>14.0</ele><time>2026-05-01T08:34:25.999Z</time></trkpt><trkpt lat="43.69053330586761" lon="10.709066603878163"><ele>14.0</ele><time>2026-05-01T08:34:26.999Z</time></trkpt><trkpt lat="43.69045107577174" lon="10.70925207400792"><ele>14.0</ele><time>2026-05-01T08:34:27.999Z</time></trkpt><trkpt lat="43.69036641132217" lon="10.709405107682697"><ele>14.0</ele><time>2026-05-01T08:34:28.999Z</time></trkpt><trkpt lat="43.690289476828646" lon="10.709557855597197"><ele>14.0</ele><time>2026-05-01T08:34:29.999Z</time></trkpt><trkpt lat="43.69019431258985" lon="10.709702831035814"><ele>14.0</ele><time>2026-05-01T08:34:30.999Z</time></trkpt><trkpt lat="43.690103645761255" lon="10.709869463586314"><ele>14.0</ele><time>2026-05-01T08:34:31.999Z</time></trkpt><trkpt lat="43.690025446142265" lon="10.710047525838107"><ele>14.0</ele><time>2026-05-01T08:34:32.999Z</time></trkpt><trkpt lat="43.68993018826802" lon="10.71021233973445"><ele>14.0</ele><time>2026-05-01T08:34:33.999Z</time></trkpt><trkpt lat="43.68983296488782" lon="10.71037972236482"><ele>14.0</ele><time>2026-05-01T08:34:34.999Z</time></trkpt><trkpt lat="43.68973614106709" lon="10.710540379749538"><ele>14.0</ele><time>2026-05-01T08:34:35.999Z</time></trkpt><trkpt lat="43.68964315058049" lon="10.71069023296382"><ele>14.0</ele><time>2026-05-01T08:34:36.999Z</time></trkpt><trkpt lat="43.68954787681027" lon="10.710842319293226"><ele>14.0</ele><time>2026-05-01T08:34:37.999Z</time></trkpt><trkpt lat="43.68945026352605" lon="10.71098984239585"><ele>14.25</ele><time>2026-05-01T08:34:38.999Z</time></trkpt><trkpt lat="43.68935293008006" lon="10.711136814604785"><ele>14.5</ele><time>2026-05-01T08:34:39.999Z</time></trkpt><trkpt lat="43.689243299766396" lon="10.71126473573344"><ele>14.75</ele><time>2026-05-01T08:34:40.999Z</time></trkpt><trkpt lat="43.689146568478186" lon="10.711404120079107"><ele>15.0</ele><time>2026-05-01T08:34:41.999Z</time></trkpt><trkpt lat="43.689050449889166" lon="10.711539543617313"><ele>15.0</ele><time>2026-05-01T08:34:42.999Z</time></trkpt><trkpt lat="43.68895829743163" lon="10.711664384768898"><ele>15.0</ele><time>2026-05-01T08:34:43.999Z</time></trkpt><trkpt lat="43.68887969705917" lon="10.711801514778342"><ele>15.0</ele><time>2026-05-01T08:34:44.999Z</time></trkpt><trkpt lat="43.68878695080551" lon="10.711924223269412"><ele>15.0</ele><time>2026-05-01T08:34:45.999Z</time></trkpt><trkpt lat="43.688696852693695" lon="10.712049760364756"><ele>15.0</ele><time>2026-05-01T08:34:46.999Z</time></trkpt><trkpt lat="43.68860529655237" lon="10.7121782721186"><ele>15.0</ele><time>2026-05-01T08:34:47.999Z</time></trkpt><trkpt lat="43.68850061424013" lon="10.712289018760321"><ele>15.0</ele><time>2026-05-01T08:34:48.999Z</time></trkpt><trkpt lat="43.68841501664848" lon="10.712437001038207"><ele>15.0</ele><time>2026-05-01T08:34:49.999Z</time></trkpt><trkpt lat="43.688329384667895" lon="10.712551299547693"><ele>15.0</ele><time>2026-05-01T08:34:50.999Z</time></trkpt><trkpt lat="43.68822801442566" lon="10.712688636310473"><ele>15.0</ele><time>2026-05-01T08:34:51.999Z</time></trkpt><trkpt lat="43.68813267942713" lon="10.712820628406027"><ele>15.0</ele><time>2026-05-01T08:34:52.999Z</time></trkpt><trkpt lat="43.68803110878556" lon="10.712950312517611"><ele>15.0</ele><time>2026-05-01T08:34:53.999Z</time></trkpt><trkpt lat="43.687932807348794" lon="10.713086963902684"><ele>15.0</ele><time>2026-05-01T08:34:54.999Z</time></trkpt><trkpt lat="43.687832338597445" lon="10.713222219748632"><ele>15.0</ele><time>2026-05-01T08:34:55.999Z</time></trkpt><trkpt lat="43.68774044926772" lon="10.713348460457468"><ele>15.0</ele><time>2026-05-01T08:34:56.999Z</time></trkpt><trkpt lat="43.68764923044857" lon="10.713477685050995"><ele>15.0</ele><time>2026-05-01T08:34:57.999Z</time></trkpt><trkpt lat="43.687554031484865" lon="10.713608719766134"><ele>14.25</ele><time>2026-05-01T08:34:58.999Z</time></trkpt><trkpt lat="43.68745881044221" lon="10.713736440414802"><ele>13.5</ele><time>2026-05-01T08:34:59.999Z</time></trkpt><trkpt lat="43.687368417455296" lon="10.713866417506221"><ele>12.75</ele><time>2026-05-01T08:35:00.999Z</time></trkpt><trkpt lat="43.687270962883716" lon="10.713991842915894"><ele>12.0</ele><time>2026-05-01T08:35:01.999Z</time></trkpt><trkpt lat="43.68717265313311" lon="10.714124510411938"><ele>12.0</ele><time>2026-05-01T08:35:02.999Z</time></trkpt><trkpt lat="43.687076312016515" lon="10.714259025481745"><ele>12.0</ele><time>2026-05-01T08:35:03.999Z</time></trkpt><trkpt lat="43.68698128984801" lon="10.71439380212769"><ele>12.0</ele><time>2026-05-01T08:35:04.999Z</time></trkpt><trkpt lat="43.68688134362825" lon="10.714529017478558"><ele>12.0</ele><time>2026-05-01T08:35:05.999Z</time></trkpt><trkpt lat="43.68677996902194" lon="10.71466731055255"><ele>14.333333333333332</ele><time>2026-05-01T08:35:06.999Z</time></trkpt><trkpt lat="43.686674470784254" lon="10.71481306184794"><ele>16.666666666666664</ele><time>2026-05-01T08:35:07.999Z</time></trkpt><trkpt lat="43.68656872877171" lon="10.714962435089586"><ele>19.0</ele><time>2026-05-01T08:35:08.999Z</time></trkpt><trkpt lat="43.686463336815876" lon="10.71510862346575"><ele>18.75</ele><time>2026-05-01T08:35:09.999Z</time></trkpt><trkpt lat="43.686362747735814" lon="10.71524599739142"><ele>18.5</ele><time>2026-05-01T08:35:10.999Z</time></trkpt><trkpt lat="43.68626903712729" lon="10.715364644198218"><ele>18.25</ele><time>2026-05-01T08:35:11.998Z</time></trkpt><trkpt lat="43.686172084540544" lon="10.715498566998884"><ele>18.0</ele><time>2026-05-01T08:35:12.998Z</time></trkpt><trkpt lat="43.68607132011682" lon="10.715632020359148"><ele>18.0</ele><time>2026-05-01T08:35:13.998Z</time></trkpt><trkpt lat="43.68596339823293" lon="10.715782779243758"><ele>18.0</ele><time>2026-05-01T08:35:14.998Z</time></trkpt><trkpt lat="43.6858520304753" lon="10.715936578420544"><ele>18.0</ele><time>2026-05-01T08:35:15.998Z</time></trkpt><trkpt lat="43.685739516119725" lon="10.716091435123046"><ele>18.0</ele><time>2026-05-01T08:35:16.998Z</time></trkpt><trkpt lat="43.685619765741556" lon="10.71625515340083"><ele>18.0</ele><time>2026-05-01T08:35:17.998Z</time></trkpt><trkpt lat="43.68550713934404" lon="10.716409497945131"><ele>18.0</ele><time>2026-05-01T08:35:18.998Z</time></trkpt><trkpt lat="43.68540456809692" lon="10.716549599292973"><ele>18.0</ele><time>2026-05-01T08:35:19.998Z</time></trkpt><trkpt lat="43.685305537051086" lon="10.71668215893158"><ele>18.0</ele><time>2026-05-01T08:35:20.998Z</time></trkpt><trkpt lat="43.685204262745096" lon="10.716823926525295"><ele>18.0</ele><time>2026-05-01T08:35:21.998Z</time></trkpt><trkpt lat="43.68509958233451" lon="10.7169634070871"><ele>18.0</ele><time>2026-05-01T08:35:22.998Z</time></trkpt><trkpt lat="43.68499354389414" lon="10.717106177561668"><ele>17.5</ele><time>2026-05-01T08:35:23.998Z</time></trkpt><trkpt lat="43.68488771087655" lon="10.717251073361863"><ele>17.0</ele><time>2026-05-01T08:35:24.998Z</time></trkpt><trkpt lat="43.6847837418486" lon="10.717393810505358"><ele>16.5</ele><time>2026-05-01T08:35:25.998Z</time></trkpt><trkpt lat="43.684676732218634" lon="10.717540036762902"><ele>16.0</ele><time>2026-05-01T08:35:26.998Z</time></trkpt><trkpt lat="43.68457280771346" lon="10.717685572742168"><ele>16.333333333333332</ele><time>2026-05-01T08:35:27.998Z</time></trkpt><trkpt lat="43.684468096556365" lon="10.717829924791332"><ele>16.666666666666668</ele><time>2026-05-01T08:35:28.998Z</time></trkpt><trkpt lat="43.68436176026326" lon="10.717977061122046"><ele>17.0</ele><time>2026-05-01T08:35:29.998Z</time></trkpt><trkpt lat="43.68424304218836" lon="10.718109754726331"><ele>17.0</ele><time>2026-05-01T08:35:30.998Z</time></trkpt><trkpt lat="43.68414471219082" lon="10.71827367211321"><ele>17.0</ele><time>2026-05-01T08:35:31.998Z</time></trkpt><trkpt lat="43.684034812530115" lon="10.718419498640603"><ele>17.0</ele><time>2026-05-01T08:35:32.998Z</time></trkpt><trkpt lat="43.68392441554111" lon="10.71856790809746"><ele>17.333333333333336</ele><time>2026-05-01T08:35:33.998Z</time></trkpt><trkpt lat="43.683816295256854" lon="10.718717139874084"><ele>17.666666666666668</ele><time>2026-05-01T08:35:34.998Z</time></trkpt><trkpt lat="43.68370815470873" lon="10.718866758919386"><ele>18.0</ele><time>2026-05-01T08:35:35.998Z</time></trkpt><trkpt lat="43.68360068034716" lon="10.719015379513671"><ele>17.333333333333332</ele><time>2026-05-01T08:35:36.998Z</time></trkpt><trkpt lat="43.68349147103961" lon="10.719165163237033"><ele>16.666666666666664</ele><time>2026-05-01T08:35:37.998Z</time></trkpt><trkpt lat="43.68338221861829" lon="10.719312936487201"><ele>16.0</ele><time>2026-05-01T08:35:38.998Z</time></trkpt><trkpt lat="43.683272520054764" lon="10.719460227493824"><ele>16.0</ele><time>2026-05-01T08:35:39.998Z</time></trkpt><trkpt lat="43.68316362911006" lon="10.719607189247442"><ele>16.0</ele><time>2026-05-01T08:35:40.998Z</time></trkpt><trkpt lat="43.68305850555887" lon="10.719754328263171"><ele>16.0</ele><time>2026-05-01T08:35:41.998Z</time></trkpt><trkpt lat="43.6829532878646" lon="10.719901526875221"><ele>16.0</ele><time>2026-05-01T08:35:42.998Z</time></trkpt><trkpt lat="43.68283343483311" lon="10.720036957696903"><ele>16.0</ele><time>2026-05-01T08:35:43.998Z</time></trkpt><trkpt lat="43.68272287365557" lon="10.720186902663176"><ele>16.0</ele><time>2026-05-01T08:35:44.998Z</time></trkpt><trkpt lat="43.68262325800839" lon="10.720353309137794"><ele>16.666666666666664</ele><time>2026-05-01T08:35:45.998Z</time></trkpt><trkpt lat="43.6824999729444" lon="10.72048920483072"><ele>17.333333333333332</ele><time>2026-05-01T08:35:46.998Z</time></trkpt><trkpt lat="43.682389081037286" lon="10.720639323439574"><ele>18.0</ele><time>2026-05-01T08:35:47.998Z</time></trkpt><trkpt lat="43.68228005654972" lon="10.72078547022757"><ele>18.0</ele><time>2026-05-01T08:35:48.998Z</time></trkpt><trkpt lat="43.68216800836639" lon="10.720935669976884"><ele>18.0</ele><time>2026-05-01T08:35:49.998Z</time></trkpt><trkpt lat="43.68205910500141" lon="10.721081654113704"><ele>18.0</ele><time>2026-05-01T08:35:50.998Z</time></trkpt><trkpt lat="43.68195114812289" lon="10.721221530344955"><ele>18.0</ele><time>2026-05-01T08:35:51.998Z</time></trkpt><trkpt lat="43.681845442169596" lon="10.721352099308032"><ele>18.0</ele><time>2026-05-01T08:35:52.998Z</time></trkpt><trkpt lat="43.68174813294688" lon="10.721465750564764"><ele>18.0</ele><time>2026-05-01T08:35:53.998Z</time></trkpt><trkpt lat="43.681652650452776" lon="10.72157329211975"><ele>18.0</ele><time>2026-05-01T08:35:54.998Z</time></trkpt><trkpt lat="43.68156659911943" lon="10.721692897991254"><ele>18.0</ele><time>2026-05-01T08:35:55.998Z</time></trkpt><trkpt lat="43.681465161409186" lon="10.721793281922782"><ele>18.0</ele><time>2026-05-01T08:35:56.998Z</time></trkpt><trkpt lat="43.68136051961442" lon="10.721896824298346"><ele>18.0</ele><time>2026-05-01T08:35:57.997Z</time></trkpt><trkpt lat="43.681257145959464" lon="10.721997392661596"><ele>18.0</ele><time>2026-05-01T08:35:58.997Z</time></trkpt><trkpt lat="43.68115054868599" lon="10.722099940871258"><ele>17.75</ele><time>2026-05-01T08:35:59.997Z</time></trkpt><trkpt lat="43.68103047629981" lon="10.722181848613372"><ele>17.5</ele><time>2026-05-01T08:36:00.997Z</time></trkpt><trkpt lat="43.6809092438917" lon="10.72228084346667"><ele>17.25</ele><time>2026-05-01T08:36:01.997Z</time></trkpt><trkpt lat="43.680771625841764" lon="10.722402620904607"><ele>17.0</ele><time>2026-05-01T08:36:02.997Z</time></trkpt><trkpt lat="43.68068696210345" lon="10.722481032049945"><ele>17.0</ele><time>2026-05-01T08:36:03.997Z</time></trkpt><trkpt lat="43.68058131506188" lon="10.722561100717666"><ele>17.0</ele><time>2026-05-01T08:36:04.997Z</time></trkpt><trkpt lat="43.68048494135374" lon="10.722623927271805"><ele>17.0</ele><time>2026-05-01T08:36:05.997Z</time></trkpt><trkpt lat="43.68039362986414" lon="10.722685933392988"><ele>17.0</ele><time>2026-05-01T08:36:06.997Z</time></trkpt><trkpt lat="43.68030031619241" lon="10.72274429406744"><ele>17.0</ele><time>2026-05-01T08:36:07.997Z</time></trkpt><trkpt lat="43.680192908132085" lon="10.722783908882557"><ele>17.2</ele><time>2026-05-01T08:36:09Z</time></trkpt><trkpt lat="43.680103104712586" lon="10.722858917311404"><ele>17.4</ele><time>2026-05-01T08:36:10Z</time></trkpt><trkpt lat="43.680010222039535" lon="10.722909981900246"><ele>17.6</ele><time>2026-05-01T08:36:11Z</time></trkpt><trkpt lat="43.6799225033217" lon="10.722958583732828"><ele>17.8</ele><time>2026-05-01T08:36:12Z</time></trkpt><trkpt lat="43.67982440663037" lon="10.723009693271297"><ele>18.0</ele><time>2026-05-01T08:36:13Z</time></trkpt><trkpt lat="43.67971782271609" lon="10.723058737096377"><ele>18.0</ele><time>2026-05-01T08:36:14Z</time></trkpt><trkpt lat="43.679615477948765" lon="10.723104407805543"><ele>18.0</ele><time>2026-05-01T08:36:15Z</time></trkpt><trkpt lat="43.67952261358536" lon="10.723146675350433"><ele>18.0</ele><time>2026-05-01T08:36:16Z</time></trkpt><trkpt lat="43.67943346292675" lon="10.723182186668414"><ele>18.0</ele><time>2026-05-01T08:36:17Z</time></trkpt><trkpt lat="43.679345196051365" lon="10.723218136671923"><ele>18.0</ele><time>2026-05-01T08:36:18Z</time></trkpt><trkpt lat="43.67924897256702" lon="10.723260112160084"><ele>18.2</ele><time>2026-05-01T08:36:19Z</time></trkpt><trkpt lat="43.67912950090859" lon="10.723297748880336"><ele>18.4</ele><time>2026-05-01T08:36:20Z</time></trkpt><trkpt lat="43.67903025751159" lon="10.723356913312978"><ele>18.599999999999998</ele><time>2026-05-01T08:36:21Z</time></trkpt><trkpt lat="43.67892504630683" lon="10.723400841189816"><ele>18.8</ele><time>2026-05-01T08:36:22Z</time></trkpt><trkpt lat="43.67883174339286" lon="10.72343953722909"><ele>19.0</ele><time>2026-05-01T08:36:23Z</time></trkpt><trkpt lat="43.67874087079959" lon="10.723473642507514"><ele>19.0</ele><time>2026-05-01T08:36:24Z</time></trkpt><trkpt lat="43.67867733956959" lon="10.723497552653386"><ele>19.0</ele><time>2026-05-01T08:36:25Z</time></trkpt><trkpt lat="43.67861268698963" lon="10.723522357095161"><ele>19.0</ele><time>2026-05-01T08:36:26Z</time></trkpt><trkpt lat="43.67852009835781" lon="10.723565846957273"><ele>19.0</ele><time>2026-05-01T08:36:28Z</time></trkpt><trkpt lat="43.67841394171639" lon="10.723634317250584"><ele>19.0</ele><time>2026-05-01T08:36:30Z</time></trkpt><trkpt lat="43.67834312293708" lon="10.723680378319541"><ele>19.0</ele><time>2026-05-01T08:36:30.999Z</time></trkpt><trkpt lat="43.67826843491906" lon="10.723706157860189"><ele>18.8</ele><time>2026-05-01T08:36:31.999Z</time></trkpt><trkpt lat="43.67817326207551" lon="10.723726528936625"><ele>18.599999999999998</ele><time>2026-05-01T08:36:32.999Z</time></trkpt><trkpt lat="43.67809905497259" lon="10.72377666698224"><ele>18.4</ele><time>2026-05-01T08:36:33.999Z</time></trkpt><trkpt lat="43.67804519741783" lon="10.72386930663285"><ele>18.2</ele><time>2026-05-01T08:36:34.999Z</time></trkpt><trkpt lat="43.67802102270857" lon="10.723994673380886"><ele>18.0</ele><time>2026-05-01T08:36:35.999Z</time></trkpt><trkpt lat="43.678041962558076" lon="10.724128475424527"><ele>18.0</ele><time>2026-05-01T08:36:36.999Z</time></trkpt><trkpt lat="43.67809624664416" lon="10.724247129502013"><ele>18.0</ele><time>2026-05-01T08:36:37.999Z</time></trkpt><trkpt lat="43.678166818481195" lon="10.724331381661415"><ele>18.0</ele><time>2026-05-01T08:36:38.999Z</time></trkpt><trkpt lat="43.6782604620419" lon="10.724387819553858"><ele>18.0</ele><time>2026-05-01T08:36:39.999Z</time></trkpt><trkpt lat="43.67836586402108" lon="10.724414308920407"><ele>18.0</ele><time>2026-05-01T08:36:40.999Z</time></trkpt><trkpt lat="43.678480532151525" lon="10.72442847617912"><ele>18.25</ele><time>2026-05-01T08:36:41.999Z</time></trkpt><trkpt lat="43.67859303090721" lon="10.724432406605812"><ele>18.5</ele><time>2026-05-01T08:36:42.999Z</time></trkpt><trkpt lat="43.67869371968825" lon="10.724436849481398"><ele>18.75</ele><time>2026-05-01T08:36:43.999Z</time></trkpt><trkpt lat="43.678801822120064" lon="10.724463822839105"><ele>19.0</ele><time>2026-05-01T08:36:44.999Z</time></trkpt><trkpt lat="43.67891997449146" lon="10.724534208370908"><ele>19.333333333333332</ele><time>2026-05-01T08:36:45.999Z</time></trkpt><trkpt lat="43.67902805178786" lon="10.724657816541539"><ele>19.666666666666668</ele><time>2026-05-01T08:36:46.999Z</time></trkpt><trkpt lat="43.67911632907606" lon="10.724829840078243"><ele>20.0</ele><time>2026-05-01T08:36:47.999Z</time></trkpt><trkpt lat="43.67919286508382" lon="10.725026333699466"><ele>20.0</ele><time>2026-05-01T08:36:48.999Z</time></trkpt><trkpt lat="43.67926694894853" lon="10.725211739283198"><ele>20.0</ele><time>2026-05-01T08:36:49.999Z</time></trkpt><trkpt lat="43.67935230184766" lon="10.725390776906275"><ele>20.0</ele><time>2026-05-01T08:36:50.999Z</time></trkpt><trkpt lat="43.679444735943385" lon="10.725594269872815"><ele>19.666666666666668</ele><time>2026-05-01T08:36:51.999Z</time></trkpt><trkpt lat="43.6795305328468" lon="10.725786560005982"><ele>19.333333333333332</ele><time>2026-05-01T08:36:52.999Z</time></trkpt><trkpt lat="43.679617590536765" lon="10.725978622251146"><ele>19.0</ele><time>2026-05-01T08:36:53.999Z</time></trkpt><trkpt lat="43.679712977502454" lon="10.726183932126341"><ele>18.666666666666664</ele><time>2026-05-01T08:36:54.999Z</time></trkpt><trkpt lat="43.67980266344782" lon="10.726374347475664"><ele>18.333333333333332</ele><time>2026-05-01T08:36:55.999Z</time></trkpt><trkpt lat="43.67988340643635" lon="10.726547414549312"><ele>18.0</ele><time>2026-05-01T08:36:56.999Z</time></trkpt><trkpt lat="43.6799619350018" lon="10.72671982752609"><ele>18.0</ele><time>2026-05-01T08:36:57.999Z</time></trkpt><trkpt lat="43.68003118893746" lon="10.726882272842618"><ele>18.0</ele><time>2026-05-01T08:36:58.999Z</time></trkpt><trkpt lat="43.680099882472895" lon="10.72704140484657"><ele>18.0</ele><time>2026-05-01T08:36:59.999Z</time></trkpt><trkpt lat="43.68017242209316" lon="10.727199781124119"><ele>18.0</ele><time>2026-05-01T08:37:00.999Z</time></trkpt><trkpt lat="43.680234320891266" lon="10.727365706121866"><ele>17.75</ele><time>2026-05-01T08:37:01.999Z</time></trkpt><trkpt lat="43.68030431716867" lon="10.727521016202958"><ele>17.5</ele><time>2026-05-01T08:37:02.999Z</time></trkpt><trkpt lat="43.68037050117748" lon="10.727663527518368"><ele>17.25</ele><time>2026-05-01T08:37:03.999Z</time></trkpt><trkpt lat="43.68043571780257" lon="10.727807875634552"><ele>17.0</ele><time>2026-05-01T08:37:04.999Z</time></trkpt><trkpt lat="43.68049910537197" lon="10.727948976722256"><ele>16.75</ele><time>2026-05-01T08:37:05.999Z</time></trkpt><trkpt lat="43.680573825004494" lon="10.728076920981664"><ele>16.5</ele><time>2026-05-01T08:37:06.999Z</time></trkpt><trkpt lat="43.68062537496731" lon="10.72823473202758"><ele>16.25</ele><time>2026-05-01T08:37:07.999Z</time></trkpt><trkpt lat="43.68068628179472" lon="10.728387089733822"><ele>16.0</ele><time>2026-05-01T08:37:08.999Z</time></trkpt><trkpt lat="43.68075666774383" lon="10.728534393454684"><ele>16.0</ele><time>2026-05-01T08:37:09.999Z</time></trkpt><trkpt lat="43.68082991205749" lon="10.728684561589786"><ele>16.0</ele><time>2026-05-01T08:37:10.999Z</time></trkpt><trkpt lat="43.68089840229966" lon="10.728830577635707"><ele>16.0</ele><time>2026-05-01T08:37:11.999Z</time></trkpt><trkpt lat="43.680962299964335" lon="10.728969087912375"><ele>16.0</ele><time>2026-05-01T08:37:12.999Z</time></trkpt><trkpt lat="43.68101686716241" lon="10.729089923319608"><ele>16.0</ele><time>2026-05-01T08:37:13.999Z</time></trkpt><trkpt lat="43.68106940830895" lon="10.72920964177711"><ele>16.0</ele><time>2026-05-01T08:37:14.999Z</time></trkpt><trkpt lat="43.68111744631434" lon="10.72932190412677"><ele>16.0</ele><time>2026-05-01T08:37:15.999Z</time></trkpt><trkpt lat="43.68116833528652" lon="10.729434357462495"><ele>16.0</ele><time>2026-05-01T08:37:16.998Z</time></trkpt><trkpt lat="43.68121849624026" lon="10.729544388602143"><ele>16.0</ele><time>2026-05-01T08:37:17.998Z</time></trkpt><trkpt lat="43.68126281352507" lon="10.729642570574233"><ele>16.166666666666664</ele><time>2026-05-01T08:37:18.998Z</time></trkpt><trkpt lat="43.6813002439356" lon="10.729727738557422"><ele>16.333333333333332</ele><time>2026-05-01T08:37:19.998Z</time></trkpt><trkpt lat="43.68133362619563" lon="10.729806599417135"><ele>16.5</ele><time>2026-05-01T08:37:20.998Z</time></trkpt><trkpt lat="43.681367165408204" lon="10.729881015900974"><ele>16.666666666666668</ele><time>2026-05-01T08:37:21.998Z</time></trkpt><trkpt lat="43.68143474413964" lon="10.730026373639781"><ele>16.833333333333336</ele><time>2026-05-01T08:37:23.998Z</time></trkpt><trkpt lat="43.68147101054562" lon="10.730105935681735"><ele>17.0</ele><time>2026-05-01T08:37:24.998Z</time></trkpt><trkpt lat="43.6815097986309" lon="10.730192962677558"><ele>17.0</ele><time>2026-05-01T08:37:25.998Z</time></trkpt><trkpt lat="43.68154714294468" lon="10.73027486098345"><ele>17.0</ele><time>2026-05-01T08:37:26.998Z</time></trkpt><trkpt lat="43.681598998853296" lon="10.730381455787088"><ele>17.0</ele><time>2026-05-01T08:37:28.998Z</time></trkpt><trkpt lat="43.68163669843446" lon="10.730467974565832"><ele>17.0</ele><time>2026-05-01T08:37:30.998Z</time></trkpt><trkpt lat="43.6816727901494" lon="10.730542995524056"><ele>17.0</ele><time>2026-05-01T08:37:32.998Z</time></trkpt><trkpt lat="43.68171932412388" lon="10.730638072193067"><ele>17.0</ele><time>2026-05-01T08:37:35.998Z</time></trkpt><trkpt lat="43.68175659518506" lon="10.730719314873838"><ele>17.0</ele><time>2026-05-01T08:37:38.998Z</time></trkpt><trkpt lat="43.6818096352517" lon="10.730826436953125"><ele>17.0</ele><time>2026-05-01T08:37:41.998Z</time></trkpt><trkpt lat="43.681849339839246" lon="10.730896808384912"><ele>17.0</ele><time>2026-05-01T08:37:42.998Z</time></trkpt><trkpt lat="43.68191434565175" lon="10.731013047986456"><ele>17.0</ele><time>2026-05-01T08:37:44.998Z</time></trkpt><trkpt lat="43.68196773778129" lon="10.731100438592703"><ele>17.0</ele><time>2026-05-01T08:37:45.998Z</time></trkpt><trkpt lat="43.682038414899104" lon="10.731201668012165"><ele>17.0</ele><time>2026-05-01T08:37:46.998Z</time></trkpt><trkpt lat="43.68211890976934" lon="10.731327725002261"><ele>17.25</ele><time>2026-05-01T08:37:47.998Z</time></trkpt><trkpt lat="43.68221860990386" lon="10.73149183100705"><ele>17.5</ele><time>2026-05-01T08:37:48.998Z</time></trkpt><trkpt lat="43.68232302711676" lon="10.73166639429276"><ele>17.75</ele><time>2026-05-01T08:37:49.998Z</time></trkpt><trkpt lat="43.68230028844611" lon="10.731580108892619"><ele>18.0</ele><time>2026-05-01T08:37:50.998Z</time></trkpt><trkpt lat="43.68236182675177" lon="10.731685632311756"><ele>18.0</ele><time>2026-05-01T08:37:51.998Z</time></trkpt><trkpt lat="43.68244145680208" lon="10.731801992858186"><ele>18.0</ele><time>2026-05-01T08:37:52.998Z</time></trkpt><trkpt lat="43.682532240219324" lon="10.731927891839542"><ele>18.0</ele><time>2026-05-01T08:37:53.998Z</time></trkpt><trkpt lat="43.682623462068534" lon="10.732065787953934"><ele>18.0</ele><time>2026-05-01T08:37:54.998Z</time></trkpt><trkpt lat="43.68271849413316" lon="10.732211038354617"><ele>18.5</ele><time>2026-05-01T08:37:55.998Z</time></trkpt><trkpt lat="43.68281585937977" lon="10.732360097558116"><ele>19.0</ele><time>2026-05-01T08:37:56.998Z</time></trkpt><trkpt lat="43.68290251267584" lon="10.732487416881435"><ele>19.5</ele><time>2026-05-01T08:37:57.998Z</time></trkpt><trkpt lat="43.68299426825526" lon="10.732628886627017"><ele>20.0</ele><time>2026-05-01T08:37:58.998Z</time></trkpt><trkpt lat="43.683091896021274" lon="10.732780110691516"><ele>20.0</ele><time>2026-05-01T08:37:59.998Z</time></trkpt><trkpt lat="43.68319065330975" lon="10.732927211328436"><ele>20.0</ele><time>2026-05-01T08:38:00.998Z</time></trkpt><trkpt lat="43.683291717226226" lon="10.733077104074729"><ele>20.0</ele><time>2026-05-01T08:38:01.998Z</time></trkpt><trkpt lat="43.683387723323904" lon="10.73322588302893"><ele>20.0</ele><time>2026-05-01T08:38:02.997Z</time></trkpt><trkpt lat="43.68348963073795" lon="10.733384522049093"><ele>20.0</ele><time>2026-05-01T08:38:03.997Z</time></trkpt><trkpt lat="43.6835879839695" lon="10.733535237157515"><ele>20.0</ele><time>2026-05-01T08:38:04.997Z</time></trkpt><trkpt lat="43.68367849818353" lon="10.733671522071452"><ele>20.0</ele><time>2026-05-01T08:38:05.997Z</time></trkpt><trkpt lat="43.68376323192158" lon="10.733801587089943"><ele>20.0</ele><time>2026-05-01T08:38:06.997Z</time></trkpt><trkpt lat="43.68384484759562" lon="10.73392132844003"><ele>19.8</ele><time>2026-05-01T08:38:07.997Z</time></trkpt><trkpt lat="43.683917380033165" lon="10.734033214367663"><ele>19.6</ele><time>2026-05-01T08:38:08.997Z</time></trkpt><trkpt lat="43.68398390402488" lon="10.734130006764774"><ele>19.4</ele><time>2026-05-01T08:38:09.997Z</time></trkpt><trkpt lat="43.684049110145054" lon="10.734225488938264"><ele>19.2</ele><time>2026-05-01T08:38:10.997Z</time></trkpt><trkpt lat="43.684116016541175" lon="10.734324477179268"><ele>19.0</ele><time>2026-05-01T08:38:11.997Z</time></trkpt><trkpt lat="43.68416799062532" lon="10.734399642396255"><ele>19.0</ele><time>2026-05-01T08:38:12.997Z</time></trkpt><trkpt lat="43.68422696871881" lon="10.734475722575622"><ele>19.0</ele><time>2026-05-01T08:38:14Z</time></trkpt><trkpt lat="43.6842834028382" lon="10.734543002875272"><ele>19.0</ele><time>2026-05-01T08:38:15Z</time></trkpt><trkpt lat="43.6843444109933" lon="10.734656986902063"><ele>19.0</ele><time>2026-05-01T08:38:17Z</time></trkpt><trkpt lat="43.68441984399414" lon="10.73475053057376"><ele>19.0</ele><time>2026-05-01T08:38:19Z</time></trkpt><trkpt lat="43.68442837057164" lon="10.734853458660051"><ele>19.0</ele><time>2026-05-01T08:38:20Z</time></trkpt><trkpt lat="43.68444087828373" lon="10.73496648183581"><ele>19.0</ele><time>2026-05-01T08:38:21Z</time></trkpt><trkpt lat="43.68444016295207" lon="10.735056898152367"><ele>19.0</ele><time>2026-05-01T08:38:22Z</time></trkpt><trkpt lat="43.68424711313693" lon="10.735087185573487"><ele>19.0</ele><time>2026-05-01T08:38:23Z</time></trkpt><trkpt lat="43.68413435434248" lon="10.735135678057906"><ele>19.0</ele><time>2026-05-01T08:38:24Z</time></trkpt><trkpt lat="43.68402482905762" lon="10.735183387030904"><ele>19.0</ele><time>2026-05-01T08:38:25Z</time></trkpt><trkpt lat="43.68392550453772" lon="10.735223134067951"><ele>19.0</ele><time>2026-05-01T08:38:26Z</time></trkpt><trkpt lat="43.68381446556716" lon="10.735275302803263"><ele>19.0</ele><time>2026-05-01T08:38:27Z</time></trkpt><trkpt lat="43.683685186570344" lon="10.73533767661411"><ele>19.0</ele><time>2026-05-01T08:38:28Z</time></trkpt><trkpt lat="43.68354733750204" lon="10.735395473502773"><ele>19.0</ele><time>2026-05-01T08:38:29Z</time></trkpt><trkpt lat="43.68341634046611" lon="10.735450916837834"><ele>19.0</ele><time>2026-05-01T08:38:30Z</time></trkpt><trkpt lat="43.68329987868371" lon="10.735493176437593"><ele>19.0</ele><time>2026-05-01T08:38:31Z</time></trkpt><trkpt lat="43.68318373074423" lon="10.735532742137284"><ele>19.0</ele><time>2026-05-01T08:38:32Z</time></trkpt><trkpt lat="43.68307988201789" lon="10.7355685715105"><ele>19.0</ele><time>2026-05-01T08:38:33Z</time></trkpt><trkpt lat="43.68299397860578" lon="10.73561049777078"><ele>19.0</ele><time>2026-05-01T08:38:34Z</time></trkpt><trkpt lat="43.68291777864428" lon="10.735648713464801"><ele>19.0</ele><time>2026-05-01T08:38:35Z</time></trkpt><trkpt lat="43.68285183783731" lon="10.735735185619397"><ele>19.0</ele><time>2026-05-01T08:38:36Z</time></trkpt><trkpt lat="43.68284914918067" lon="10.735909050746399"><ele>19.0</ele><time>2026-05-01T08:38:37Z</time></trkpt><trkpt lat="43.68284735680179" lon="10.736068334858613"><ele>19.0</ele><time>2026-05-01T08:38:38Z</time></trkpt><trkpt lat="43.68281713155066" lon="10.736239084889512"><ele>19.0</ele><time>2026-05-01T08:38:38.999Z</time></trkpt><trkpt lat="43.68280345173171" lon="10.736412319613018"><ele>19.0</ele><time>2026-05-01T08:38:39.999Z</time></trkpt><trkpt lat="43.68278948184058" lon="10.736589099898955"><ele>19.0</ele><time>2026-05-01T08:38:40.999Z</time></trkpt><trkpt lat="43.682774373478615" lon="10.73677962542317"><ele>19.666666666666664</ele><time>2026-05-01T08:38:41.999Z</time></trkpt><trkpt lat="43.68275793834541" lon="10.736984211001019"><ele>20.333333333333332</ele><time>2026-05-01T08:38:42.999Z</time></trkpt><trkpt lat="43.68273957003361" lon="10.737204193406981"><ele>21.0</ele><time>2026-05-01T08:38:43.999Z</time></trkpt><trkpt lat="43.6827214978832" lon="10.737423049292536"><ele>21.0</ele><time>2026-05-01T08:38:44.999Z</time></trkpt><trkpt lat="43.682704966723826" lon="10.737624827336136"><ele>21.0</ele><time>2026-05-01T08:38:45.999Z</time></trkpt><trkpt lat="43.682707710681036" lon="10.737841056315895"><ele>21.0</ele><time>2026-05-01T08:38:46.999Z</time></trkpt><trkpt lat="43.68268630154771" lon="10.738064891915307"><ele>21.0</ele><time>2026-05-01T08:38:47.999Z</time></trkpt><trkpt lat="43.68266436162809" lon="10.73828684728752"><ele>21.0</ele><time>2026-05-01T08:38:48.999Z</time></trkpt><trkpt lat="43.68264126162261" lon="10.738513529594579"><ele>21.0</ele><time>2026-05-01T08:38:49.999Z</time></trkpt><trkpt lat="43.68262355558011" lon="10.738740339961067"><ele>21.0</ele><time>2026-05-01T08:38:50.999Z</time></trkpt><trkpt lat="43.68260713634743" lon="10.7389732382537"><ele>21.0</ele><time>2026-05-01T08:38:51.999Z</time></trkpt><trkpt lat="43.682590468966175" lon="10.739208309176213"><ele>21.0</ele><time>2026-05-01T08:38:52.999Z</time></trkpt><trkpt lat="43.68257154827198" lon="10.739445297454383"><ele>21.333333333333332</ele><time>2026-05-01T08:38:53.999Z</time></trkpt><trkpt lat="43.682549317525" lon="10.739679494968028"><ele>21.666666666666664</ele><time>2026-05-01T08:38:54.999Z</time></trkpt><trkpt lat="43.68253016995363" lon="10.73991014781453"><ele>22.0</ele><time>2026-05-01T08:38:55.999Z</time></trkpt><trkpt lat="43.68249145325351" lon="10.740117970804912"><ele>22.200000000000003</ele><time>2026-05-01T08:38:56.999Z</time></trkpt><trkpt lat="43.68247589609486" lon="10.74030049010765"><ele>22.4</ele><time>2026-05-01T08:38:57.999Z</time></trkpt><trkpt lat="43.68246355096076" lon="10.74046523770498"><ele>22.6</ele><time>2026-05-01T08:38:58.999Z</time></trkpt><trkpt lat="43.68247099820144" lon="10.740589105898888"><ele>22.799999999999997</ele><time>2026-05-01T08:38:59.999Z</time></trkpt><trkpt lat="43.68246185843254" lon="10.74068299593648"><ele>23.0</ele><time>2026-05-01T08:39:00.999Z</time></trkpt><trkpt lat="43.68244483380954" lon="10.740854300594519"><ele>23.0</ele><time>2026-05-01T08:39:02.999Z</time></trkpt><trkpt lat="43.682415791434764" lon="10.740939356403766"><ele>23.0</ele><time>2026-05-01T08:39:03.999Z</time></trkpt><trkpt lat="43.68236207902807" lon="10.7410170642942"><ele>23.0</ele><time>2026-05-01T08:39:04.999Z</time></trkpt><trkpt lat="43.6822682784472" lon="10.74102804181564"><ele>23.0</ele><time>2026-05-01T08:39:05.999Z</time></trkpt><trkpt lat="43.682158326250445" lon="10.741065372582575"><ele>23.0</ele><time>2026-05-01T08:39:06.999Z</time></trkpt><trkpt lat="43.68203620290912" lon="10.741107104849313"><ele>22.25</ele><time>2026-05-01T08:39:07.999Z</time></trkpt><trkpt lat="43.681911053288616" lon="10.74114987126494"><ele>21.5</ele><time>2026-05-01T08:39:08.999Z</time></trkpt><trkpt lat="43.68179322738481" lon="10.741191269322133"><ele>20.75</ele><time>2026-05-01T08:39:09.999Z</time></trkpt><trkpt lat="43.681668448121265" lon="10.741235366811228"><ele>20.0</ele><time>2026-05-01T08:39:10.999Z</time></trkpt><trkpt lat="43.681530549136255" lon="10.741286036142796"><ele>20.0</ele><time>2026-05-01T08:39:11.999Z</time></trkpt><trkpt lat="43.68140018045313" lon="10.741354206036497"><ele>20.0</ele><time>2026-05-01T08:39:12.999Z</time></trkpt><trkpt lat="43.68129345690935" lon="10.741419760179733"><ele>20.0</ele><time>2026-05-01T08:39:13.999Z</time></trkpt><trkpt lat="43.681221258782045" lon="10.741518070511727"><ele>20.0</ele><time>2026-05-01T08:39:14.999Z</time></trkpt><trkpt lat="43.6811413752461" lon="10.74165187699924"><ele>20.6</ele><time>2026-05-01T08:39:15.999Z</time></trkpt><trkpt lat="43.681069977122974" lon="10.741819559561387"><ele>21.2</ele><time>2026-05-01T08:39:16.999Z</time></trkpt><trkpt lat="43.680996937461686" lon="10.741962884093786"><ele>21.799999999999997</ele><time>2026-05-01T08:39:17.999Z</time></trkpt><trkpt lat="43.68093462770035" lon="10.742070794657623"><ele>22.4</ele><time>2026-05-01T08:39:18.999Z</time></trkpt><trkpt lat="43.68087704174516" lon="10.742142333043791"><ele>23.0</ele><time>2026-05-01T08:39:19.999Z</time></trkpt><trkpt lat="43.68078466188162" lon="10.742242894240508"><ele>23.0</ele><time>2026-05-01T08:39:21.999Z</time></trkpt><trkpt lat="43.68071515073731" lon="10.742322547098109"><ele>23.0</ele><time>2026-05-01T08:39:23.998Z</time></trkpt><trkpt lat="43.68066876953673" lon="10.742397411546646"><ele>23.0</ele><time>2026-05-01T08:39:39.998Z</time></trkpt><trkpt lat="43.6807495381252" lon="10.742573962418053"><ele>23.0</ele><time>2026-05-01T08:39:41.998Z</time></trkpt><trkpt lat="43.68080493831835" lon="10.742640609979691"><ele>23.0</ele><time>2026-05-01T08:39:42.998Z</time></trkpt><trkpt lat="43.680880013151615" lon="10.742722824225233"><ele>23.0</ele><time>2026-05-01T08:39:43.998Z</time></trkpt><trkpt lat="43.68095949962231" lon="10.742815319356001"><ele>23.0</ele><time>2026-05-01T08:39:44.998Z</time></trkpt><trkpt lat="43.681023598066474" lon="10.742933901038342"><ele>23.0</ele><time>2026-05-01T08:39:45.998Z</time></trkpt><trkpt lat="43.68112806659603" lon="10.743080825442378"><ele>23.0</ele><time>2026-05-01T08:39:46.998Z</time></trkpt><trkpt lat="43.68124369527894" lon="10.743219306560928"><ele>23.0</ele><time>2026-05-01T08:39:47.998Z</time></trkpt><trkpt lat="43.68136725195252" lon="10.74339475557094"><ele>23.0</ele><time>2026-05-01T08:39:48.998Z</time></trkpt><trkpt lat="43.68147862035791" lon="10.743557960043214"><ele>23.0</ele><time>2026-05-01T08:39:49.998Z</time></trkpt><trkpt lat="43.681609872540186" lon="10.743742301074041"><ele>24.0</ele><time>2026-05-01T08:39:50.998Z</time></trkpt><trkpt lat="43.68173653408493" lon="10.7439357200795"><ele>25.0</ele><time>2026-05-01T08:39:51.998Z</time></trkpt><trkpt lat="43.6818733051342" lon="10.74414282244288"><ele>26.0</ele><time>2026-05-01T08:39:52.998Z</time></trkpt><trkpt lat="43.682011725067795" lon="10.744352525216367"><ele>28.0</ele><time>2026-05-01T08:39:53.998Z</time></trkpt><trkpt lat="43.68214127015622" lon="10.744562322406718"><ele>30.0</ele><time>2026-05-01T08:39:54.998Z</time></trkpt><trkpt lat="43.682256950225344" lon="10.744760501942924"><ele>32.0</ele><time>2026-05-01T08:39:55.998Z</time></trkpt><trkpt lat="43.68236945391725" lon="10.744964398001857"><ele>32.0</ele><time>2026-05-01T08:39:56.998Z</time></trkpt><trkpt lat="43.68247860435856" lon="10.74517177540088"><ele>32.0</ele><time>2026-05-01T08:39:57.998Z</time></trkpt><trkpt lat="43.68257786570367" lon="10.74538042701749"><ele>32.0</ele><time>2026-05-01T08:39:58.998Z</time></trkpt><trkpt lat="43.68268356739205" lon="10.745600533839765"><ele>32.33333333333333</ele><time>2026-05-01T08:39:59.998Z</time></trkpt><trkpt lat="43.682796605722324" lon="10.74584442151722"><ele>32.666666666666664</ele><time>2026-05-01T08:40:00.998Z</time></trkpt><trkpt lat="43.68286054522047" lon="10.74608020931107"><ele>33.0</ele><time>2026-05-01T08:40:01.998Z</time></trkpt><trkpt lat="43.68292114134468" lon="10.74628900145311"><ele>33.666666666666664</ele><time>2026-05-01T08:40:02.998Z</time></trkpt><trkpt lat="43.68299333477597" lon="10.746514069396078"><ele>34.33333333333333</ele><time>2026-05-01T08:40:03.998Z</time></trkpt><trkpt lat="43.683057558568244" lon="10.746761820666691"><ele>35.0</ele><time>2026-05-01T08:40:04.998Z</time></trkpt><trkpt lat="43.68313229900958" lon="10.747017414486672"><ele>36.33333333333333</ele><time>2026-05-01T08:40:05.998Z</time></trkpt><trkpt lat="43.68320826732222" lon="10.747273883651681"><ele>37.666666666666664</ele><time>2026-05-01T08:40:06.998Z</time></trkpt><trkpt lat="43.683262755337466" lon="10.747518555981584"><ele>39.0</ele><time>2026-05-01T08:40:07.998Z</time></trkpt><trkpt lat="43.68332367769515" lon="10.747737832645244"><ele>40.0</ele><time>2026-05-01T08:40:08.997Z</time></trkpt><trkpt lat="43.68340292355667" lon="10.747960633180499"><ele>41.0</ele><time>2026-05-01T08:40:09.997Z</time></trkpt><trkpt lat="43.68347017744767" lon="10.748211229131321"><ele>42.0</ele><time>2026-05-01T08:40:10.997Z</time></trkpt><trkpt lat="43.68354177351087" lon="10.748470309712998"><ele>43.0</ele><time>2026-05-01T08:40:11.997Z</time></trkpt><trkpt lat="43.68360968294004" lon="10.748703831128747"><ele>44.0</ele><time>2026-05-01T08:40:12.997Z</time></trkpt><trkpt lat="43.683678529148075" lon="10.748907313874204"><ele>45.0</ele><time>2026-05-01T08:40:13.997Z</time></trkpt><trkpt lat="43.68375852896296" lon="10.749102018629738"><ele>45.0</ele><time>2026-05-01T08:40:14.997Z</time></trkpt><trkpt lat="43.68384564303148" lon="10.749299898424104"><ele>45.0</ele><time>2026-05-01T08:40:15.997Z</time></trkpt><trkpt lat="43.68393572334375" lon="10.749493259233818"><ele>45.0</ele><time>2026-05-01T08:40:16.997Z</time></trkpt><trkpt lat="43.68403517397111" lon="10.749685252238034"><ele>46.0</ele><time>2026-05-01T08:40:17.997Z</time></trkpt><trkpt lat="43.6841452575992" lon="10.749866565304462"><ele>47.0</ele><time>2026-05-01T08:40:18.997Z</time></trkpt><trkpt lat="43.684263633010936" lon="10.75004262564398"><ele>48.0</ele><time>2026-05-01T08:40:20Z</time></trkpt><trkpt lat="43.68433277513735" lon="10.750226402508686"><ele>48.25</ele><time>2026-05-01T08:40:21Z</time></trkpt><trkpt lat="43.68439758142427" lon="10.750402803924947"><ele>48.5</ele><time>2026-05-01T08:40:22Z</time></trkpt><trkpt lat="43.68446644113617" lon="10.75061184653114"><ele>48.75</ele><time>2026-05-01T08:40:23Z</time></trkpt><trkpt lat="43.68451276432657" lon="10.750752472640839"><ele>49.0</ele><time>2026-05-01T08:40:24Z</time></trkpt><trkpt lat="43.68457442333822" lon="10.75093264032231"><ele>50.75</ele><time>2026-05-01T08:40:25Z</time></trkpt><trkpt lat="43.684648347552766" lon="10.751094808901266"><ele>52.5</ele><time>2026-05-01T08:40:26Z</time></trkpt><trkpt lat="43.68469657362011" lon="10.75128174559766"><ele>54.25</ele><time>2026-05-01T08:40:27Z</time></trkpt><trkpt lat="43.68476725799641" lon="10.751465353933819"><ele>56.0</ele><time>2026-05-01T08:40:28Z</time></trkpt><trkpt lat="43.684842790056074" lon="10.751639461928844"><ele>56.0</ele><time>2026-05-01T08:40:29Z</time></trkpt><trkpt lat="43.6849139841722" lon="10.751790779000856"><ele>56.0</ele><time>2026-05-01T08:40:30Z</time></trkpt><trkpt lat="43.684994185970076" lon="10.751957199717458"><ele>56.0</ele><time>2026-05-01T08:40:31Z</time></trkpt><trkpt lat="43.68508008235037" lon="10.752126199238273"><ele>56.0</ele><time>2026-05-01T08:40:32Z</time></trkpt><trkpt lat="43.68518231400574" lon="10.752292645284307"><ele>56.0</ele><time>2026-05-01T08:40:33Z</time></trkpt><trkpt lat="43.685270137904126" lon="10.752431431211981"><ele>56.0</ele><time>2026-05-01T08:40:34Z</time></trkpt><trkpt lat="43.6853511766106" lon="10.752558386873504"><ele>56.0</ele><time>2026-05-01T08:40:35Z</time></trkpt><trkpt lat="43.685428461660656" lon="10.752683736380295"><ele>56.0</ele><time>2026-05-01T08:40:36Z</time></trkpt><trkpt lat="43.68549725916963" lon="10.752811141519668"><ele>56.0</ele><time>2026-05-01T08:40:37Z</time></trkpt><trkpt lat="43.68556282943486" lon="10.752953386541085"><ele>56.0</ele><time>2026-05-01T08:40:38Z</time></trkpt><trkpt lat="43.68562810426622" lon="10.753103538078063"><ele>56.0</ele><time>2026-05-01T08:40:39Z</time></trkpt><trkpt lat="43.6856990621682" lon="10.753267455013988"><ele>56.0</ele><time>2026-05-01T08:40:40Z</time></trkpt><trkpt lat="43.68576630085895" lon="10.75342296437917"><ele>54.5</ele><time>2026-05-01T08:40:41Z</time></trkpt><trkpt lat="43.68582404988441" lon="10.753563672292982"><ele>53.0</ele><time>2026-05-01T08:40:42Z</time></trkpt><trkpt lat="43.685899832876416" lon="10.753712739273873"><ele>51.5</ele><time>2026-05-01T08:40:42.999Z</time></trkpt><trkpt lat="43.68596380811743" lon="10.753866966279505"><ele>50.0</ele><time>2026-05-01T08:40:43.999Z</time></trkpt><trkpt lat="43.68602021910398" lon="10.754014502545553"><ele>50.0</ele><time>2026-05-01T08:40:44.999Z</time></trkpt><trkpt lat="43.68607550615661" lon="10.754148536464006"><ele>50.0</ele><time>2026-05-01T08:40:45.999Z</time></trkpt><trkpt lat="43.68611222125174" lon="10.754299915770254"><ele>50.0</ele><time>2026-05-01T08:40:46.999Z</time></trkpt><trkpt lat="43.68615389262466" lon="10.754441408033674"><ele>50.0</ele><time>2026-05-01T08:40:47.999Z</time></trkpt><trkpt lat="43.68614735520095" lon="10.754602336428198"><ele>50.0</ele><time>2026-05-01T08:40:48.999Z</time></trkpt><trkpt lat="43.686188728994196" lon="10.754768388290474"><ele>50.0</ele><time>2026-05-01T08:40:49.999Z</time></trkpt><trkpt lat="43.68618469332512" lon="10.754920961968223"><ele>50.0</ele><time>2026-05-01T08:40:50.999Z</time></trkpt><trkpt lat="43.68618237732212" lon="10.755086093834123"><ele>50.0</ele><time>2026-05-01T08:40:51.999Z</time></trkpt><trkpt lat="43.68617910064706" lon="10.75524776201048"><ele>50.0</ele><time>2026-05-01T08:40:52.999Z</time></trkpt><trkpt lat="43.686169930144324" lon="10.755420016053106"><ele>50.0</ele><time>2026-05-01T08:40:53.999Z</time></trkpt><trkpt lat="43.686140876472734" lon="10.755588559421259"><ele>50.0</ele><time>2026-05-01T08:40:54.999Z</time></trkpt><trkpt lat="43.68614458584626" lon="10.755750166445992"><ele>50.0</ele><time>2026-05-01T08:40:55.999Z</time></trkpt><trkpt lat="43.68613446538634" lon="10.755904858468812"><ele>50.4</ele><time>2026-05-01T08:40:56.999Z</time></trkpt><trkpt lat="43.68613035250075" lon="10.756039854807286"><ele>50.8</ele><time>2026-05-01T08:40:57.999Z</time></trkpt><trkpt lat="43.686128520698986" lon="10.756181123673711"><ele>51.2</ele><time>2026-05-01T08:40:58.999Z</time></trkpt><trkpt lat="43.686130467925366" lon="10.756332301627774"><ele>51.6</ele><time>2026-05-01T08:40:59.999Z</time></trkpt><trkpt lat="43.68614324846587" lon="10.75647132977828"><ele>52.0</ele><time>2026-05-01T08:41:00.999Z</time></trkpt><trkpt lat="43.686164544683166" lon="10.756601461014839"><ele>52.0</ele><time>2026-05-01T08:41:01.999Z</time></trkpt><trkpt lat="43.68618482570346" lon="10.75674353837296"><ele>52.0</ele><time>2026-05-01T08:41:02.999Z</time></trkpt><trkpt lat="43.686207024561455" lon="10.75688299526576"><ele>52.0</ele><time>2026-05-01T08:41:03.999Z</time></trkpt><trkpt lat="43.68623412537564" lon="10.75701258219186"><ele>52.0</ele><time>2026-05-01T08:41:04.999Z</time></trkpt><trkpt lat="43.68626419337368" lon="10.757143356657037"><ele>52.0</ele><time>2026-05-01T08:41:05.999Z</time></trkpt><trkpt lat="43.68629862764732" lon="10.757277822444498"><ele>52.400000000000006</ele><time>2026-05-01T08:41:06.999Z</time></trkpt><trkpt lat="43.686336119417845" lon="10.7574131042566"><ele>52.800000000000004</ele><time>2026-05-01T08:41:07.999Z</time></trkpt><trkpt lat="43.68637194718422" lon="10.757549838358834"><ele>53.2</ele><time>2026-05-01T08:41:08.999Z</time></trkpt><trkpt lat="43.686407082914776" lon="10.757674447631176"><ele>53.6</ele><time>2026-05-01T08:41:09.999Z</time></trkpt><trkpt lat="43.686436315297" lon="10.757787115820957"><ele>54.0</ele><time>2026-05-01T08:41:10.999Z</time></trkpt><trkpt lat="43.68646018571201" lon="10.75789092507809"><ele>54.333333333333336</ele><time>2026-05-01T08:41:11.999Z</time></trkpt><trkpt lat="43.68648035401728" lon="10.757987603472325"><ele>54.66666666666667</ele><time>2026-05-01T08:41:12.999Z</time></trkpt><trkpt lat="43.686500984442254" lon="10.758082190732113"><ele>55.0</ele><time>2026-05-01T08:41:13.999Z</time></trkpt><trkpt lat="43.686524764534106" lon="10.758190021526255"><ele>55.333333333333336</ele><time>2026-05-01T08:41:14.999Z</time></trkpt><trkpt lat="43.686549018238246" lon="10.758324779624699"><ele>55.66666666666667</ele><time>2026-05-01T08:41:15.999Z</time></trkpt><trkpt lat="43.68657751081834" lon="10.758467611923512"><ele>56.0</ele><time>2026-05-01T08:41:16.999Z</time></trkpt><trkpt lat="43.686584808865206" lon="10.758648363229222"><ele>56.25</ele><time>2026-05-01T08:41:17.999Z</time></trkpt><trkpt lat="43.686604853058306" lon="10.758806555722636"><ele>56.5</ele><time>2026-05-01T08:41:18.999Z</time></trkpt><trkpt lat="43.686622942608096" lon="10.758976770051262"><ele>56.75</ele><time>2026-05-01T08:41:19.999Z</time></trkpt><trkpt lat="43.68663950012615" lon="10.759157302812026"><ele>57.0</ele><time>2026-05-01T08:41:20.999Z</time></trkpt><trkpt lat="43.68665151916314" lon="10.759347871615017"><ele>56.75</ele><time>2026-05-01T08:41:21.998Z</time></trkpt><trkpt lat="43.686664155179486" lon="10.759546855984311"><ele>56.5</ele><time>2026-05-01T08:41:22.998Z</time></trkpt><trkpt lat="43.686675628381266" lon="10.759729020558652"><ele>56.25</ele><time>2026-05-01T08:41:23.998Z</time></trkpt><trkpt lat="43.68668484568889" lon="10.759875367621664"><ele>56.0</ele><time>2026-05-01T08:41:24.998Z</time></trkpt><trkpt lat="43.68669379103447" lon="10.760019530205845"><ele>56.0</ele><time>2026-05-01T08:41:25.998Z</time></trkpt><trkpt lat="43.686703737346086" lon="10.760180492839236"><ele>55.99999999999999</ele><time>2026-05-01T08:41:26.998Z</time></trkpt><trkpt lat="43.68671248809669" lon="10.760322110723113"><ele>55.99999999999999</ele><time>2026-05-01T08:41:27.998Z</time></trkpt><trkpt lat="43.686721348969016" lon="10.760460325960675"><ele>56.0</ele><time>2026-05-01T08:41:28.998Z</time></trkpt><trkpt lat="43.686730796951764" lon="10.760607599084357"><ele>56.0</ele><time>2026-05-01T08:41:29.998Z</time></trkpt><trkpt lat="43.686741873206785" lon="10.760780253071252"><ele>56.199999999999996</ele><time>2026-05-01T08:41:30.998Z</time></trkpt><trkpt lat="43.68675268700907" lon="10.760948816706438"><ele>56.39999999999999</ele><time>2026-05-01T08:41:31.998Z</time></trkpt><trkpt lat="43.686761803326064" lon="10.761090919650378"><ele>56.6</ele><time>2026-05-01T08:41:32.998Z</time></trkpt><trkpt lat="43.68676979057986" lon="10.761215425528418"><ele>56.8</ele><time>2026-05-01T08:41:33.998Z</time></trkpt><trkpt lat="43.68677694457261" lon="10.761328895547319"><ele>57.0</ele><time>2026-05-01T08:41:34.998Z</time></trkpt><trkpt lat="43.686783794316305" lon="10.761437060033172"><ele>57.0</ele><time>2026-05-01T08:41:35.998Z</time></trkpt><trkpt lat="43.686789885869324" lon="10.761533251650471"><ele>56.99999999999999</ele><time>2026-05-01T08:41:36.998Z</time></trkpt><trkpt lat="43.68679666306752" lon="10.761640270430778"><ele>57.0</ele><time>2026-05-01T08:41:37.998Z</time></trkpt><trkpt lat="43.686802964455524" lon="10.761739775513423"><ele>57.0</ele><time>2026-05-01T08:41:38.998Z</time></trkpt><trkpt lat="43.68680948736972" lon="10.761846377365865"><ele>56.99999999999999</ele><time>2026-05-01T08:41:39.998Z</time></trkpt><trkpt lat="43.686815114560446" lon="10.761939861255986"><ele>57.0</ele><time>2026-05-01T08:41:40.998Z</time></trkpt><trkpt lat="43.686845070251884" lon="10.762025661219038"><ele>57.0</ele><time>2026-05-01T08:41:41.998Z</time></trkpt><trkpt lat="43.68684903579063" lon="10.762114599488198"><ele>57.0</ele><time>2026-05-01T08:41:42.998Z</time></trkpt><trkpt lat="43.68685316322638" lon="10.76229742291931"><ele>57.0</ele><time>2026-05-01T08:41:44.998Z</time></trkpt><trkpt lat="43.68683840621377" lon="10.762405216555644"><ele>57.0</ele><time>2026-05-01T08:41:45.998Z</time></trkpt><trkpt lat="43.68684269199402" lon="10.762513135075315"><ele>57.0</ele><time>2026-05-01T08:41:46.998Z</time></trkpt><trkpt lat="43.686846795225485" lon="10.762616457033193"><ele>57.0</ele><time>2026-05-01T08:41:47.998Z</time></trkpt><trkpt lat="43.6868514209411" lon="10.762725624413541"><ele>57.0</ele><time>2026-05-01T08:41:48.998Z</time></trkpt><trkpt lat="43.68685688185618" lon="10.762840210378261"><ele>57.0</ele><time>2026-05-01T08:41:49.998Z</time></trkpt><trkpt lat="43.68686202697458" lon="10.762946490159063"><ele>57.0</ele><time>2026-05-01T08:41:50.998Z</time></trkpt><trkpt lat="43.686868552063" lon="10.763066192093774"><ele>57.0</ele><time>2026-05-01T08:41:51.998Z</time></trkpt><trkpt lat="43.686878684050534" lon="10.763194478157544"><ele>57.0</ele><time>2026-05-01T08:41:52.998Z</time></trkpt><trkpt lat="43.68689377397341" lon="10.763319302728357"><ele>57.0</ele><time>2026-05-01T08:41:53.998Z</time></trkpt><trkpt lat="43.686918951712805" lon="10.763446996887186"><ele>57.0</ele><time>2026-05-01T08:41:54.998Z</time></trkpt><trkpt lat="43.68697023274918" lon="10.763567457943235"><ele>57.0</ele><time>2026-05-01T08:41:55.998Z</time></trkpt><trkpt lat="43.68701308046921" lon="10.763697134089417"><ele>57.0</ele><time>2026-05-01T08:41:56.998Z</time></trkpt><trkpt lat="43.68705347697292" lon="10.76385538507405"><ele>57.0</ele><time>2026-05-01T08:41:57.998Z</time></trkpt><trkpt lat="43.68710279397595" lon="10.763998529710996"><ele>57.0</ele><time>2026-05-01T08:41:58.998Z</time></trkpt><trkpt lat="43.68715105710009" lon="10.764140152049784"><ele>57.0</ele><time>2026-05-01T08:41:59.998Z</time></trkpt><trkpt lat="43.68719323254443" lon="10.764272092797519"><ele>57.0</ele><time>2026-05-01T08:42:00.998Z</time></trkpt><trkpt lat="43.68723052657703" lon="10.76439797232131"><ele>57.0</ele><time>2026-05-01T08:42:01.998Z</time></trkpt><trkpt lat="43.68727024322842" lon="10.764535634248869"><ele>57.0</ele><time>2026-05-01T08:42:02.998Z</time></trkpt><trkpt lat="43.687307813961105" lon="10.764669021987242"><ele>57.0</ele><time>2026-05-01T08:42:03.998Z</time></trkpt><trkpt lat="43.68734735549225" lon="10.764809854383603"><ele>57.2</ele><time>2026-05-01T08:42:04.998Z</time></trkpt><trkpt lat="43.687385343348254" lon="10.7649451531708"><ele>57.400000000000006</ele><time>2026-05-01T08:42:05.997Z</time></trkpt><trkpt lat="43.68741862619441" lon="10.765063694660867"><ele>57.599999999999994</ele><time>2026-05-01T08:42:06.997Z</time></trkpt><trkpt lat="43.68745119785087" lon="10.765180122082128"><ele>57.8</ele><time>2026-05-01T08:42:07.997Z</time></trkpt><trkpt lat="43.687484563299655" lon="10.765303676915726"><ele>58.0</ele><time>2026-05-01T08:42:08.997Z</time></trkpt><trkpt lat="43.687515091048" lon="10.76541672329276"><ele>57.5</ele><time>2026-05-01T08:42:10.997Z</time></trkpt><trkpt lat="43.68758108993709" lon="10.765668095839738"><ele>57.0</ele><time>2026-05-01T08:42:11.997Z</time></trkpt><trkpt lat="43.6876040933514" lon="10.765756516341671"><ele>56.5</ele><time>2026-05-01T08:42:12.997Z</time></trkpt><trkpt lat="43.687639898375416" lon="10.76591761154868"><ele>56.0</ele><time>2026-05-01T08:42:14.997Z</time></trkpt><trkpt lat="43.68767237106099" lon="10.766021515964031"><ele>56.25</ele><time>2026-05-01T08:42:15.997Z</time></trkpt><trkpt lat="43.687703242845764" lon="10.766146897731781"><ele>56.5</ele><time>2026-05-01T08:42:16.997Z</time></trkpt><trkpt lat="43.68774287793028" lon="10.766304028810742"><ele>56.75</ele><time>2026-05-01T08:42:17.997Z</time></trkpt><trkpt lat="43.687785896878324" lon="10.766479007637296"><ele>57.0</ele><time>2026-05-01T08:42:18.997Z</time></trkpt><trkpt lat="43.687822249786805" lon="10.766633605299532"><ele>57.25</ele><time>2026-05-01T08:42:19.997Z</time></trkpt><trkpt lat="43.68786308405059" lon="10.766809451945825"><ele>57.5</ele><time>2026-05-01T08:42:20.997Z</time></trkpt><trkpt lat="43.687895493969364" lon="10.76699914274773"><ele>57.75</ele><time>2026-05-01T08:42:21.997Z</time></trkpt><trkpt lat="43.687905276268054" lon="10.767182192110578"><ele>58.0</ele><time>2026-05-01T08:42:22.997Z</time></trkpt><trkpt lat="43.68789248051309" lon="10.767366210969879"><ele>58.0</ele><time>2026-05-01T08:42:23.997Z</time></trkpt><trkpt lat="43.687870486354406" lon="10.767558928750736"><ele>58.0</ele><time>2026-05-01T08:42:24.997Z</time></trkpt><trkpt lat="43.687848930461655" lon="10.76773955313798"><ele>58.0</ele><time>2026-05-01T08:42:26Z</time></trkpt><trkpt lat="43.6878216885376" lon="10.767953103865889"><ele>58.0</ele><time>2026-05-01T08:42:27Z</time></trkpt><trkpt lat="43.687790195815" lon="10.768163567312053"><ele>58.25</ele><time>2026-05-01T08:42:28Z</time></trkpt><trkpt lat="43.68774763062124" lon="10.768363181307562"><ele>58.5</ele><time>2026-05-01T08:42:29Z</time></trkpt><trkpt lat="43.68769192602275" lon="10.768541273236323"><ele>58.75</ele><time>2026-05-01T08:42:30Z</time></trkpt><trkpt lat="43.68762365279512" lon="10.768711964743158"><ele>59.0</ele><time>2026-05-01T08:42:31Z</time></trkpt><trkpt lat="43.687540558501446" lon="10.76888840197248"><ele>59.0</ele><time>2026-05-01T08:42:32Z</time></trkpt><trkpt lat="43.687456706972995" lon="10.769057518504013"><ele>59.0</ele><time>2026-05-01T08:42:33Z</time></trkpt><trkpt lat="43.68740165478011" lon="10.769204403412816"><ele>59.0</ele><time>2026-05-01T08:42:34Z</time></trkpt><trkpt lat="43.68735437447156" lon="10.769339634005053"><ele>59.0</ele><time>2026-05-01T08:42:35Z</time></trkpt><trkpt lat="43.68730990915294" lon="10.769466811278075"><ele>58.66666666666667</ele><time>2026-05-01T08:42:36Z</time></trkpt><trkpt lat="43.68726939335609" lon="10.769586366524788"><ele>58.333333333333336</ele><time>2026-05-01T08:42:37Z</time></trkpt><trkpt lat="43.6872315897448" lon="10.769698240956599"><ele>58.0</ele><time>2026-05-01T08:42:38Z</time></trkpt><trkpt lat="43.68719799235695" lon="10.769797380398161"><ele>57.66666666666667</ele><time>2026-05-01T08:42:39Z</time></trkpt><trkpt lat="43.68716492703443" lon="10.769881987556268"><ele>57.333333333333336</ele><time>2026-05-01T08:42:40Z</time></trkpt><trkpt lat="43.68711266900245" lon="10.770006757054997"><ele>57.0</ele><time>2026-05-01T08:42:42Z</time></trkpt><trkpt lat="43.68707489063433" lon="10.770096333160648"><ele>57.0</ele><time>2026-05-01T08:42:45Z</time></trkpt><trkpt lat="43.687042147476454" lon="10.770171425036871"><ele>57.0</ele><time>2026-05-01T08:42:47Z</time></trkpt><trkpt lat="43.686987194202494" lon="10.770288435629416"><ele>49.0</ele><time>2026-05-01T08:42:49Z</time></trkpt><trkpt lat="43.686958104142136" lon="10.770370681223948"><ele>49.0</ele><time>2026-05-01T08:42:57.999Z</time></trkpt></trkseg></trk></gpx>